[[{"header":{"parameterUnit":"m.s-1","parameterCategory":1,"la1":31.0,"la2":29.5877,"lo1":-88.7671,"lo2":-86.6584,"dy":0.0162,"dx":0.0185,"nx":115,"ny":88,"refTime":"2024-09-10T06:00:00:Z","depth":0,"parameterNumber":2,"parameterNumberName":"U-component_of_WINDS"},"data":[0.0,0.0,0.0,0.0,0.0,0.0,0.0,0.0,0.0,0.0,0.0,0.0,0.0,0.0,0.0,0.0,0.0,0.0,0.0,0.0,0.0,0.0,0.0,0.0,0.0,0.0,0.0,0.0,0.0,0.0,0.0,0.0,0.0,0.0,0.0,0.0,0.0,0.0,0.0,0.0,0.0,0.0,0.0,0.0,0.0,0.0,0.0,0.0,0.0,0.0,0.0,0.0,0.0,0.0,0.0,0.0,0.0,0.0,0.0,0.0,0.0,0.0,0.0,0.0,0.0,0.0,0.0,0.0,0.0,0.0,0.0,0.0,0.0,0.0,0.0,0.0,0.0,0.0,0.0,0.0,0.0,0.0,0.0,0.0,0.0,0.0,0.0,0.0,0.0,0.0,0.0,0.0,0.0,0.0,0.0,0.0,0.0,0.0,0.0,0.0,0.0,0.0,0.0,0.0,0.0,0.0,0.0,0.0,0.0,0.0,0.0,0.0,0.0,0.0,0.0,0.0,0.0,0.0,0.0,0.0,0.0,0.0,0.0,0.0,0.0,0.0,0.0,0.0,0.0,0.0,0.0,0.0,0.0,0.0,0.0,0.0,0.0,0.0,0.0,0.0,0.0,0.0,0.0,0.0,0.0,0.0,0.0,0.0,0.0,0.0,0.0,0.0,0.0,0.0,0.0,0.0,0.0,0.0,0.0,0.0,0.0,0.0,0.0,0.0,0.0,0.0,0.0,0.0,0.0,0.0,0.0,0.0,0.0,0.0,0.0,0.0,0.0,0.0,0.0,0.0,0.0,0.0,0.0,0.0,0.0,0.0,0.0,0.0,0.0,0.0,0.0,0.0,0.0,0.0,0.0,0.0,0.0,0.0,0.0,0.0,0.0,0.0,0.0,0.0,0.0,0.0,0.0,0.0,0.0,0.0,0.0,0.0,0.0,0.0,0.0,0.0,0.0,0.0,0.0,0.0,0.0,0.0,0.0,0.0,0.0,0.0,0.0,0.0,0.0,0.0,0.0,0.0,0.0,0.0,0.0,0.0,0.0,0.0,0.0,0.0,0.0,0.0,0.0,0.0,0.0,0.0,0.0,0.0,0.0,0.0,0.0,0.0,0.0,0.0,0.0,0.0,0.0,0.0,0.0,0.0,0.0,0.0,0.0,0.0,0.0,0.0,0.0,0.0,0.0,0.0,0.0,0.0,0.0,0.0,0.0,0.0,0.0,0.0,0.0,0.0,0.0,0.0,0.0,0.0,0.0,0.0,0.0,0.0,0.0,0.0,0.0,0.0,0.0,0.0,0.0,0.0,0.0,0.0,0.0,0.0,0.0,0.0,0.0,0.0,0.0,0.0,0.0,0.0,0.0,0.0,0.0,0.0,0.0,0.0,0.0,0.0,0.0,0.0,0.0,0.0,0.0,0.0,0.0,0.0,0.0,0.0,0.0,0.0,0.0,0.0,0.0,0.0,0.0,0.0,0.0,0.0,0.0,0.0,0.0,0.0,0.0,0.0,0.0,0.0,0.0,0.0,0.0,0.0,0.0,0.0,0.0,0.0,0.0,0.0,0.0,0.0,0.0,0.0,0.0,0.0,0.0,0.0,0.0,0.0,0.0,0.0,0.0,0.0,0.0,0.0,0.0,0.0,0.0,0.0,0.0,0.0,0.0,0.0,0.0,0.0,0.0,0.0,0.0,0.0,0.0,0.0,0.0,0.0,0.0,0.0,0.0,0.0,0.0,0.0,0.0,0.0,0.0,0.0,0.0,0.0,0.0,0.0,0.0,0.0,0.0,0.0,0.0,0.0,0.0,0.0,0.0,0.0,0.0,0.0,0.0,0.0,0.0,0.0,0.0,0.0,0.0,0.0,0.0,0.0,0.0,0.0,0.0,0.0,0.0,0.0,0.0,0.0,0.0,0.0,0.0,0.0,0.0,0.0,0.0,0.0,0.0,0.0,0.0,0.0,0.0,0.0,0.0,0.0,0.0,0.0,0.0,0.0,0.0,0.0,0.0,0.0,0.0,0.0,0.0,0.0,0.0,0.0,0.0,0.0,0.0,0.0,0.0,0.0,0.0,0.0,0.0,0.0,0.0,0.0,0.0,0.0,0.0,0.0,0.0,0.0,0.0,0.0,0.0,0.0,0.0,0.0,0.0,0.0,0.0,0.0,0.0,0.0,0.0,0.0,0.0,0.0,0.0,0.0,0.0,0.0,0.0,0.0,0.0,0.0,0.0,0.0,0.0,0.0,0.0,0.0,0.0,0.0,0.0,0.0,0.0,0.0,0.0,0.0,0.0,0.0,0.0,0.0,0.0,0.0,0.0,0.0,0.0,0.0,0.0,0.0,0.0,0.0,0.0,0.0,0.0,0.0,0.0,0.0,0.0,0.0,0.0,0.0,0.0,0.0,0.0,0.0,0.0,0.0,0.0,0.0,0.0,0.0,0.0,0.0,0.0,0.0,0.0,0.0,0.0,0.0,0.0,0.0,0.0,0.0,0.0,0.0,0.0,0.0,0.0,0.0,0.0,0.0,0.0,0.0,0.0,0.0,0.0,0.0,0.0,0.0,0.0,0.0,0.0,0.0,0.0,0.0,0.0,0.0,0.0,0.0,0.0,0.0,0.0,0.0,0.0,0.0,0.0,0.0,0.0,0.0,0.0,0.0,0.0,0.0,0.0,0.0,0.0,0.0,0.0,0.0,0.0,0.0,0.0,0.0,0.0,0.0,0.0,0.0,0.0,0.0,0.0,0.0,0.0,0.0,0.0,0.0,0.0,0.0,0.0,0.0,0.0,0.0,0.0,0.0,0.0,0.0,0.0,0.0,0.0,0.0,0.0,0.0,0.0,0.0,0.0,0.0,0.0,0.0,0.0,0.0,0.0,0.0,0.0,0.0,0.0,0.0,0.0,0.0,0.0,0.0,0.0,0.0,0.0,0.0,0.0,0.0,0.0,0.0,0.0,0.0,0.0,0.0,0.0,0.0,0.0,0.0,0.0,0.0,0.0,0.0,0.0,0.0,0.0,0.0,0.0,0.0,0.0,0.0,0.0,0.0,0.0,0.0,0.0,0.0,0.0,0.0,0.0,0.0,0.0,0.0,0.0,0.0,0.0,0.0,0.0,0.0,0.0,0.0,0.0,0.0,0.0,0.0,0.0,0.0,0.0,0.0,0.0,0.0,0.0,0.0,0.0,0.0,0.0,0.0,0.0,0.0,0.0,0.0,0.0,0.0,0.0,0.0,0.0,0.0,0.0,0.0,0.0,0.0,0.0,0.0,0.0,0.0,0.0,0.0,0.0,0.0,0.0,0.0,0.0,0.0,0.0,0.0,0.0,0.0,0.0,0.0,0.0,0.0,0.0,0.0,0.0,0.0,0.0,0.0,0.0,0.0,0.0,0.0,0.0,0.0,0.0,0.0,0.0,0.0,0.0,0.0,0.0,0.0,0.0,0.0,0.0,0.0,0.0,0.0,0.0,0.0,0.0,0.0,0.0,0.0,0.0,0.0,0.0,0.0,0.0,0.0,0.0,0.0,0.0,0.0,0.0,0.0,0.0,0.0,0.0,0.0,0.0,0.0,0.0,0.0,0.0,0.0,0.0,0.0,0.0,0.0,0.0,0.0,0.0,0.0,0.0,0.0,0.0,0.0,0.0,0.0,0.0,0.0,0.0,0.0,0.0,0.0,0.0,0.0,0.0,0.0,0.0,0.0,0.0,0.0,0.0,0.0,0.0,0.0,0.0,0.0,0.0,0.0,0.0,0.0,0.0,0.0,0.0,0.0,0.0,0.0,0.0,0.0,0.0,0.0,0.0,0.0,0.0,0.0,0.0,0.0,0.0,0.0,0.0,0.0,0.0,0.0,0.0,0.0,0.0,0.0,0.0,0.0,0.0,0.0,0.0,0.0,0.0,0.0,0.0,0.0,0.0,0.0,0.0,0.0,0.0,0.0,0.0,0.0,0.0,0.0,0.0,0.0,0.0,0.0,0.0,0.0,0.0,0.0,0.0,0.0,0.0,0.0,0.0,0.0,0.0,0.0,0.0,0.0,0.0,0.0,0.0,0.0,0.0,0.0,0.0,0.0,0.0,0.0,0.0,0.0,0.0,0.0,0.0,0.0,0.0,0.0,0.0,0.0,0.0,0.0,0.0,0.0,0.0,0.0,0.0,0.0,0.0,0.0,0.0,0.0,0.0,0.0,0.0,0.0,0.0,0.0,0.0,0.0,0.0,0.0,0.0,0.0,0.0,0.0,0.0,0.0,0.0,0.0,0.0,0.0,0.8379,0.0,0.0,0.0,0.0,0.0,0.0,0.0,0.0,0.0,0.0,0.0,0.0,0.0,0.0,0.0,0.0,0.0,0.0,0.0,0.0,0.0,0.0,0.0,0.0,0.0,0.0,0.0,0.0,0.0,0.0,0.0,0.0,0.0,0.0,0.0,0.0,0.0,0.0,0.0,0.0,0.0,0.0,0.0,0.0,0.0,0.0,0.0,0.0,0.0,0.0,0.0,0.0,0.0,0.0,0.0,0.0,0.0,0.0,0.0,0.0,0.0,0.0,0.0,0.0,0.0,0.0,0.0,0.0,0.0,0.0,0.0,0.0,0.0,0.0,0.0,0.0,0.0,0.0,0.0,0.0,0.0,0.0,0.0,0.0,0.0,0.0,0.0,0.0,0.0,0.0,0.0,0.0,0.0,0.0,0.0,0.0,0.0,0.0,0.0,0.0,0.0,0.0,0.0,0.0,0.0,0.0,0.0,0.0,0.0,0.0,1.4567,1.1989,1.1891,1.0681,0.8137,0.0,0.0,0.0,0.0,0.0,0.0,0.0,0.0,0.0,0.0,0.0,0.0,0.0,0.0,0.0,0.0,0.0,0.0,0.0,0.0,0.0,0.0,0.0,0.0,0.0,0.0,0.0,0.0,0.0,0.0,0.0,0.0,0.0,0.0,0.0,0.0,0.0,0.0,0.0,0.0,0.0,0.0,0.0,0.0,0.0,0.0,0.0,0.0,0.0,0.0,0.0,0.0,0.0,0.0,0.0,0.0,0.0,0.0,0.0,0.0,0.0,0.0,0.0,0.0,0.0,0.0,0.0,0.0,0.0,0.0,0.0,0.0,0.0,0.0,0.0,0.0,0.0,0.0,0.0,0.0,0.0,0.0,0.0,0.0,0.0,0.0,0.0,0.0,0.0,0.0,0.0,0.0,0.0,0.0,0.0,0.0,0.0,0.0,0.0,0.0,0.0,0.0,0.0,0.0,0.0,0.0,0.0,0.0,0.0,0.0,0.0,0.0,1.2123,1.068,0.7826,0.0,0.0,0.0,0.0,0.0,0.0,0.0,0.0,0.0,0.0,0.0,0.0,0.0,0.0,0.0,0.0,0.0,0.0,0.0,0.0,0.0,0.0,0.0,0.0,0.0,0.0,0.0,0.0,0.0,0.0,0.0,0.0,0.0,0.0,0.0,0.0,0.0,0.0,0.0,0.0,0.0,0.0,0.0,0.0,0.0,0.0,0.0,0.0,0.0,0.0,0.0,0.0,0.0,0.0,0.0,0.0,0.0,0.0,0.0,0.0,0.0,0.0,0.0,0.0,0.0,0.0,0.0,0.0,0.0,0.0,0.0,0.0,0.0,0.0,0.0,0.0,0.0,0.0,0.0,0.0,0.0,0.0,0.0,0.0,0.0,0.0,0.0,0.0,0.0,0.0,0.0,0.0,0.0,0.0,0.0,0.0,0.0,0.0,0.0,0.0,0.0,0.0,0.0,0.0,0.0,0.0,0.0,0.0,0.0,0.0,1.4973,1.3247,1.2735,0.0,0.713,0.0,0.0,0.0,0.0,0.0,0.0,0.0,0.0,0.0,0.0,0.0,0.0,0.0,0.0,0.0,0.0,0.0,0.0,0.0,0.0,0.0,0.0,0.0,0.0,0.0,0.0,0.0,0.0,0.0,0.0,0.0,0.0,0.0,0.0,0.0,0.0,0.0,0.0,0.0,0.0,0.0,0.0,0.0,0.0,0.0,0.0,0.0,0.0,0.0,0.0,0.0,0.0,0.0,0.0,0.0,0.0,0.0,0.0,0.0,0.0,0.0,0.0,0.0,0.0,0.0,0.0,0.0,0.0,0.0,0.0,0.0,0.0,0.0,0.0,0.0,0.0,0.0,0.0,0.0,0.0,0.0,0.0,0.0,0.0,0.0,0.0,0.0,0.0,0.0,0.0,0.0,0.0,0.0,0.0,0.0,0.0,0.0,0.0,0.0,0.0,0.0,0.0,0.0,0.0,0.0,0.0,0.0,0.0,0.0,0.0,1.5442,1.2931,1.1142,0.9406,0.0,0.0,0.0,0.0,0.0,0.0,0.0,0.0,0.0,0.0,0.0,0.0,0.0,0.0,0.0,0.0,0.0,0.0,0.0,0.0,0.0,0.0,0.0,0.0,0.0,0.0,0.0,0.0,0.0,0.0,0.0,0.0,0.0,0.0,0.0,0.0,0.0,0.0,0.0,0.0,0.0,0.0,0.0,0.0,0.0,0.0,0.0,0.0,0.0,0.0,0.0,0.0,0.0,0.0,0.0,0.0,0.0,0.0,0.0,0.0,0.0,0.0,0.0,0.0,0.0,0.0,0.0,0.0,0.0,0.0,0.0,0.0,0.0,0.0,0.0,0.0,0.0,0.0,0.0,0.0,0.0,0.0,0.0,0.0,0.0,0.0,0.0,0.0,0.0,0.0,0.0,0.0,0.0,0.0,0.0,0.0,0.0,0.0,0.0,0.0,0.0,0.0,0.0,0.0,0.0,0.0,0.0,0.0,0.0,0.0,1.7005,1.5848,1.2996,1.0531,0.9002,0.8484,0.0,0.0,0.0,0.0,0.0,0.0,0.0,0.0,0.0,0.0,0.0,0.0,0.0,0.0,0.0,0.0,0.0,0.0,0.0,0.0,0.0,0.0,0.0,0.0,0.0,0.0,0.0,0.0,0.0,0.0,0.0,0.0,0.0,0.0,0.0,0.0,0.0,0.0,0.0,0.0,0.0,0.0,0.0,0.0,0.0,0.0,0.0,0.0,0.0,0.0,0.0,0.0,0.0,0.0,0.0,0.0,0.0,0.0,0.0,0.0,0.0,0.0,0.0,0.0,0.0,0.0,0.0,0.0,0.0,0.0,0.0,0.0,0.0,0.0,0.0,0.0,0.0,0.0,0.0,0.0,0.0,0.0,0.0,0.0,0.0,0.0,0.0,0.0,0.0,0.0,0.0,0.0,0.0,0.0,0.0,0.0,0.0,0.0,0.0,0.0,0.0,0.0,0.0,0.0,0.0,0.0,0.0,0.0,1.821,1.7542,1.6073,1.3778,1.2025,1.0271,0.0,0.0,0.0,0.0,0.0,0.0,0.0,0.0,0.0,0.0,0.0,0.0,0.0,0.0,0.0,0.0,0.0,0.0,0.0,0.0,0.0,0.0,0.0,0.0,0.0,0.0,0.0,0.0,0.0,0.0,0.0,0.0,0.0,0.0,0.0,0.0,0.0,0.0,0.0,0.0,0.0,0.0,0.0,0.0,0.0,0.0,0.0,0.0,0.0,0.0,0.0,0.0,0.0,0.0,0.0,0.0,0.0,0.0,0.0,0.0,0.0,0.0,0.0,0.0,0.0,0.0,0.0,0.0,0.0,0.0,0.0,0.0,0.0,0.0,0.0,0.0,0.0,0.0,0.0,0.0,0.0,0.0,0.0,0.0,0.0,0.0,0.0,0.0,0.0,0.0,0.0,0.0,0.0,0.0,0.0,0.0,0.0,0.0,0.0,0.0,0.0,0.0,0.0,0.0,0.0,0.0,0.0,0.0,0.0,1.6171,1.5557,1.5435,1.5812,1.2495,1.0514,0.0,0.0,0.0,0.0,0.0,0.0,0.0,0.0,0.0,0.0,0.0,0.0,0.0,0.0,0.0,0.0,0.0,0.0,0.0,0.0,0.0,0.0,0.0,0.0,0.0,0.0,0.0,0.0,0.0,0.0,0.0,0.0,0.0,0.0,0.0,0.0,0.0,0.0,0.0,0.0,0.0,0.0,0.0,0.0,0.0,0.0,0.0,0.0,0.0,0.0,0.0,0.0,0.0,0.0,0.0,0.0,0.0,0.0,0.0,0.0,0.0,0.0,0.0,0.0,0.0,0.0,0.0,0.0,0.0,0.0,0.0,0.0,0.0,0.0,0.0,0.0,0.0,0.0,0.0,0.0,0.0,0.0,0.0,0.0,0.0,0.0,0.0,0.0,0.0,0.0,0.0,0.0,0.0,0.0,0.0,0.0,0.0,0.0,0.0,0.0,0.0,0.0,0.0,0.0,0.0,0.0,0.0,0.0,0.0,1.5979,0.0,1.621,1.675,1.3578,1.1438,0.0,0.0,0.0,0.0,0.0,0.0,0.0,0.0,0.0,0.0,0.0,0.0,0.0,0.0,0.0,0.0,0.0,0.0,0.0,0.0,0.0,0.0,0.0,0.0,0.0,0.0,0.0,0.0,0.0,0.0,0.0,0.0,0.0,0.0,0.0,0.0,0.0,0.0,0.0,0.0,0.0,0.0,0.0,0.0,0.0,0.0,0.0,0.0,0.0,0.0,0.0,0.0,0.0,0.0,0.0,0.0,0.0,0.0,0.0,0.0,0.0,0.0,0.0,0.0,0.0,0.0,0.0,0.0,0.0,0.0,0.0,0.0,0.0,0.0,0.0,0.0,0.0,0.0,0.0,0.0,0.0,0.0,0.0,0.0,0.0,0.0,0.0,0.0,0.0,0.0,0.0,0.0,0.0,0.0,0.0,0.0,0.0,0.0,0.0,0.0,0.0,0.0,0.0,0.0,0.0,0.0,0.0,0.0,1.6211,1.7862,1.8798,1.8272,1.6417,1.5367,1.3137,0.0,0.0,0.0,0.0,0.0,0.0,0.0,0.0,0.0,0.0,0.0,0.0,0.0,0.0,0.0,0.0,0.0,0.0,0.0,0.0,0.0,0.0,0.0,0.0,0.0,0.0,0.0,0.0,0.0,0.0,0.0,0.0,0.0,0.0,0.0,0.0,0.0,0.0,0.0,0.0,0.0,0.0,0.0,0.0,0.0,0.0,0.0,0.0,0.0,0.0,0.0,0.0,0.0,0.0,0.0,0.0,0.0,0.0,0.0,0.0,0.0,0.0,0.0,0.0,0.0,0.0,0.0,0.0,0.0,0.0,0.0,0.0,0.0,0.0,0.0,0.0,0.0,0.0,0.0,0.0,0.0,0.0,0.0,0.0,0.0,0.0,0.0,0.0,0.0,0.0,0.0,0.0,0.0,0.0,0.0,0.0,0.0,0.0,0.0,0.0,0.0,0.0,0.0,0.0,0.0,0.0,0.0,0.0,0.0,1.6783,1.7689,1.8231,1.8285,1.5105,1.3151,0.0,0.0,0.0,0.0,0.0,0.0,0.0,0.0,0.0,0.0,0.0,0.0,0.0,0.0,0.0,0.0,0.0,0.0,0.0,0.0,0.0,0.0,0.0,0.0,0.0,0.0,0.0,0.0,0.0,0.0,0.0,0.0,0.0,0.0,0.0,0.0,0.0,0.0,0.0,0.0,0.0,0.0,0.0,0.0,0.0,0.0,0.0,0.0,0.0,0.0,0.0,0.0,0.0,0.0,0.0,0.0,0.0,0.0,0.0,0.0,0.0,0.0,0.0,0.0,0.0,0.0,0.0,0.0,0.0,0.0,0.0,0.0,0.0,0.0,0.0,0.0,0.0,0.0,0.0,0.0,0.0,0.0,0.0,0.0,0.0,0.0,0.0,0.0,0.0,0.0,0.0,0.0,0.0,0.0,0.0,0.0,0.0,0.0,0.0,0.0,0.0,0.0,0.0,0.0,0.0,0.0,0.0,0.0,0.0,1.5618,1.6414,1.7047,1.7587,1.4461,1.2779,1.2786,0.0,0.0,0.0,0.0,0.0,0.0,0.0,0.0,0.0,0.0,0.0,0.0,0.0,0.0,0.0,0.0,0.0,0.0,0.0,0.0,0.0,0.0,0.0,0.0,0.0,0.0,0.0,0.0,0.0,0.0,0.0,0.0,0.0,0.0,0.0,0.0,0.0,0.0,0.0,0.0,0.0,0.0,0.0,0.0,0.0,0.0,0.0,0.0,0.0,0.0,0.0,0.0,0.0,0.0,0.0,0.0,0.0,0.0,0.0,0.0,0.0,0.0,0.0,0.0,0.0,0.0,0.0,0.0,0.0,0.0,0.0,0.0,0.0,0.0,0.0,0.0,0.0,0.0,0.0,0.0,0.0,0.0,0.0,0.0,0.0,0.0,0.0,0.0,0.0,0.0,0.0,0.0,0.0,0.0,0.0,0.0,0.0,0.0,0.0,0.0,0.0,0.0,0.0,0.0,0.0,0.0,0.0,0.0,1.4334,1.4915,1.5071,1.4769,1.3591,1.2128,0.0,0.0,0.0,0.0,0.0,0.0,0.0,0.0,0.0,0.0,0.0,0.0,0.0,0.0,0.0,0.0,0.0,0.0,0.0,0.0,0.0,0.0,0.0,0.0,0.0,0.0,0.0,0.0,0.0,0.0,0.0,0.0,0.0,0.0,0.0,0.0,0.0,0.0,0.0,0.0,0.0,0.0,0.0,0.0,0.0,0.0,0.0,0.0,0.0,0.0,0.0,0.0,0.0,0.0,0.0,0.0,0.0,0.0,0.0,0.0,0.0,0.0,0.0,0.0,0.0,0.0,0.0,0.0,0.0,0.0,0.0,0.0,0.0,0.0,0.0,0.0,0.0,0.0,0.0,0.0,0.0,0.0,0.0,0.0,0.0,0.0,0.0,0.0,0.0,0.0,0.0,0.0,0.0,0.0,0.0,0.0,0.0,0.0,0.0,0.0,0.0,0.0,0.0,0.0,0.0,0.0,0.0,0.0,0.0,1.3138,1.2736,1.3486,1.544,1.3499,1.213,0.0,0.0,0.0,0.0,0.0,0.0,0.0,0.0,0.0,0.0,0.0,0.0,0.0,0.0,0.0,0.0,0.0,0.0,0.0,0.0,0.0,0.0,0.0,0.0,0.0,0.0,0.0,0.0,0.0,0.0,0.0,0.0,0.0,0.0,0.0,0.0,0.0,0.0,0.0,0.0,0.0,0.0,0.0,0.0,0.0,0.0,0.0,0.0,0.0,0.0,0.0,0.0,0.0,0.0,0.0,0.0,0.0,0.0,0.0,0.0,0.0,0.0,0.0,0.0,0.0,0.0,0.0,0.0,0.0,0.0,0.0,0.0,0.0,0.0,0.0,0.0,0.0,0.0,0.0,0.0,0.0,0.0,0.0,0.0,0.0,0.0,0.0,0.0,0.0,0.0,0.0,0.0,0.0,0.0,0.0,0.0,0.0,0.0,0.0,0.0,0.0,0.0,0.0,0.0,0.0,0.0,0.0,0.0,1.2115,1.2185,1.1875,1.2545,1.4138,1.253,1.141,0.0,0.0,0.0,0.0,0.0,0.0,0.0,0.0,0.0,0.0,0.0,0.0,0.0,0.0,0.0,0.0,0.0,0.0,0.0,0.0,0.0,0.0,0.0,0.0,0.0,0.0,0.0,0.0,0.0,0.0,0.0,0.0,0.0,0.0,0.0,0.0,0.0,0.0,0.0,0.0,0.0,0.0,0.0,0.0,0.0,0.0,0.0,0.0,0.0,0.0,0.0,0.0,0.0,0.0,0.0,0.0,0.0,0.0,0.0,0.0,0.0,0.0,0.0,0.0,0.0,0.0,0.0,0.0,0.0,0.0,0.0,0.0,0.0,0.0,0.0,0.0,0.0,0.0,0.0,0.0,0.0,0.0,0.0,0.0,0.0,0.0,0.0,0.0,0.0,0.0,0.0,0.0,0.0,0.0,0.0,0.0,0.0,0.0,0.0,0.0,0.0,0.0,0.0,0.0,0.0,0.0,0.0,0.0,1.2007,1.148,1.1986,1.2155,1.1877,1.1217,1.0487,0.0,0.0,0.0,0.0,0.0,0.0,0.0,0.0,0.0,0.0,0.0,0.0,0.0,0.0,0.0,0.0,0.0,0.0,0.0,0.0,0.0,0.0,0.0,0.0,0.0,0.0,0.0,0.0,0.0,0.0,0.0,0.0,0.0,0.0,0.0,0.0,0.0,0.0,0.0,0.0,0.0,0.0,0.0,0.0,0.0,0.0,0.0,0.0,0.0,0.0,0.0,0.0,0.0,0.0,0.0,0.0,0.0,0.0,0.0,0.0,0.0,0.0,0.0,0.0,0.0,0.0,0.0,0.0,0.0,0.0,0.0,0.0,0.0,0.0,0.0,0.0,0.0,0.0,0.0,0.0,0.0,0.0,0.0,0.0,0.0,0.0,0.0,0.0,0.0,0.0,0.0,0.0,0.0,0.0,0.0,0.0,0.0,0.0,0.0,0.0,0.0,0.0,0.0,0.0,0.0,0.0,0.0,0.0,1.1351,1.1565,1.204,1.2257,1.2189,1.1497,1.0683,0.0,0.0,0.0,0.0,0.0,0.0,0.0,0.0,0.0,0.0,0.0,0.0,0.0,0.0,0.0,0.0,0.0,0.0,0.0,0.0,0.0,0.0,0.0,0.0,0.0,0.0,0.0,0.0,0.0,0.0,0.0,0.0,0.0,0.0,0.0,0.0,0.0,0.0,0.0,0.0,0.0,0.0,0.0,0.0,0.0,0.0,0.0,0.0,0.8683,0.0,0.0,0.0,0.0,0.0,0.0,0.0,0.0,0.0,0.0,0.0,0.0,0.0,0.0,0.0,0.0,0.0,0.0,0.0,0.0,0.0,0.0,0.0,0.0,0.0,0.0,0.0,0.0,0.0,0.0,0.0,0.0,0.0,0.0,0.0,0.0,0.0,0.0,0.0,0.0,0.0,0.0,0.0,0.0,0.0,0.0,0.0,0.0,0.0,0.0,0.0,0.0,0.0,0.0,0.0,0.0,0.0,0.0,0.0,1.1443,1.1823,1.2196,1.2325,1.2176,1.166,1.0921,0.0,0.0,0.0,0.0,0.0,0.0,0.0,0.0,0.0,0.0,0.0,0.0,0.0,0.0,0.0,0.0,0.0,0.0,0.0,0.0,0.0,0.0,0.0,0.0,0.0,0.0,0.0,0.0,0.0,0.0,0.0,0.0,0.0,0.0,0.0,0.0,0.0,0.0,0.0,0.0,0.0,0.0,0.0,0.0,0.0,0.0,0.0,0.0,0.0,0.0,0.0,0.0,0.0,0.0,0.0,0.0,0.0,0.0,0.0,0.0,0.0,0.0,0.0,0.0,0.0,0.0,0.0,0.0,0.0,0.0,0.0,0.0,0.0,0.0,0.0,0.0,0.0,0.0,0.0,0.0,0.0,0.0,0.0,0.0,0.0,0.0,0.0,0.0,0.0,0.0,0.0,0.0,0.0,0.0,0.0,0.0,0.0,0.0,0.0,0.0,0.0,0.0,0.0,0.0,0.0,0.0,0.0,1.1111,1.1735,1.2121,1.2372,1.2372,1.2101,1.1789,1.1055,1.0038,0.0,0.0,0.0,0.0,0.0,0.0,0.0,0.0,0.0,0.0,0.0,0.0,0.0,0.0,0.0,0.0,0.0,0.0,0.0,0.0,0.0,0.0,0.0,0.0,0.0,0.0,0.0,0.0,0.0,0.0,0.0,0.0,0.0,0.0,0.0,0.0,0.0,0.0,0.8703,0.9205,0.0,0.0,0.0,0.0,0.0,0.0,0.0,0.0,0.9232,0.0,0.0,0.0,0.0,0.0,0.0,0.0,0.0,0.0,0.0,0.0,0.0,0.0,0.0,0.0,0.0,0.0,0.0,0.0,0.0,0.0,0.0,0.0,0.0,0.0,0.0,0.0,0.0,0.0,0.0,0.0,0.0,0.0,0.0,0.0,0.0,0.0,0.0,0.0,0.0,0.0,0.0,0.0,0.0,0.0,0.0,0.0,0.0,0.0,0.0,0.0,0.0,0.0,0.0,0.0,0.0,1.1151,1.1212,1.1626,1.2406,1.2474,1.242,1.225,1.1843,1.1124,1.0044,0.0,0.0,0.0,0.0,0.0,0.0,0.0,0.0,0.0,0.0,0.0,0.0,0.0,0.0,0.0,0.0,0.0,0.0,0.0,0.0,0.0,0.0,0.0,0.0,0.0,0.0,0.0,0.0,0.0,0.0,0.0,0.0,0.0,0.0,0.0,0.0,0.0,0.0,0.0,1.0093,1.0276,0.0,0.0,0.0,0.0,0.0,0.0,0.0,0.0,0.9432,0.0,0.0,0.0,0.0,0.0,0.0,0.0,0.0,0.0,0.0,0.0,0.0,0.0,0.0,0.0,0.0,0.0,0.0,0.0,0.0,0.0,0.0,0.0,0.0,0.0,0.0,0.0,0.0,0.0,0.0,0.0,0.0,0.0,0.0,0.0,0.0,0.0,0.0,0.0,0.0,0.0,0.0,0.0,0.0,0.0,0.0,0.0,0.0,0.0,0.0,0.0,0.0,0.0,0.0,0.0,1.0995,1.143,1.1911,1.2474,1.2501,1.2393,1.2169,1.1586,1.0846,0.0,0.0,0.0,0.0,0.0,0.0,0.0,0.0,0.0,0.0,0.0,0.0,0.0,0.0,0.0,0.0,0.0,0.0,0.0,0.0,0.0,0.0,0.0,0.0,0.0,0.0,0.0,0.0,0.0,0.0,0.0,0.0,0.0,0.0,0.0,0.0,0.0,0.0,0.0,0.0,1.0256,1.0439,1.0297,0.0,0.0,0.0,0.0,0.0,0.0,0.9564,0.948,0.0,0.0,0.0,0.0,0.0,0.0,0.0,0.0,0.0,0.0,0.0,0.0,0.0,0.0,0.0,0.0,0.0,0.0,0.0,0.0,0.0,0.0,0.0,0.0,0.0,0.0,0.0,0.0,0.0,0.0,0.0,0.0,0.0,0.0,0.0,0.0,0.0,0.0,0.0,0.0,0.0,0.0,0.0,0.0,0.0,0.0,0.0,0.0,0.0,0.0,0.0,0.0,0.0,0.0,0.0,1.0724,1.1545,1.2142,1.2481,1.2501,1.2359,1.2135,1.143,1.0624,0.0,0.0,0.0,0.0,0.0,0.0,0.0,0.0,0.0,0.0,0.0,0.0,0.0,0.0,0.0,0.0,0.0,0.0,0.0,0.0,0.0,0.0,0.0,0.0,0.0,0.0,0.0,0.0,0.0,0.0,0.0,0.0,0.0,0.0,0.0,0.0,0.0,0.0,0.0,0.0,0.0,1.0561,1.0392,1.0371,0.0,0.0,0.0,0.0,1.0215,1.0025,0.0,0.0,0.0,0.0,0.0,0.0,0.0,0.0,0.0,0.0,0.0,0.0,0.0,0.0,0.0,0.0,0.0,0.0,0.0,0.0,0.0,0.0,0.0,0.0,0.0,0.0,0.0,0.0,0.0,0.0,0.0,0.0,0.0,0.0,0.0,0.0,0.0,0.0,0.0,0.0,0.0,0.0,0.0,0.0,0.0,0.0,0.0,0.0,0.0,0.0,0.0,0.0,0.0,0.0,0.0,0.0,1.0704,1.1348,1.1938,1.2467,1.2501,1.2359,1.2142,1.1721,1.0995,0.0,0.0,0.0,0.0,0.0,0.0,0.0,0.0,0.0,0.0,0.0,0.0,0.0,0.0,0.0,0.0,0.0,0.0,0.0,0.0,0.0,0.0,0.0,0.0,0.0,0.0,0.0,0.0,0.0,0.0,0.0,0.0,0.0,0.0,0.0,0.0,0.0,0.0,0.0,0.0,0.0,1.0989,1.0711,1.067,1.0649,0.0,0.0,1.0826,1.1009,1.1212,0.0,0.0,0.0,0.0,0.0,0.0,0.0,0.0,0.0,0.0,0.0,0.0,0.0,0.0,0.0,0.0,0.0,0.0,0.0,0.0,0.0,0.0,0.0,0.0,0.0,0.0,0.0,0.0,0.0,0.0,0.0,0.0,0.0,0.0,0.0,0.0,0.0,0.0,0.0,0.0,0.0,0.0,0.0,0.0,0.0,0.0,0.0,0.0,0.0,0.0,0.0,0.0,0.0,0.0,0.0,1.008,1.0724,1.1565,1.2162,1.2488,1.2501,1.2359,1.2142,1.1531,1.0758,0.0,0.0,0.0,0.0,0.0,0.0,0.0,0.0,0.0,0.0,0.0,0.0,0.0,0.0,0.0,0.0,0.0,0.0,0.0,0.0,0.0,0.0,0.0,0.0,0.0,0.0,0.0,0.0,0.0,0.0,0.0,0.0,0.0,0.0,0.0,0.0,0.0,0.0,0.0,0.0,0.0,0.0,1.1118,1.1246,0.0,0.0,0.0,1.1409,1.164,0.0,0.0,0.0,0.0,0.0,0.0,0.0,0.0,0.0,0.0,0.0,0.0,0.0,0.0,0.0,0.0,0.0,0.0,0.0,0.0,0.0,0.0,0.0,0.0,0.0,0.0,0.0,0.0,0.0,0.0,0.0,0.0,0.0,0.0,0.0,0.0,0.0,0.0,0.0,0.0,0.0,0.0,0.0,0.0,0.0,0.0,0.0,0.0,0.0,0.0,0.0,0.0,0.0,0.0,0.0,0.0,0.0,1.0731,1.1789,1.2393,1.2494,1.2501,1.2359,1.2135,1.145,0.0,0.0,0.0,0.0,0.0,0.0,0.0,0.0,0.0,0.0,0.0,0.0,0.0,0.0,0.0,0.0,0.0,0.0,0.0,0.0,0.0,0.0,0.0,0.0,0.0,0.0,0.0,0.2889,0.0,0.0,0.0,0.0,0.0,0.0,0.0,0.0,0.0,0.0,0.0,0.0,0.0,0.0,1.1297,1.0758,1.0951,1.1021,0.0,0.0,1.115,1.1353,1.1543,1.145,0.0,0.0,0.0,0.0,0.0,0.0,0.0,0.0,0.0,0.0,0.0,0.0,0.0,0.0,0.0,0.0,0.0,0.0,0.0,0.0,0.0,0.0,0.0,0.0,0.0,0.0,0.0,0.0,0.0,0.0,0.0,0.0,0.0,0.0,0.0,0.0,0.0,0.0,0.0,0.0,0.0,0.0,0.0,0.0,0.0,0.0,0.0,0.0,0.0,0.0,0.0,0.0,0.0,0.0,1.0412,1.0744,1.1884,1.2494,1.2501,1.2501,1.2359,1.2067,1.1742,1.0955,0.0,0.0,0.0,0.0,0.0,0.0,0.0,0.0,0.0,0.0,0.0,0.0,0.0,0.0,0.0,0.0,0.0,0.0,0.0,0.0,0.0,0.0,0.0,0.0,0.0,0.0,0.0,0.0,0.0,0.0,0.0,0.0,0.0,0.0,0.0,0.0,0.0,0.0,0.0,0.0,0.0,1.1037,0.8989,0.9213,0.8777,0.0,0.8184,0.9494,0.9425,1.1426,1.2515,1.0975,0.0,0.0,0.0,0.0,0.0,0.0,0.0,0.0,0.0,0.0,0.0,0.0,0.0,0.0,0.0,0.0,0.0,0.0,0.0,0.0,0.0,0.0,0.0,0.0,0.0,0.0,0.0,0.0,0.0,0.0,0.0,0.0,0.0,0.0,0.0,0.0,0.0,0.0,0.0,0.0,0.0,0.0,0.0,0.0,0.0,0.0,0.0,0.0,0.0,0.0,0.0,0.0,0.0,1.0514,1.0995,1.1986,1.2549,1.2637,1.2549,1.2359,1.2067,1.1775,1.1029,0.0,0.0,0.0,0.0,0.0,0.0,0.0,0.0,0.0,0.0,0.0,0.0,0.0,0.0,0.0,0.0,0.0,0.0,0.0,0.0,0.0,0.0,0.0,0.0,0.0,0.0,0.0,0.0,0.2371,0.3707,0.5063,0.0,0.0,0.0,0.0,0.0,0.0,0.0,0.0,0.0,0.0,0.9269,0.7224,0.7298,0.0,0.0,0.702,0.7635,0.7639,0.9312,1.0261,0.9512,1.0048,0.0,0.0,0.0,0.0,0.0,0.0,0.0,0.0,0.0,0.0,0.0,0.0,0.0,0.0,0.0,0.0,0.0,0.0,0.0,0.0,0.0,0.0,0.0,0.0,0.0,0.0,0.0,0.0,0.0,0.0,0.0,0.0,0.0,0.0,0.0,0.0,0.0,0.0,0.0,0.0,0.0,0.0,0.0,0.0,0.0,0.0,0.0,0.0,0.0,0.0,0.0,0.0,1.0555,1.1097,1.2026,1.2556,1.2657,1.2556,1.2359,1.2074,1.1816,1.1138,0.0,0.0,0.0,0.0,0.0,0.0,0.0,0.0,0.0,0.0,0.0,0.0,0.0,0.0,0.0,0.0,0.0,0.0,0.0,0.0,0.0,0.0,0.0,0.0,0.0,0.0,0.0,0.0,0.149,0.286,0.3704,0.0,0.0,0.0,0.0,0.0,0.0,0.0,0.0,0.0,0.0,0.7416,0.5391,0.5379,0.5248,0.4656,0.5104,0.5556,0.5642,0.7054,0.8094,0.766,0.0,0.0,0.0,0.0,0.0,0.0,0.0,0.0,0.0,0.0,0.0,0.0,0.0,0.0,0.0,0.0,0.0,0.0,0.0,0.0,0.0,0.0,0.0,0.0,0.0,0.0,0.0,1.2123,0.0,0.0,0.8224,0.0,0.0,0.0,0.0,0.0,0.0,0.0,0.0,0.0,0.0,0.0,0.0,0.0,0.0,0.0,0.0,0.0,0.0,0.0,0.0,0.0,0.0,1.0507,1.0894,1.1986,1.2508,1.2515,1.2501,1.2359,1.2149,1.1911,1.1335,1.029,0.0,0.0,0.0,0.0,0.0,0.0,0.0,0.0,0.0,0.0,0.0,0.0,0.0,0.0,0.0,0.0,0.0,0.0,0.0,0.0,0.0,0.0,0.0,0.0,0.0,0.0,0.0,0.1476,0.2431,0.0,0.0,0.0,0.0,0.0,0.0,0.0,0.0,0.0,0.5379,0.5928,0.5544,0.3491,0.3442,0.2859,0.0608,0.2092,0.3413,0.3173,0.5021,0.6343,0.0,0.0,0.0,0.0,0.0,0.0,0.0,0.0,0.0,0.0,0.0,0.0,0.0,0.0,0.0,0.0,0.0,0.0,0.0,0.0,0.0,0.0,0.0,0.0,0.0,0.0,0.0,1.2597,1.1654,0.0,0.0,0.0,0.0,0.0,0.0,0.0,0.0,0.0,0.0,0.0,0.964,1.0024,0.0,0.0,0.0,0.0,0.0,0.0,0.0,0.0,0.0,0.0,0.0,0.0,1.0649,1.1389,1.2121,1.2549,1.2644,1.2556,1.2359,1.2067,1.1911,1.1224,1.0098,0.0,0.0,0.0,0.0,0.0,0.0,0.0,0.0,0.0,0.0,0.0,0.0,0.0,0.0,0.0,0.0,0.0,0.0,0.0,0.0,0.0,0.0,0.0,0.0,0.0,0.0,0.0,0.0,0.0,0.0,0.0,0.0,0.0,0.0,0.0,0.0,0.3627,0.3207,0.3577,0.3894,0.3416,0.1306,0.1138,0.0878,0.0,0.0,0.0,0.0,0.0,0.0,0.0,0.0,0.0,0.0,0.0,0.0,0.0,0.0,0.8107,0.6869,0.7813,0.8777,0.8735,0.0,0.0,0.0,0.0,0.0,0.0,0.0,0.0,0.0,0.0,0.0,0.0,0.0,0.0,1.0673,1.0469,0.8846,0.0,0.0,0.0,0.0,0.0,0.0,0.0,0.0,0.9261,1.0117,1.0765,1.1151,1.1131,1.0818,1.0555,1.0025,0.0,0.0,0.0,0.0,0.0,0.0,0.0,0.0,1.0744,1.1531,1.2176,1.2549,1.2644,1.2549,1.2359,1.2067,1.1809,1.126,1.0327,0.9978,0.9072,0.0,0.0,0.0,0.0,0.0,0.0,0.0,0.0,0.0,0.0,0.0,0.0,0.0,0.0,0.0,0.0,0.0,0.0,0.0,0.0,0.0,0.0,0.0,0.0,0.0,0.0,0.0,0.0,0.0,0.0,0.0,0.0,0.0,0.0,-0.03,-0.1035,-0.0926,-0.0601,-0.0958,-0.2388,0.0,0.0,0.0,0.0,0.0,0.0,0.0,0.1744,0.1788,0.2764,0.373,0.4314,0.4967,0.5305,0.5141,0.0,0.0,0.5129,0.6387,0.7439,0.7333,0.8814,1.0067,1.011,1.04,1.0546,0.0,0.0,0.0,0.0,0.8295,0.0,0.0,0.0,0.7075,0.7993,0.0,0.621,0.0,0.0,0.0,0.0,0.365,0.4416,0.0,0.0,0.8702,1.0213,1.1999,1.2074,1.2155,1.2155,1.2121,1.1674,1.086,0.968,0.0,0.0,0.0,0.0,0.0,0.0,1.0812,1.1423,1.2142,1.2508,1.2508,1.2501,1.2366,1.2067,1.1633,1.1267,1.09,1.0736,1.0306,0.9659,0.9044,0.0,0.0,0.0,0.0,0.0,0.0,0.0,0.0,0.0,0.0,0.0,0.0,0.0,0.0,0.0,0.0,0.0,0.0,0.0,0.0,0.0,0.0,0.0,0.0,0.0,0.0,0.0,0.0,0.0,0.0,-0.9719,-0.7366,-0.7051,-0.7326,-0.7452,0.0,0.0,0.0,0.0,-0.3703,-0.3532,-0.1651,0.0,0.0,0.0,0.0,0.0,0.0,0.0,0.2355,0.3091,0.3252,0.2672,0.1326,0.1448,0.59,0.6321,0.6183,0.632,0.6329,0.6204,0.635,0.7018,0.7071,0.7656,0.0,0.0,0.0,0.0,0.5182,0.5264,0.5856,0.5994,0.5989,0.6002,0.5208,0.0,0.0,0.0,0.0,0.0,0.0,0.4989,0.824,0.879,1.0207,1.2542,1.2651,1.2651,1.2535,1.2427,1.2216,1.1898,1.1409,1.0473,0.9157,0.0,0.0,0.0,0.0,1.1375,1.187,1.2393,1.261,1.2501,1.2501,1.2359,1.2142,1.1735,1.1463,1.1267,1.2467,1.2237,1.0326,1.1148,0.0,0.0,0.0,0.0,0.0,0.0,0.0,0.0,0.0,0.0,0.0,0.0,0.0,0.0,0.0,0.0,0.0,0.0,0.0,0.0,0.0,-0.0709,0.0,0.0,0.0,0.0,0.0,0.0,0.0,0.0,0.0,-1.2483,-1.078,-0.9162,0.0,0.0,-0.7477,-0.7424,-0.6815,-0.5864,-0.4003,-0.3194,0.0,-0.0276,0.0,0.0,0.0,0.0,0.0198,0.0685,0.0899,0.1014,0.0,0.0404,0.0508,0.1719,0.3317,0.4265,0.4549,0.5784,0.6935,0.7052,0.7265,0.7246,0.3145,0.2567,0.3199,0.3637,0.3805,0.3077,0.2995,0.3492,0.3311,0.3641,0.416,0.3272,0.3066,0.3417,0.2548,0.0,0.0,0.0,0.4057,0.6402,0.7419,0.8749,1.0158,1.0443,1.0438,1.0238,1.0163,1.0066,0.9952,0.9757,0.906,0.7922,0.0,1.0548,1.0602,1.1294,1.1823,1.2155,1.2535,1.2657,1.2508,1.1664,1.1066,1.0853,1.0572,1.0756,1.1491,1.2596,1.245,1.0927,1.0877,0.9416,0.0,0.0,0.0,0.0,0.0,0.0,0.0,0.0,0.0,0.0,0.0,0.0,0.0,0.0,0.0,0.0,-0.0846,-0.1646,-0.2399,-0.2657,0.0,0.0,0.0,0.0,0.0,0.0,0.0,-1.176,-1.33,-1.4502,-1.4851,-1.3592,-1.2116,-1.0779,-1.0566,-1.0532,-1.0469,0.0,-0.8529,-0.6985,-0.5066,-0.3309,-0.1813,-0.0665,0.0,0.0,0.0,0.0,0.0,0.0,0.0,0.0,0.0,0.0,0.0,0.1223,0.2196,0.2189,0.3392,0.4399,0.4483,0.4565,0.4532,0.0,0.0,0.1791,0.2471,0.2333,0.0733,0.0,0.0,0.0,0.1151,0.2893,0.0892,0.1102,0.2883,0.0881,0.0,0.0,0.2015,0.2925,0.3203,0.5311,0.6351,0.6519,0.6669,0.6666,0.6512,0.6512,0.6479,0.6408,0.6184,0.5893,0.5622,0.9282,1.1142,1.0973,1.1376,1.1743,1.1804,1.2057,1.2115,1.1953,1.0031,0.8849,0.867,0.8558,0.9405,1.124,1.139,1.1324,1.108,0.894,0.6695,0.4594,0.0,0.0,0.0,0.0,0.0,0.0,0.0,0.0,0.0,0.0,0.0,0.0,0.0,0.0,-0.0243,-0.2339,0.0,-0.6176,-0.6701,0.0,0.0,0.0,-0.8431,-1.0302,-1.1168,-1.231,-1.3981,0.0,0.0,-1.5445,-1.5567,-1.5601,-1.5466,-1.5194,-1.5004,-1.4991,-1.291,-1.1526,-1.1177,-0.7226,-0.4127,-0.3709,-0.1677,0.0,0.0,0.0,0.0,0.0,0.0,0.0,0.0,0.0,0.0,0.0,0.0,0.0,0.0,0.0,0.0,0.0,0.0,0.0,0.0,0.0,0.0438,0.0605,0.0597,0.0173,0.0,0.0,0.0,0.0344,0.0764,0.0253,0.0331,0.0719,0.0238,0.0,0.0,0.0487,0.1643,0.3235,0.3834,0.501,0.6593,0.6693,0.6693,0.6676,0.6673,0.6666,0.6649,0.6549,0.64,0.6301,0.7367,0.7488,0.6872,0.7395,0.7727,0.7748,0.7873,0.7898,0.7743,0.7103,0.6713,0.6706,0.6556,0.7319,0.9155,0.927,0.9292,0.912,0.7283,0.4721,0.1458,-0.0469,0.0,0.0,0.0,0.0,0.0,0.0,0.0,0.0,0.0,0.0,0.0,0.0,-0.0783,0.0,-0.4861,-0.6337,-0.6741,-0.7079,0.0,0.0,-1.0081,-1.1109,-1.3674,-1.397,-1.4211,-1.4952,-1.5282,-1.5499,-1.5723,-1.5778,-1.5784,-1.5744,-1.5493,-1.5262,-1.5153,-1.4725,-1.3621,-1.1773,-0.8788,-0.6048,-0.405,-0.1699,0.0,0.0,0.0,0.0,0.0,0.0,0.0,0.0,0.0,0.0,0.0,0.0,0.0,0.0,0.0,0.0,0.0,0.0,0.0,0.0,0.0,0.0,0.0,0.0,0.0,0.0,0.0,0.0,0.0,0.0,0.0,0.0,0.0,0.0,0.0,0.0,0.0,0.0674,0.1779,0.1787,0.255,0.372,0.372,0.3133,0.2123,0.2113,0.16,0.0673,0.0673,0.0669,0.0662,0.0666,0.0492,0.0238,0.4298,0.6475,0.636,0.6378,0.5893,0.493,0.4794,0.4647,0.4641,0.4583,0.5364,0.72,0.7367,0.6964,0.6145,0.4368,0.1674,-0.1888,-0.3566,-0.4975,0.0,0.0,0.0,0.0,0.0,0.0,0.0,0.0,0.0,0.0,0.0,-0.3911,-0.6274,-0.7837,-0.9014,-0.9913,-1.0411,-1.1306,-1.2747,-1.2906,-1.3544,-1.5127,-1.5316,-1.5438,-1.5683,-1.5771,-1.5872,-1.6035,-1.5995,-1.5954,-1.5954,-1.5757,-1.5554,-1.5418,-1.5384,-1.4954,-1.3632,-1.0184,-0.6319,-0.2896,-0.1009,0.0,0.0,0.0,0.0,0.0,0.0,0.0,0.0,0.0,0.0,0.0,0.0,0.0,0.0,0.0,0.0,0.0,0.0,0.0,-0.0645,-0.0913,-0.0638,-0.0453,-0.045,-0.018,0.0,0.0,0.0,0.0,0.0,0.0,0.0,0.0,0.0,0.0,0.0,0.0,0.0,0.0,-0.0346,-0.0432,-0.0515,-0.0772,-0.1978,-0.3983,-0.4034,-0.5035,-0.6908,-0.6908,-0.687,-0.6717,-0.6717,-0.671,-0.6366,0.1086,0.5078,0.5267,0.5405,0.4604,0.2748,0.2717,0.2514,0.2225,0.2198,0.3014,0.4597,0.4471,0.3751,0.2525,0.0407,-0.2227,-0.5228,-0.6928,-0.8171,0.0,-0.8672,0.0,0.0,0.0,0.0,0.0,0.0,0.0,0.0,-0.6929,-0.7906,-0.9938,-1.0809,-1.1915,-1.372,-1.4455,-1.4855,-1.5018,-1.5289,-1.5472,-1.5506,-1.5845,-1.6083,-1.6083,-1.6198,-1.6279,-1.6259,-1.6157,-1.6076,-1.6062,-1.5961,-1.5825,-1.5723,-1.5655,-1.5572,-1.5832,-1.1299,-0.6078,0.0,0.0,0.0,0.0,0.0,0.0,0.0,0.0,0.0,0.0,0.0,0.0,0.0,0.0,0.0,0.0,0.0,0.0,0.0,0.0,0.0,-0.424,-0.5969,-0.3921,-0.3089,-0.2901,-0.09,0.0,0.0,0.0,0.0,0.0,0.0,0.0,0.0,0.0,0.0,0.0,0.0,0.0,-0.0087,-0.1994,-0.2946,-0.3027,-0.4836,-0.596,-0.6403,-0.6391,-0.6643,-0.7073,-0.7073,-0.7031,-0.6873,-0.6873,-0.6842,-0.662,0.0,0.0,0.0,0.0326,0.0966,0.0637,0.0551,-0.0154,-0.1559,-0.1626,0.0,-0.1166,-0.2684,-0.3057,-0.2079,-0.5273,0.0,0.0,0.0,0.0,0.0,0.0,0.0,0.0,0.0,0.0,0.0,-1.1397,-0.9945,-0.7252,-0.8791,-1.0221,-1.071,-1.2706,-1.4064,-1.4305,-1.4814,-1.516,-1.5316,-1.5588,-1.5818,-1.594,-1.6035,-1.6083,-1.6083,-1.611,-1.613,-1.6144,-1.6096,-1.6083,-1.609,-1.6056,-1.6029,-1.6001,-1.5798,-1.5703,-1.5433,-1.1163,-0.6122,-0.0807,0.0,0.0,0.0,0.0,0.0,0.0,0.0,0.0,0.0,0.0,0.0,0.0,0.0,0.0,0.0,0.0,0.0,0.0,0.0,0.0,-0.532,-0.7326,-0.4873,-0.3837,0.0,-0.1081,0.0,0.0,0.0,0.0,0.0,0.0,-0.0621,-0.1764,-0.1755,-0.2448,-0.3495,-0.3495,-0.3495,-0.3584,-0.474,-0.535,-0.5325,-0.6541,-0.7694,-0.8873,-0.8826,-0.9417,-1.0549,-1.0549,-1.0487,-1.0289,-1.0289,-1.0233,-1.0047,-0.8901,-0.7244,-0.5028,-0.3855,-0.3336,-0.3296,-0.324,-0.3637,-0.453,-0.4468,0.0,0.0,0.0,0.0,0.0,0.0,0.0,0.0,0.0,0.0,-1.1918,-1.1932,-1.206,-1.2359,-1.2515,-1.28,-1.3247,-1.3349,-1.2484,-1.044,-1.1775,-1.2784,-1.2945,-1.4088,-1.4882,-1.4957,-1.5228,-1.5466,-1.5615,-1.5832,-1.6001,-1.6076,-1.6151,-1.6191,-1.6191,-1.6191,-1.6218,-1.6286,-1.6232,-1.6198,-1.6191,-1.6191,-1.6191,-1.6178,-1.6001,-1.5191,-1.2561,-1.0053,-0.6075,0.0,0.0,0.0,0.0,0.0,0.0,0.0,0.0,0.0,0.0,0.0,0.0,0.0,0.0,0.0,0.0,0.0,0.0,0.0,0.0,0.0,-0.6615,-0.8711,-0.6221,-0.5156,-0.4928,-0.2443,-0.1351,-0.1259,-0.0359,0.0,0.0,-0.0449,-0.1694,-0.3622,-0.4062,-0.5294,-0.7054,-0.7142,-0.7142,-0.7146,-0.7563,-0.7736,-0.7761,-0.8197,-0.9387,-1.1245,-1.133,-1.2342,-1.4109,-1.4109,-1.4034,-1.3892,-1.3878,-1.3797,-1.3459,-1.164,-0.977,-0.7929,-0.7088,-0.6724,-0.6739,-0.6605,-0.6722,-0.7011,-0.6947,-0.6969,-0.7306,-0.7405,-0.7979,-0.9302,-0.9479,-1.0255,-1.1904,-1.2216,-1.2522,-1.3003,-1.3288,-1.3464,-1.3519,-1.3743,-1.3844,-1.3749,-1.4136,-1.4285,-1.4055,-1.438,-1.4706,-1.4984,-1.5004,-1.512,-1.5384,-1.5547,-1.5696,-1.5839,-1.5988,-1.6076,-1.609,-1.6185,-1.6252,-1.6273,-1.6259,-1.6307,-1.6395,-1.632,-1.6273,-1.6266,-1.6246,-1.6286,-1.6185,-1.5684,-1.3595,-0.95,-0.7718,-0.5406,0.0,0.0,0.0,0.0,0.0,0.0,0.0,0.0,0.0,0.0,0.0,0.0,0.0,0.0,0.0,0.0,0.0,0.0,0.0,0.0,0.0,-1.1752,-1.3902,-1.1429,-1.0347,-1.0143,-0.7646,-0.6483,-0.5979,-0.189,0.0,0.0,-0.224,-0.331,-0.375,-0.5709,-0.6777,-0.7132,-0.7132,-0.7132,-0.7221,-0.9193,-1.0175,-1.0337,-1.2302,-1.347,-1.3761,-1.383,-1.4,-1.4265,-1.4265,-1.419,-1.4055,-1.4034,-1.3905,-1.3563,-1.3263,-1.2926,-1.2363,-0.8688,-0.6749,-0.6735,-0.6651,-0.7414,-0.8896,-0.9011,-0.9742,-1.1188,-1.1473,-1.1805,-1.2147,-1.2384,-1.2695,-1.2983,-1.3112,-1.3254,-1.3342,-1.3505,-1.3709,-1.3953,-1.4014,-1.4089,-1.4211,-1.4502,-1.4713,-1.4808,-1.4869,-1.4977,-1.5133,-1.5147,-1.5221,-1.5398,-1.5547,-1.5696,-1.5839,-1.5988,-1.6083,-1.6083,-1.6103,-1.6123,-1.6123,-1.611,-1.6123,-1.6171,-1.6151,-1.6144,-1.6123,-1.6178,-1.6178,-1.5997,-1.425,-1.173,-0.8713,-0.6139,-0.3486,0.0,0.0,0.0,0.0,0.0,0.0,0.0,0.0,0.0,0.0,0.0,0.0,0.0,0.0,0.0,0.0,0.0,0.0,0.0,0.0,0.0,-1.2904,-1.4785,-1.2481,-1.1408,-1.1207,-0.8692,-0.7509,-0.7262,-0.5063,-0.3958,-0.3938,-0.5008,-0.6258,-0.7506,-0.8575,-0.9824,-1.0984,-1.0984,-1.0984,-1.1072,-1.2148,-1.2686,-1.2774,-1.3761,-1.4299,-1.4299,-1.4299,-1.4299,-1.4299,-1.4299,-1.4265,-1.419,-1.4116,-1.4,-1.3878,-1.3783,-1.3709,-1.355,-1.1481,-1.0298,-1.0298,-1.0264,-1.0675,-1.1523,-1.1536,-1.188,-1.2793,-1.2915,-1.3024,-1.3091,-1.322,-1.3336,-1.3417,-1.3559,-1.3675,-1.3763,-1.3905,-1.4048,-1.4183,-1.4197,-1.4258,-1.4407,-1.4618,-1.4808,-1.4957,-1.5045,-1.5113,-1.5174,-1.5181,-1.5248,-1.5398,-1.5547,-1.5696,-1.5839,-1.5988,-1.6076,-1.6083,-1.6083,-1.6083,-1.6083,-1.6083,-1.6117,-1.6198,-1.6205,-1.6205,-1.6212,-1.6259,-1.6368,-1.6415,-1.4259,-1.2184,-1.0741,-0.9399,-0.7666,-0.5105,-0.4622,-0.4529,-0.4515,-0.3172,-0.2435,-0.2106,-0.1259,0.0,0.0,0.0,0.0,0.0,0.0,0.0,0.0,0.0,0.0,0.0,0.0,0.0,-1.3375,-1.4979,-1.3081,-1.2289,-1.2091,-1.0138,-0.9207,-0.9018,-0.9105,-0.8951,-0.8672,-0.8219,-0.893,-1.0629,-1.125,-1.2509,-1.4122,-1.4299,-1.4299,-1.4299,-1.4299,-1.4299,-1.4299,-1.4299,-1.4299,-1.4299,-1.4299,-1.4299,-1.4299,-1.4299,-1.4299,-1.4285,-1.4183,-1.4109,-1.4068,-1.3953,-1.3878,-1.3831,-1.362,-1.3498,-1.3492,-1.3383,-1.3383,-1.3478,-1.3383,-1.3383,-1.3492,-1.3498,-1.3519,-1.3553,-1.3553,-1.362,-1.377,-1.3885,-1.4,-1.4122,-1.4231,-1.4299,-1.4299,-1.4299,-1.4346,-1.4455,-1.4604,-1.4733,-1.4862,-1.5031,-1.5153,-1.5174,-1.5181,-1.5242,-1.5391,-1.5513,-1.5655,-1.5832,-1.5954,-1.6035,-1.6069,-1.6083,-1.6083,-1.6083,-1.6083,-1.613,-1.6225,-1.6259,-1.6266,-1.6307,-1.6435,-1.6578,-1.6397,-1.4873,-1.3702,-1.3232,-1.2502,-1.0432,-0.8786,-0.8186,-0.7983,-0.8251,-0.6507,-0.5241,-0.4575,-0.2708,0.0,0.0,0.0,0.0,0.0,0.0,0.0,0.0,0.0,0.0,0.0,0.0,0.0,-1.4993,-1.5181,-1.4879,-1.4879,-1.4678,-1.4471,-1.4123,-1.3899,-1.3977,-1.3919,-1.3141,-1.1344,-1.0451,-1.0984,-1.2952,-1.4027,-1.4299,-1.4299,-1.4387,-1.4387,-1.4299,-1.4299,-1.4557,-1.4476,-1.4299,-1.4387,-1.4387,-1.4476,-1.4299,-1.4299,-1.4299,-1.4299,-1.4285,-1.4211,-1.4089,-1.4061,-1.3987,-1.3759,-1.3817,-1.3804,-1.3804,-1.379,-1.379,-1.3797,-1.3783,-1.3698,-1.3882,-1.3804,-1.3865,-1.3994,-1.4174,-1.4162,-1.4292,-1.4245,-1.4258,-1.436,-1.4292,-1.4299,-1.4299,-1.4299,-1.4312,-1.4326,-1.4462,-1.455,-1.4577,-1.4828,-1.5045,-1.514,-1.5174,-1.5248,-1.5384,-1.5329,-1.5457,-1.5505,-1.5768,-1.5927,-1.6049,-1.6083,-1.6083,-1.6083,-1.6069,-1.609,-1.611,-1.6123,-1.6171,-1.6293,-1.6415,-1.6551,-1.659,-1.6392,-1.6139,-1.5474,-1.2434,-0.945,-0.8868,-0.8214,-0.8818,-0.8589,-0.7973,-0.7657,-0.7117,-0.5444,-0.3592,-0.2694,-0.135,0.0,0.0,0.0,0.0,0.0,0.0,0.0,0.0,0.0,0.0,-1.5181,-1.5181,-1.5181,-1.5181,-1.5181,-1.5181,-1.5011,-1.4746,-1.474,-1.457,-1.4231,-1.3224,-1.2863,-1.2863,-1.385,-1.4299,-1.4299,-1.4299,-1.508,-1.629,-1.6378,-1.708,-1.8287,-1.8375,-1.7763,-1.6466,-1.6378,-1.5601,-1.4469,-1.4299,-1.4299,-1.4299,-1.4299,-1.4265,-1.4211,-1.4204,-1.417,-1.4116,-1.4109,-1.4109,-1.4089,-1.3846,-1.3885,-1.4139,-1.5253,-1.6066,-1.6325,-1.7449,-1.8165,-1.833,-1.8339,-1.8287,-1.8366,-1.7159,-1.6378,-1.6298,-1.5166,-1.4387,-1.4306,-1.438,-1.4387,-1.4306,-1.4434,-1.4509,-1.4523,-1.4713,-1.4896,-1.5038,-1.5133,-1.4737,-1.3459,-1.4488,-1.4911,-1.4019,-1.4905,-1.5913,-1.6062,-1.6001,-1.5974,-1.6056,-1.6001,-1.5988,-1.6056,-1.6083,-1.6151,-1.6273,-1.6368,-1.6456,-1.6592,-1.6673,-1.67,-1.6473,-1.4452,-1.3416,-1.3009,-1.308,-1.2887,-1.263,-1.1525,-1.0616,-0.9775,-0.6529,-0.3987,-0.4002,-0.1749,0.0,0.0,0.0,0.0,0.0,0.0,0.0,0.0,0.0,0.0,-1.5221,-1.5187,-1.5181,-1.5181,-1.5181,-1.5181,-1.5011,-1.476,-1.474,-1.4577,-1.4312,-1.4299,-1.4299,-1.4299,-1.4299,-1.4299,-1.4387,-1.4992,-1.6122,-1.7763,-1.8453,-1.9575,-2.1135,-2.1221,-2.0356,-1.8889,-1.8017,-1.6553,-1.4557,-1.4299,-1.4299,-1.4299,-1.4299,-1.4299,-1.4299,-1.4299,-1.4299,-1.4299,-1.4299,-1.4557,-1.5132,-1.5024,-1.4952,-1.5322,-1.7309,-1.8572,-1.8793,-2.0356,-2.1221,-2.1221,-2.1221,-2.1221,-2.1135,-1.9575,-1.8453,-1.7693,-1.575,-1.4448,-1.4312,-1.4434,-1.4448,-1.4333,-1.4428,-1.4516,-1.4536,-1.4652,-1.478,-1.4896,-1.5072,-1.414,-1.2156,-1.3755,-1.4152,-1.2342,-1.4225,-1.5852,-1.5988,-1.594,-1.5967,-1.6049,-1.6001,-1.5954,-1.6056,-1.6083,-1.6137,-1.6279,-1.6313,-1.6361,-1.6483,-1.653,-1.653,-1.6517,-1.63,-1.63,-1.6578,-1.596,-1.6253,-1.4981,-1.2952,-1.171,-1.1068,-0.6682,-0.4076,-0.3778,-0.1534,0.0,0.0,0.0,0.0,0.0,0.0,0.0,0.0,0.0,0.0,-1.5316,-1.5187,-1.5181,-1.5181,-1.5181,-1.5181,-1.5011,-1.474,-1.474,-1.4577,-1.4319,-1.4299,-1.4299,-1.4299,-1.4299,-1.4299,-1.4557,-1.6466,-1.7588,-1.8191,-2.0096,-2.1135,-2.1221,-2.1221,-2.1221,-2.0616,-1.8967,-1.6729,-1.4476,-1.4299,-1.4299,-1.4299,-1.4299,-1.4299,-1.4299,-1.4299,-1.4299,-1.4299,-1.4299,-1.5256,-1.7159,-1.7476,-1.7459,-1.7642,-1.973,-2.0855,-2.1048,-2.1135,-2.1307,-2.1307,-2.1566,-2.1394,-2.1307,-2.1231,-2.0192,-1.8042,-1.5846,-1.4551,-1.4531,-1.4544,-1.4468,-1.4353,-1.4448,-1.4516,-1.4523,-1.4652,-1.4753,-1.4767,-1.5018,-1.4121,-1.2051,-1.3682,-1.4121,-1.2133,-1.4,-1.5522,-1.5859,-1.5974,-1.6056,-1.6076,-1.6062,-1.6056,-1.6076,-1.6083,-1.6144,-1.6252,-1.63,-1.6341,-1.6435,-1.649,-1.6483,-1.6463,-1.6381,-1.6313,-1.632,-1.5655,-1.4637,-1.3401,-1.231,-1.1177,-0.855,-0.6143,-0.4859,-0.3661,-0.2038,0.0,0.0,0.0,0.0,0.0,0.0,0.0,0.0,0.0,0.0,-1.5323,-1.5187,-1.5181,-1.5181,-1.5181,-1.5181,-1.5011,-1.4746,-1.474,-1.4577,-1.4333,-1.4299,-1.4299,-1.4299,-1.4299,-1.4299,-1.4564,-1.6729,-1.854,-2.0096,-2.2342,-2.4252,-2.5629,-2.5714,-2.3898,-2.1394,-2.0356,-1.8025,-1.4646,-1.4299,-1.4299,-1.4299,-1.4299,-1.4299,-1.4299,-1.4299,-1.4299,-1.4299,-1.4299,-1.4734,-1.5778,-1.6984,-1.7763,-1.7938,-2.0009,-2.1911,-2.3384,-2.347,-2.4081,-2.5629,-2.5714,-2.5714,-2.5556,-2.4402,-2.2652,-2.0413,-1.8318,-1.7065,-1.6759,-1.5622,-1.4692,-1.4475,-1.457,-1.4618,-1.4563,-1.4652,-1.478,-1.4889,-1.497,-1.3946,-1.2511,-1.3664,-1.4191,-1.2499,-1.3981,-1.5689,-1.5818,-1.5906,-1.5967,-1.6049,-1.6083,-1.6083,-1.6083,-1.6083,-1.6103,-1.6151,-1.6164,-1.6198,-1.6218,-1.6239,-1.6259,-1.6239,-1.6198,-1.6164,-1.6164,-1.4413,-1.2957,-1.2053,-1.0954,-0.9653,-0.7537,-0.5633,-0.4143,-0.475,-0.3142,0.0,0.0,0.0,0.0,0.0,0.0,0.0,0.0,0.0,0.0,-1.535,-1.5255,-1.5201,-1.5181,-1.5181,-1.5181,-1.5011,-1.4753,-1.474,-1.4577,-1.4333,-1.4299,-1.4299,-1.4299,-1.4299,-1.4299,-1.4557,-1.6721,-1.9063,-2.1307,-2.3652,-2.5981,-2.7883,-2.8234,-2.6139,-2.2514,-2.0702,-1.8025,-1.4734,-1.4299,-1.4299,-1.4299,-1.4299,-1.4299,-1.4299,-1.4299,-1.4299,-1.4299,-1.4299,-1.4646,-1.5513,-1.6984,-1.8191,-1.8889,-1.9749,-2.1221,-2.347,-2.3555,-2.4679,-2.6673,-2.7109,-2.7487,-2.8042,-2.6278,-2.4486,-2.2941,-2.0933,-1.9689,-1.9536,-1.8226,-1.6933,-1.5867,-1.588,-1.5658,-1.4853,-1.4753,-1.4862,-1.495,-1.5025,-1.4226,-1.3403,-1.4202,-1.4172,-1.2354,-1.392,-1.5525,-1.5764,-1.5825,-1.5927,-1.6042,-1.6083,-1.6083,-1.6083,-1.6083,-1.6083,-1.6083,-1.6083,-1.6083,-1.6083,-1.6083,-1.6083,-1.6083,-1.6096,-1.6096,-1.5698,-1.4171,-1.2951,-1.1848,-1.1045,-0.934,-0.7035,-0.5231,-0.4429,-0.513,-0.5032,-0.4334,-0.3134,-0.1524,0.0,0.0,0.0,0.0,0.0,0.0,0.0,-1.5683,-1.5832,-1.5336,-1.5737,-1.583,-1.5643,-1.5197,-1.5055,-1.4746,-1.4584,-1.4346,-1.4306,-1.4299,-1.4299,-1.4299,-1.4299,-1.4734,-1.6466,-1.8802,-2.1307,-2.3641,-2.5896,-2.8136,-2.8221,-2.6673,-2.3824,-1.9836,-1.6641,-1.4387,-1.4299,-1.4299,-1.4299,-1.4299,-1.4299,-1.4299,-1.4299,-1.4299,-1.4299,-1.4299,-1.5344,-1.7413,-1.7501,-1.8453,-2.0183,-1.9054,-1.915,-2.1221,-2.1221,-2.2342,-2.4605,-2.4947,-2.5946,-2.7912,-2.6698,-2.553,-2.529,-2.3537,-2.2381,-2.2148,-2.1861,-2.0443,-1.8561,-1.8317,-1.7317,-1.5377,-1.495,-1.4977,-1.5011,-1.5086,-1.4946,-1.4859,-1.5019,-1.4335,-1.2256,-1.4,-1.5397,-1.5622,-1.5764,-1.5906,-1.6022,-1.6056,-1.6076,-1.6083,-1.6083,-1.6083,-1.6083,-1.6062,-1.6049,-1.6035,-1.6022,-1.6049,-1.6062,-1.6042,-1.6029,-1.5148,-1.4059,-1.3156,-1.2148,-1.1344,-0.994,-0.7035,-0.4829,-0.4227,-0.463,-0.4628,-0.403,-0.3638,0.0,0.0,0.0,0.0,0.0,0.0,0.0,0.0,-2.0385,-2.0259,-2.0288,-2.0261,-1.9983,-1.8507,-1.7636,-1.7155,-1.5595,-1.4631,-1.4455,-1.434,-1.4299,-1.4299,-1.4299,-1.4387,-1.4387,-1.5256,-1.7509,-2.1135,-2.3641,-2.5896,-2.7799,-2.8136,-2.6151,-2.2084,-1.7597,-1.508,-1.4476,-1.4299,-1.4299,-1.4299,-1.4299,-1.4299,-1.4299,-1.4299,-1.4299,-1.4299,-1.4299,-1.4734,-1.5344,-1.5425,-1.6553,-1.8453,-1.8191,-1.888,-2.0962,-1.9662,-2.0789,-2.4434,-2.4691,-2.5763,-2.7656,-2.8048,-2.7859,-2.7748,-2.6056,-2.4992,-2.4733,-2.3304,-2.1524,-1.9223,-1.8777,-1.7527,-1.5461,-1.5059,-1.5106,-1.5113,-1.516,-1.5153,-1.5133,-1.5153,-1.4704,-1.404,-1.4842,-1.5425,-1.5506,-1.5635,-1.5757,-1.5893,-1.5927,-1.5967,-1.6056,-1.6083,-1.6083,-1.6069,-1.6001,-1.5947,-1.5927,-1.5879,-1.5832,-1.5893,-1.5913,-1.5974,-1.5407,-1.5049,-1.4564,-1.3456,-1.2353,-1.1144,-0.8038,-0.5432,-0.4728,-0.3926,-0.3926,-0.3728,-0.3335,0.0,0.0,0.0,0.0,0.0,0.0,0.0,0.0,-2.2705,-2.2585,-2.2494,-2.2464,-2.2372,-2.0806,-1.9591,-1.8509,-1.6857,-1.551,-1.4695,-1.4421,-1.4871,-1.544,-1.5601,-1.6122,-1.6729,-1.6904,-1.8898,-2.1998,-2.2783,-2.5117,-2.7448,-2.6236,-2.4326,-2.0962,-1.6466,-1.4299,-1.4299,-1.4299,-1.4299,-1.4299,-1.4299,-1.4299,-1.4299,-1.4299,-1.4299,-1.4387,-1.5168,-1.5601,-1.577,-1.6466,-1.7597,-1.8889,-1.9063,-1.9873,-2.1149,-1.9883,-2.0789,-2.4189,-2.5555,-2.6999,-2.8545,-2.9018,-2.9245,-2.9053,-2.8297,-2.7599,-2.7419,-2.6297,-2.3603,-2.0941,-2.0188,-1.8643,-1.6004,-1.5147,-1.5174,-1.5181,-1.5181,-1.5181,-1.5181,-1.5181,-1.5181,-1.5181,-1.5262,-1.5371,-1.5472,-1.5628,-1.5784,-1.5906,-1.5947,-1.5988,-1.6049,-1.6083,-1.6083,-1.6062,-1.6001,-1.5934,-1.5906,-1.5825,-1.5818,-1.5825,-1.5866,-1.592,-1.5981,-1.6029,-1.6076,-1.4968,-1.376,-1.2248,-1.004,-0.7437,-0.6034,-0.4127,-0.3523,-0.3223,0.0,0.0,0.0,0.0,0.0,0.0,0.0,0.0,0.0,-2.3241,-2.32,-2.3005,-2.3289,-2.3289,-2.2831,-2.1529,-1.9458,-1.8866,-1.7499,-1.5658,-1.5689,-1.6379,-1.7726,-1.8068,-1.8916,-2.0702,-2.0616,-2.1856,-2.3342,-2.3256,-2.4286,-2.7363,-2.4458,-2.2298,-2.0616,-1.6817,-1.4653,-1.4299,-1.4299,-1.4299,-1.4299,-1.4299,-1.4312,-1.4319,-1.4312,-1.4483,-1.5116,-1.6649,-1.7588,-1.8017,-1.9749,-2.1155,-2.1338,-2.1445,-2.1884,-2.2563,-2.2381,-2.2772,-2.4749,-2.6964,-2.8519,-2.9285,-2.9459,-2.9566,-2.9766,-2.9797,-2.9644,-2.9824,-2.9259,-2.7316,-2.3268,-2.2168,-2.0631,-1.6644,-1.5448,-1.5181,-1.5181,-1.5181,-1.5181,-1.5181,-1.5181,-1.5181,-1.5187,-1.5228,-1.535,-1.5588,-1.573,-1.5845,-1.5988,-1.6062,-1.6069,-1.6069,-1.6083,-1.6083,-1.6076,-1.6049,-1.6008,-1.5947,-1.5845,-1.5832,-1.5832,-1.5818,-1.5913,-1.5988,-1.6035,-1.6083,-1.5778,-1.4769,-1.376,-1.1848,-0.934,-0.5733,-0.3926,-0.272,-0.2418,0.0,0.0,0.0,0.0,0.0,0.0,0.0,0.0,0.0,-2.8261,-2.8073,-2.801,-2.7985,-2.7702,-2.6048,-2.482,-2.3903,-2.202,-2.0805,-2.0132,-2.0172,-2.0074,-2.0598,-2.0667,-2.0947,-2.1424,-2.1394,-2.2535,-2.4604,-2.4442,-2.5542,-2.7284,-2.5395,-2.3043,-2.1088,-1.841,-1.6034,-1.4387,-1.4489,-1.4394,-1.4299,-1.4312,-1.436,-1.4428,-1.4442,-1.5329,-1.6791,-1.7471,-1.8802,-2.0269,-2.0962,-2.2178,-2.3987,-2.4085,-2.509,-2.6748,-2.6984,-2.6128,-2.5157,-2.7311,-2.8764,-2.9179,-2.9392,-2.9553,-2.9646,-2.9806,-2.9913,-2.9913,-2.9913,-2.8346,-2.5593,-2.3656,-2.1175,-1.8228,-1.6198,-1.5368,-1.5181,-1.5181,-1.5181,-1.5181,-1.5181,-1.5181,-1.5194,-1.5282,-1.5384,-1.5486,-1.5601,-1.575,-1.5886,-1.5927,-1.5981,-1.6056,-1.6083,-1.6083,-1.6069,-1.6008,-1.592,-1.5886,-1.5805,-1.5764,-1.5757,-1.5771,-1.59,-1.5995,-1.6049,-1.6083,-1.6083,-1.5778,-1.5479,-1.3256,-1.0645,-0.6135,-0.2218,-0.1513,-0.1211,0.0,0.0,0.0,0.0,0.0,0.0,0.0,0.0,0.0,-3.0194,-2.9913,-2.9913,-2.9913,-2.9734,-2.8346,-2.7148,-2.6025,-2.4709,-2.3209,-2.2473,-2.227,-2.2559,-2.3064,-2.313,-2.3607,-2.4092,-2.4155,-2.5089,-2.6315,-2.6897,-2.7554,-2.7844,-2.6326,-2.444,-2.301,-2.0706,-1.8354,-1.6499,-1.6001,-1.5439,-1.4572,-1.4387,-1.4434,-1.4585,-1.5587,-1.6445,-1.808,-1.9512,-2.1394,-2.2611,-2.3727,-2.4906,-2.6339,-2.6574,-2.749,-2.8731,-2.8163,-2.7247,-2.7209,-2.8269,-2.9112,-2.9379,-2.9566,-2.9673,-2.9673,-2.9833,-2.9913,-2.9913,-2.9913,-2.8719,-2.6592,-2.466,-2.2422,-1.9599,-1.7445,-1.658,-1.5465,-1.5315,-1.5187,-1.5181,-1.5181,-1.5215,-1.5289,-1.5418,-1.5506,-1.5506,-1.5649,-1.5791,-1.59,-1.5954,-1.5974,-1.6076,-1.6076,-1.6083,-1.6069,-1.6029,-1.5954,-1.5886,-1.5784,-1.571,-1.5716,-1.575,-1.5866,-1.5947,-1.5995,-1.6076,-1.6083,-1.6083,-1.5983,-1.4065,-1.1449,-0.7336,-0.3223,-0.1412,0.0,0.0,0.0,0.0,0.0,0.0,0.0,0.0,0.0,0.0,-3.0207,-2.9913,-2.9913,-2.9913,-2.9913,-2.9824,-2.8629,-2.6966,-2.6671,-2.5456,-2.3933,-2.3258,-2.4464,-2.5509,-2.5691,-2.6512,-2.795,-2.7539,-2.7978,-2.8506,-2.889,-2.9251,-2.8789,-2.7372,-2.5982,-2.5032,-2.33,-2.1136,-1.9294,-1.8653,-1.7542,-1.6479,-1.5861,-1.551,-1.6405,-1.7517,-1.8389,-1.9758,-2.2383,-2.4178,-2.5117,-2.6516,-2.7545,-2.7969,-2.7718,-2.7821,-2.785,-2.6851,-2.6146,-2.8525,-2.8955,-2.8932,-2.927,-2.9528,-2.99,-2.9887,-2.99,-2.9927,-2.9967,-2.9917,-2.9183,-2.7372,-2.6644,-2.4642,-2.1264,-1.9628,-1.7914,-1.6401,-1.5465,-1.5235,-1.5228,-1.5228,-1.5289,-1.5398,-1.554,-1.5649,-1.5669,-1.5778,-1.5934,-1.6056,-1.6076,-1.6076,-1.6083,-1.6083,-1.6083,-1.6083,-1.6042,-1.5988,-1.5947,-1.59,-1.5798,-1.5723,-1.5771,-1.5839,-1.5893,-1.594,-1.6022,-1.6083,-1.6083,-1.5778,-1.4159,-1.1449,-0.8238,-0.5432,-0.4127,-0.252,0.0,0.0,0.0,0.0,0.0,0.0,0.0,0.0,0.0,-3.0394,-2.9913,-2.9913,-2.9913,-2.9913,-2.9913,-2.9554,-2.8989,-2.8989,-2.8205,-2.8168,-2.8065,-2.8131,-2.8455,-2.8315,-2.8657,-2.8551,-2.8537,-2.8671,-2.8991,-2.9553,-2.978,-2.9571,-2.8765,-2.7549,-2.6078,-2.5202,-2.3587,-2.1868,-2.1244,-2.1007,-2.0374,-1.9741,-2.0295,-2.0177,-2.0381,-2.1818,-2.3174,-2.4465,-2.575,-2.7076,-2.7767,-2.8417,-2.8738,-2.7536,-2.6791,-2.6312,-2.447,-2.3581,-2.4277,-2.5533,-2.6534,-2.737,-2.8809,-2.9747,-2.9953,-2.994,-3.002,-3.0207,-3.0274,-3.0172,-2.9585,-2.7996,-2.648,-2.5477,-2.1584,-1.9613,-1.8065,-1.6685,-1.5642,-1.5371,-1.5472,-1.5486,-1.5506,-1.5649,-1.5757,-1.5716,-1.5872,-1.6029,-1.6069,-1.6083,-1.6083,-1.6083,-1.6374,-1.6275,-1.6182,-1.6354,-1.622,-1.6397,-1.6673,-1.6475,-1.6648,-1.5964,-1.6032,-1.5913,-1.5961,-1.6029,-1.6083,-1.6083,-1.6076,-1.4364,-1.3051,-1.0345,-0.8539,-0.7136,-0.5331,-0.3323,0.0,0.0,0.0,0.0,0.0,0.0,0.0,0.0,-3.0662,-3.014,-3.0127,-3.0047,-2.9927,-2.9913,-2.9272,-2.8346,-2.8166,-2.8166,-2.8166,-2.8166,-2.8655,-2.9499,-2.9472,-2.9219,-2.8938,-2.8965,-2.9098,-2.9325,-2.9713,-2.99,-2.99,-2.978,-2.8856,-2.7636,-2.7636,-2.6265,-2.4621,-2.3873,-2.3229,-2.2067,-2.2156,-2.1531,-2.2012,-2.2669,-2.3742,-2.4888,-2.6007,-2.7127,-2.8326,-2.843,-2.8644,-2.8741,-2.7377,-2.6229,-2.6025,-2.2637,-2.1166,-2.1147,-2.1987,-2.3881,-2.5922,-2.7431,-2.868,-2.992,-3.0127,-3.0261,-3.0474,-3.0568,-3.0621,-3.0782,-2.9474,-2.8408,-2.7286,-2.4419,-2.2001,-1.9958,-1.8208,-1.7024,-1.5712,-1.5574,-1.5594,-1.5662,-1.575,-1.5839,-1.5872,-1.5988,-1.6083,-1.6083,-1.6083,-1.6083,-1.6175,-1.7162,-1.7939,-1.8426,-2.0282,-2.0239,-1.9757,-1.9821,-1.8482,-1.7946,-1.668,-1.6128,-1.5981,-1.5995,-1.6049,-1.6083,-1.6083,-1.6083,-1.5472,-1.4364,-1.3051,-1.1349,-0.9444,-0.7637,-0.6034,-0.5831,-0.563,0.0,0.0,0.0,0.0,0.0,0.0,-3.0849,-3.0354,-3.0314,-3.014,-2.994,-2.9913,-2.8539,-2.6411,-2.6229,-2.6502,-2.6229,-2.6229,-2.7668,-2.9149,-2.9579,-2.9392,-2.9219,-2.9232,-2.9312,-2.9486,-2.9673,-2.9833,-2.9873,-2.9797,-2.977,-2.9913,-2.9578,-2.8373,-2.7128,-2.657,-2.5741,-2.3651,-2.3297,-2.3787,-2.3589,-2.444,-2.5754,-2.6399,-2.7448,-2.8267,-2.8785,-2.8691,-2.8791,-2.8029,-2.6437,-2.5309,-2.458,-2.2096,-1.9789,-1.9419,-1.9141,-2.135,-2.4398,-2.6391,-2.7512,-3.0212,-3.0421,-3.0568,-3.0795,-3.0862,-3.0875,-3.0902,-3.0849,-2.9997,-2.8503,-2.7109,-2.4958,-2.2365,-2.0229,-1.8143,-1.605,-1.573,-1.5778,-1.5818,-1.5859,-1.594,-1.6015,-1.6062,-1.6083,-1.6182,-1.6963,-1.7543,-1.8129,-1.901,-1.988,-2.0951,-2.2809,-2.388,-2.3384,-2.2595,-2.1155,-2.0543,-1.965,-1.8122,-1.778,-1.6213,-1.6268,-1.6083,-1.6083,-1.6083,-1.6083,-1.5472,-1.4364,-1.3256,-1.1549,-0.9945,-0.894,-0.8639,-0.8539,-0.8439,-0.7537,-0.6235,-0.6637,-0.7838,-0.7737,-3.0662,-3.0341,-3.01,-2.9953,-2.9927,-2.9927,-2.8565,-2.6411,-2.6253,-2.6229,-2.6229,-2.6229,-2.7587,-2.9283,-2.9833,-2.9673,-2.9432,-2.9352,-2.9339,-2.9486,-2.9619,-2.9713,-2.99,-2.9913,-2.9913,-2.9913,-2.9913,-2.9451,-2.9182,-2.9206,-2.8348,-2.8309,-2.7941,-2.7687,-2.7486,-2.8299,-2.7795,-2.7548,-2.8351,-2.8838,-2.8247,-2.8186,-2.7799,-2.6604,-2.447,-2.3462,-2.3289,-2.2556,-2.1912,-2.183,-1.9974,-2.0714,-2.2984,-2.5238,-2.7413,-2.9755,-3.0623,-3.0849,-3.1102,-3.1156,-3.1289,-3.145,-3.1463,-3.1476,-3.0475,-2.8999,-2.7045,-2.5013,-2.172,-1.8705,-1.621,-1.59,-1.592,-1.5927,-1.5947,-1.5995,-1.5961,-1.6008,-1.6076,-1.6182,-1.7642,-1.9495,-2.0273,-2.1343,-2.2614,-2.3578,-2.4851,-2.5625,-2.5335,-2.4549,-2.3558,-2.3257,-2.3082,-2.1441,-1.9961,-1.7726,-1.6374,-1.6182,-1.6083,-1.6083,-1.6083,-1.6083,-1.5373,-1.4364,-1.4059,-1.3356,-1.2453,-1.1649,-1.0845,-1.0345,-0.9244,-0.8339,-0.9244,-1.0245,-0.9444,-3.0982,-3.0595,-3.0581,-3.0421,-3.0207,-3.0314,-2.8871,-2.6715,-2.6429,-2.6359,-2.6253,-2.632,-2.7612,-2.9362,-2.9913,-2.982,-2.9686,-2.9579,-2.9579,-2.97,-2.9713,-2.9766,-2.9913,-2.9913,-2.9913,-2.9913,-2.9913,-2.9913,-2.9913,-2.9824,-2.9847,-2.9584,-2.9539,-2.9419,-2.9259,-2.8924,-2.8426,-2.8026,-2.8338,-2.7863,-2.6098,-2.5842,-2.5487,-2.5308,-2.2841,-2.1442,-2.2188,-2.1083,-2.136,-2.1728,-2.0252,-2.0677,-2.2006,-2.3106,-2.479,-2.8136,-2.9987,-3.1049,-3.1289,-3.1463,-3.153,-3.1623,-3.1677,-3.1677,-3.1474,-3.0363,-2.8583,-2.5591,-2.2654,-1.8784,-1.6264,-1.6241,-1.6035,-1.6008,-1.6049,-1.6049,-1.6015,-1.6049,-1.6182,-1.6501,-1.835,-2.0397,-2.2419,-2.3783,-2.5335,-2.6409,-2.7095,-2.7276,-2.7372,-2.6698,-2.5915,-2.5529,-2.5141,-2.2897,-2.1147,-1.9101,-1.6765,-1.6275,-1.6083,-1.6083,-1.6083,-1.6083,-1.6083,-1.5678,-1.5578,-1.5373,-1.5068,-1.396,-1.3057,-1.2353,-1.2353,-1.2253,-1.2353,-1.2253,-1.1549,-3.1276,-3.0822,-3.1036,-3.0835,-3.0448,-3.0595,-2.9151,-2.7009,-2.6638,-2.6759,-2.6942,-2.7111,-2.8732,-3.0664,-3.087,-3.0423,-2.999,-2.9847,-2.9806,-2.986,-2.9806,-2.982,-2.99,-2.9913,-2.9913,-2.9913,-2.9913,-2.9913,-2.9913,-2.9913,-2.978,-2.9659,-2.9553,-2.9432,-2.9285,-2.9245,-2.7814,-2.7776,-2.8016,-2.7051,-2.4844,-2.3656,-2.4113,-2.5866,-2.2362,-2.1442,-2.2188,-2.2739,-2.2546,-2.2647,-2.1563,-2.0705,-2.2123,-2.0733,-2.1517,-2.5206,-2.8183,-2.9577,-3.0013,-3.0674,-3.0172,-2.9326,-3.0985,-3.1284,-3.108,-3.0496,-2.9708,-2.5432,-2.3189,-2.0934,-1.8986,-1.7382,-1.7084,-1.6878,-1.6615,-1.6164,-1.6151,-1.6371,-1.6913,-1.7791,-1.9404,-2.121,-2.3228,-2.6698,-2.8356,-2.8644,-2.9326,-2.9625,-2.9612,-2.9135,-2.8452,-2.7864,-2.6698,-2.4074,-2.2116,-2.0559,-1.8129,-1.6275,-1.6182,-1.6083,-1.6083,-1.6083,-1.6083,-1.6083,-1.6083,-1.5877,-1.6076,-1.6056,-1.4937,-1.4632,-1.5658,-1.5671,-1.457,-1.4464,-1.4265,-3.1089,-3.0795,-3.0835,-3.0648,-3.0394,-3.0421,-2.909,-2.6973,-2.6771,-2.7484,-2.937,-2.9624,-3.1868,-3.4036,-3.3219,-3.1657,-3.0369,-2.9726,-2.974,-2.986,-2.9726,-2.974,-2.9887,-2.9913,-2.9913,-2.9913,-2.9913,-2.9913,-2.9631,-2.9631,-2.9721,-2.9525,-2.9455,-2.9477,-2.9126,-2.9336,-2.9402,-2.9333,-2.9436,-2.918,-2.8333,-2.6513,-2.5684,-2.5866,-2.5127,-2.4021,-2.3473,-2.4854,-2.6502,-2.5309,-2.3289,-2.2298,-2.2403,-2.0733,-1.9984,-2.1211,-2.2925,-2.4819,-2.5529,-2.7191,-2.7876,-2.7468,-2.9135,-2.9911,-3.021,-3.0592,-3.0401,-2.7876,-2.6613,-2.4948,-2.2252,-2.0815,-2.0015,-1.8781,-1.7866,-1.6919,-1.6421,-1.6307,-1.6954,-1.8814,-2.044,-2.2079,-2.3941,-2.79,-3.127,-3.1379,-3.1474,-3.1582,-3.1622,-3.0873,-3.0414,-2.9721,-2.7972,-2.5335,-2.2799,-2.1245,-1.8912,-1.6474,-1.6175,-1.6076,-1.6083,-1.6083,-1.6083,-1.6083,-1.6083,-1.6035,-1.5974,-1.5961,-1.5981,-1.6001,-1.6015,-1.6049,-1.5977,-1.6083,-1.6076,-3.1209,-3.0808,-3.0969,-3.0768,-3.0408,-3.0528,-2.9939,-2.9208,-3.0037,-3.0925,-3.2014,-3.3275,-3.4355,-3.4504,-3.244,-3.087,-2.9976,-2.9766,-2.978,-2.9873,-2.9793,-2.9793,-2.9887,-2.9913,-2.9913,-2.9734,-2.9734,-2.8809,-2.8719,-2.8989,-2.9362,-2.8051,-2.8885,-2.886,-2.8526,-2.9154,-2.8706,-2.7768,-2.6773,-2.7238,-2.8166,-2.6502,-2.4854,-2.6048,-2.5036,-2.4489,-2.4945,-2.458,-2.7057,-2.632,-2.3838,-2.1296,-2.1272,-1.9527,-1.7388,-1.7545,-1.8572,-2.0844,-2.3588,-2.4948,-2.5432,-2.6409,-2.826,-2.9434,-2.9924,-3.0795,-3.0592,-2.7972,-2.778,-2.6613,-2.4796,-2.3199,-2.1659,-2.0448,-1.9706,-1.8255,-1.7371,-1.6571,-1.7073,-1.9343,-2.1577,-2.3296,-2.5322,-2.8717,-3.1389,-3.1569,-3.1513,-3.1567,-3.1755,-3.167,-3.1442,-3.1284,-2.9135,-2.6505,-2.387,-2.1637,-1.901,-1.6864,-1.6169,-1.6069,-1.6076,-1.6083,-1.6056,-1.6069,-1.6083,-1.6008,-1.5893,-1.5879,-1.5927,-1.5947,-1.5967,-1.5981,-1.5995,-1.6069,-1.6069,-3.133,-3.0835,-3.1102,-3.0929,-3.0488,-3.0635,-3.0555,-3.064,-3.1831,-3.2895,-3.3968,-3.5446,-3.536,-3.3556,-3.1834,-3.087,-2.9913,-2.9913,-2.9913,-2.9913,-2.9913,-2.99,-2.9644,-2.9541,-2.8809,-2.8899,-2.7521,-2.6695,-2.632,-2.6604,-2.6604,-2.5491,-2.7497,-2.778,-2.7419,-2.8424,-2.9169,-2.778,-2.6229,-2.7057,-2.8629,-2.6604,-2.6139,-2.6139,-2.5673,-2.4945,-2.5684,-2.5775,-2.7148,-2.6592,-2.4387,-2.2606,-2.3087,-1.9957,-1.7611,-1.7337,-1.756,-1.8031,-2.096,-2.2906,-2.4463,-2.5733,-2.778,-2.9039,-3.1189,-3.1677,-3.1284,-2.9135,-2.9039,-2.796,-2.6368,-2.5777,-2.4608,-2.3353,-2.2223,-2.0469,-1.9214,-1.923,-1.9637,-2.1617,-2.3618,-2.4898,-2.7048,-2.9782,-3.1439,-3.1635,-3.1635,-3.1524,-3.1234,-3.1146,-3.0081,-2.9413,-2.778,-2.5249,-2.3092,-2.0764,-1.8525,-1.714,-1.6446,-1.6029,-1.6008,-1.6001,-1.5988,-1.6015,-1.6148,-1.6042,-1.5974,-1.592,-1.5866,-1.5839,-1.5818,-1.5859,-1.59,-1.5981,-1.6056,-3.133,-3.0822,-3.1089,-3.1009,-3.0702,-3.0488,-3.0381,-3.0418,-3.042,-3.1788,-3.3907,-3.5446,-3.5288,-3.3644,-3.2602,-3.139,-2.9913,-2.9913,-2.9913,-2.9913,-2.9913,-2.9734,-2.9092,-2.7792,-2.6604,-2.6048,-2.5127,-2.3849,-2.3025,-2.3656,-2.3473,-2.3198,-2.5775,-2.6229,-2.6966,-2.8526,-2.9734,-2.9079,-2.8436,-2.8616,-2.9644,-2.8989,-2.9079,-2.9169,-2.9169,-2.8526,-2.6502,-2.7431,-2.7973,-2.7328,-2.5218,-2.4837,-2.4627,-2.1432,-1.9443,-1.9191,-1.7666,-1.7741,-1.8912,-2.1343,-2.2419,-2.2809,-2.5141,-2.923,-3.1379,-3.1677,-3.1379,-3.108,-3.07,-3.0821,-2.998,-2.9407,-2.7761,-2.6364,-2.4939,-2.377,-2.2914,-2.2961,-2.3562,-2.4628,-2.564,-2.6529,-2.7708,-3.0189,-3.1412,-3.1704,-3.0612,-3.0402,-2.9127,-2.8608,-2.7055,-2.5983,-2.4903,-2.3111,-2.1049,-1.9101,-1.784,-1.6913,-1.6192,-1.5947,-1.5893,-1.5991,-1.6897,-1.6229,-1.6362,-1.6213,-1.6015,-1.5859,-1.573,-1.5683,-1.5669,-1.5703,-1.5778,-1.5859,-1.5954,-3.1263,-3.1036,-3.0808,-3.0621,-3.0501,-3.0221,-3.0194,-3.056,-3.153,-3.3292,-3.5288,-3.494,-3.4242,-3.3204,-3.1745,-3.087,-2.9913,-2.9913,-2.9824,-2.9913,-2.9824,-2.8989,-2.7883,-2.6502,-2.5491,-2.4021,-2.2739,-2.1452,-2.0437,-2.1544,-2.1175,-2.1902,-2.4569,-2.5764,-2.6966,-2.8526,-2.9631,-2.9913,-2.9913,-2.9913,-2.9913,-2.9913,-2.9913,-2.9913,-2.9913,-2.9541,-2.8539,-2.7702,-2.7973,-2.7612,-2.5684,-2.5811,-2.6469,-2.332,-2.2126,-2.192,-1.9813,-1.8608,-1.8327,-2.0657,-2.2126,-2.5625,-2.8164,-3.0592,-3.1664,-3.1677,-3.1677,-3.1677,-3.1677,-3.1704,-3.1587,-3.1044,-3.0103,-2.8851,-2.777,-2.6844,-2.6323,-2.6243,-2.5993,-2.6447,-2.7003,-2.7594,-2.8813,-3.0146,-3.1077,-3.1609,-3.0351,-2.897,-2.7398,-2.6102,-2.4551,-2.317,-2.2103,-2.1557,-1.9692,-1.8426,-1.7353,-1.6701,-1.6053,-1.637,-1.6698,-1.8079,-1.859,-1.7629,-1.7147,-1.7674,-1.7426,-1.6188,-1.5635,-1.5642,-1.5594,-1.5547,-1.5635,-1.5737,-1.5852,-3.1129,-3.0929,-3.0528,-3.0408,-3.0434,-3.0074,-3.0034,-3.0425,-3.1578,-3.3116,-3.4679,-3.3043,-3.2279,-3.1734,-3.0842,-2.927,-2.9078,-2.9206,-2.8616,-2.8256,-2.7792,-2.7148,-2.5673,-2.4021,-2.2637,-2.1544,-2.0437,-1.9242,-1.9335,-2.0714,-2.1544,-2.2637,-2.4204,-2.5764,-2.6785,-2.8526,-2.9913,-2.9913,-2.9913,-2.9913,-2.9913,-2.9913,-2.9913,-2.9913,-2.9913,-2.9824,-2.9362,-2.8719,-2.8629,-2.8346,-2.7365,-2.637,-2.6329,-2.591,-2.4734,-2.3909,-2.2664,-2.0942,-2.0273,-2.1245,-2.3578,-2.8056,-3.0007,-3.1379,-3.1677,-3.1677,-3.1677,-3.1677,-3.1677,-3.1797,-3.2078,-3.1838,-3.177,-3.0639,-3.0628,-2.9787,-2.9232,-2.8941,-2.8349,-2.8119,-2.8783,-2.9615,-2.9127,-2.9975,-2.9375,-2.9924,-2.9388,-2.7244,-2.4386,-2.3189,-2.2177,-2.0878,-1.9561,-1.9133,-1.8616,-1.784,-1.7253,-1.7019,-1.6743,-1.7381,-1.801,-1.9586,-2.0614,-2.0281,-1.9913,-1.9682,-1.9132,-1.8408,-1.7062,-1.5745,-1.5636,-1.5398,-1.5527,-1.5635,-1.5764,-3.0889,-3.0394,-3.0368,-3.0501,-3.0648,-3.0154,-2.994,-3.0007,-3.0209,-3.0437,-3.0781,-3.0348,-3.0136,-3.0015,-2.9923,-2.8975,-2.7785,-2.8719,-2.7792,-2.54,-2.5673,-2.4751,-2.2729,-2.0981,-2.0067,-1.8592,-1.8042,-1.8135,-1.8964,-2.1055,-2.2627,-2.4922,-2.6749,-2.7045,-2.6683,-2.8629,-2.9824,-2.9913,-2.9913,-2.9913,-2.9913,-2.9913,-2.9913,-2.9913,-2.9913,-2.9913,-2.9644,-2.9541,-2.9451,-2.9272,-2.9272,-2.886,-2.9221,-2.7884,-2.7099,-2.699,-2.4821,-2.2507,-2.0478,-2.2419,-2.584,-2.9625,-3.089,-3.1677,-3.1677,-3.1677,-3.1677,-3.1677,-3.1717,-3.1851,-3.2091,-3.2345,-3.2345,-3.2412,-3.2298,-3.2151,-3.1477,-3.1064,-3.0355,-2.9849,-3.1184,-3.2041,-3.0767,-2.9721,-2.8272,-2.7876,-2.7876,-2.5798,-2.2482,-2.121,-2.0672,-2.0556,-1.9437,-1.9133,-1.901,-1.7741,-1.7048,-1.7019,-1.7818,-1.9028,-2.0395,-2.2058,-2.2661,-2.2639,-2.2708,-2.2653,-2.1849,-2.0815,-1.8852,-1.6781,-1.5628,-1.5269,-1.5398,-1.5554,-1.5703,-3.0541,-3.0341,-3.0154,-3.0234,-3.0434,-3.0087,-3.002,-3.0154,-3.002,-2.9913,-2.9913,-2.9913,-2.9887,-2.9833,-2.9641,-2.9104,-2.8514,-2.678,-2.5593,-2.5036,-2.4204,-2.2188,-2.0344,-1.9149,-1.7949,-1.7118,-1.6752,-1.7763,-1.8964,-2.2587,-2.6022,-2.8488,-2.9958,-3.0012,-2.9246,-2.9734,-2.9913,-2.9913,-2.9913,-2.9913,-2.9913,-2.9913,-2.9913,-2.9913,-2.9913,-2.9913,-2.9913,-2.9913,-2.9913,-2.9913,-2.9913,-3.0047,-3.0327,-2.919,-2.9483,-2.8798,-2.6551,-2.2779,-2.1586,-2.2608,-2.5485,-2.8536,-3.0821,-3.1609,-3.1677,-3.1677,-3.1677,-3.173,-3.1837,-3.2038,-3.2372,-3.2452,-3.2594,-3.2927,-3.2888,-3.2934,-3.2484,-3.236,-3.2012,-3.1699,-3.2412,-3.1166,-2.9859,-2.9147,-2.7876,-2.6023,-2.5636,-2.4269,-2.1415,-2.0727,-2.0307,-2.0889,-2.0585,-2.0183,-1.9593,-1.9405,-1.9109,-1.9183,-2.0446,-2.2019,-2.341,-2.4663,-2.4737,-2.4578,-2.5191,-2.5604,-2.3737,-2.18,-1.9636,-1.7819,-1.6429,-1.5444,-1.5384,-1.554,-1.5683,-3.0301,-3.0181,-2.9993,-3.002,-3.0167,-2.9993,-3.0034,-3.0154,-3.0007,-2.9913,-2.9734,-2.9079,-2.8463,-2.8437,-2.8578,-2.7693,-2.7308,-2.684,-2.4204,-2.393,-2.2086,-1.9882,-1.8321,-1.7577,-1.6658,-1.6198,-1.7577,-1.9141,-2.0612,-2.6641,-3.0233,-3.2207,-3.3671,-3.2837,-3.1642,-3.0602,-2.9913,-2.9913,-2.9913,-2.9913,-2.9913,-2.9913,-2.9913,-2.9913,-2.9913,-2.9913,-2.9913,-2.9913,-2.9913,-2.9913,-2.994,-3.0007,-3.0247,-3.0568,-3.0849,-2.9662,-2.7687,-2.4633,-2.4231,-2.4489,-2.6861,-2.8053,-3.0351,-3.1567,-3.1704,-3.1677,-3.1677,-3.1757,-3.1957,-3.2225,-3.2478,-3.2532,-3.2853,-3.3187,-3.3253,-3.3213,-3.316,-3.2946,-3.2799,-3.2652,-3.2288,-3.069,-2.9208,-2.8308,-2.7492,-2.5443,-2.3394,-2.2223,-2.153,-2.1618,-2.1716,-2.24,-2.279,-2.2692,-2.2497,-2.2321,-2.193,-2.1441,-2.3148,-2.5183,-2.5894,-2.6964,-2.6751,-2.6789,-2.7546,-2.7392,-2.4872,-2.2673,-2.0751,-1.8692,-1.6691,-1.5899,-1.5493,-1.5554,-1.573,-3.0181,-2.994,-2.9913,-2.9913,-2.9913,-2.9927,-2.9927,-2.9927,-2.9927,-2.9824,-2.9554,-2.7238,-2.6328,-2.5893,-2.5955,-2.4924,-2.3342,-2.4776,-2.28,-2.0344,-1.9242,-1.7305,-1.6292,-1.5643,-1.5549,-1.6292,-1.7949,-2.0714,-2.2821,-2.8629,-3.3085,-3.5902,-3.6883,-3.588,-3.4067,-3.2425,-3.1048,-3.0258,-2.9913,-2.9913,-2.9913,-2.9913,-2.9913,-2.9913,-2.9913,-2.9913,-2.9913,-2.9913,-2.9913,-2.9913,-2.9913,-2.9927,-3.0114,-3.0488,-3.0688,-3.0039,-2.845,-2.7561,-2.6722,-2.6767,-2.7657,-2.8377,-3.0568,-3.1521,-3.1757,-3.1677,-3.1677,-3.1784,-3.1984,-3.2251,-3.2492,-3.2786,-3.3093,-3.3253,-3.3374,-3.3374,-3.336,-3.324,-3.312,-3.2906,-3.2585,-3.1438,-3.0038,-2.8943,-2.778,-2.671,-2.5335,-2.5432,-2.4937,-2.5088,-2.5185,-2.5367,-2.5667,-2.5474,-2.5657,-2.6743,-2.602,-2.5987,-2.695,-2.8634,-2.9098,-2.9123,-2.9036,-2.9193,-3.0147,-2.9371,-2.7104,-2.4682,-2.2215,-2.0007,-1.8008,-1.6299,-1.5786,-1.5745,-1.5825,-2.9993,-2.9913,-2.9913,-2.9913,-2.9913,-2.9913,-2.9913,-2.9913,-2.9913,-2.9092,-2.7238,-2.6502,-2.5162,-2.3571,-2.3532,-2.2963,-2.2312,-2.1404,-2.0326,-1.8778,-1.7491,-1.6104,-1.5462,-1.5181,-1.5181,-1.6666,-1.8879,-2.1718,-2.4252,-2.9966,-3.6817,-4.0932,-3.9836,-3.88,-3.7501,-3.588,-3.3204,-3.1123,-3.0602,-3.0437,-3.0258,-3.0258,-3.0093,-3.0003,-2.9913,-2.9913,-2.9913,-2.9913,-2.9913,-2.9913,-2.9913,-2.9913,-2.9953,-3.0383,-3.0505,-2.8781,-2.7841,-2.7198,-2.6038,-2.7169,-2.8351,-2.8837,-3.0715,-3.1643,-3.177,-3.1677,-3.1677,-3.1837,-3.2104,-3.2412,-3.2679,-3.2959,-3.32,-3.3334,-3.3414,-3.3414,-3.3374,-3.324,-3.3093,-3.2812,-3.2505,-3.1689,-3.0312,-2.9434,-2.8356,-2.778,-2.7684,-2.796,-2.8224,-2.838,-2.8725,-2.8821,-3.0398,-3.0857,-3.2052,-3.3194,-3.1678,-3.0779,-3.1156,-3.1209,-3.0807,-3.0807,-3.1089,-3.1022,-3.0808,-3.0516,-2.9664,-2.6854,-2.373,-2.1928,-1.9949,-1.7789,-1.6114,-1.6043,-1.5916,-2.9913,-2.9913,-2.9913,-2.9913,-2.9913,-2.9913,-2.9913,-2.9913,-2.9913,-2.8899,-2.7521,-2.5582,-2.3849,-2.2637,-2.1718,-2.1442,-2.2372,-2.0428,-1.9511,-1.9974,-1.6845,-1.5737,-1.5181,-1.5181,-1.5181,-1.6939,-1.9427,-2.2372,-2.5332,-3.1811,-3.897,-4.2927,-4.2057,-4.1202,-3.9903,-3.8374,-3.6226,-3.4067,-3.269,-3.2086,-3.1568,-3.1212,-3.087,-3.0258,-3.0093,-3.0079,-3.0093,-3.0093,-3.0003,-2.9913,-2.9913,-2.9913,-3.0366,-3.1086,-3.2994,-3.1904,-3.1476,-3.0903,-3.0177,-2.9601,-2.9722,-3.0013,-3.1088,-3.1643,-3.1797,-3.1677,-3.177,-3.1917,-3.2278,-3.271,-3.2853,-3.308,-3.3253,-3.3414,-3.3414,-3.3414,-3.328,-3.3133,-3.2893,-3.2625,-3.2027,-3.1242,-3.0351,-2.9579,-2.9517,-2.9899,-3.0458,-3.092,-3.1286,-3.1638,-3.2083,-3.2351,-3.4955,-3.7081,-3.8035,-3.7889,-3.6189,-3.4363,-3.3536,-3.3336,-3.2771,-3.1865,-3.1517,-3.1088,-3.0702,-3.0423,-3.0068,-2.79,-2.5161,-2.3486,-2.1596,-1.9236,-1.7284,-1.622,-1.607,-2.9913,-2.9913,-2.9913,-2.9913,-2.9913,-2.9913,-2.9913,-2.9913,-2.9913,-2.9734,-2.8526,-2.4854,-2.3014,-2.2372,-2.1083,-2.1175,-2.1636,-2.0622,-2.0067,-2.2096,-1.8042,-1.5924,-1.5275,-1.5275,-1.5643,-1.7126,-1.9974,-2.3806,-2.6575,-3.2529,-3.9055,-4.3443,-4.3526,-4.2659,-4.1202,-4.0848,-3.931,-3.8015,-3.6986,-3.6399,-3.4242,-3.338,-3.269,-3.1226,-3.087,-3.087,-3.0691,-3.0437,-3.0182,-3.0169,-2.9913,-3.0003,-3.1298,-3.32,-3.5542,-3.6368,-3.5484,-3.5089,-3.4073,-3.3239,-3.234,-3.2189,-3.2147,-3.2,-3.1744,-3.1677,-3.1757,-3.1891,-3.2198,-3.2412,-3.2625,-3.2959,-3.32,-3.3307,-3.3347,-3.3374,-3.3347,-3.3093,-3.2732,-3.2465,-3.2115,-3.1439,-3.1172,-3.0496,-3.0401,-3.1637,-3.211,-3.2664,-3.3215,-3.3671,-3.4578,-3.5201,-3.7863,-4.005,-4.0867,-4.0566,-3.9706,-3.8301,-3.6688,-3.5791,-3.5409,-3.3686,-3.1691,-3.1141,-3.0595,-3.0448,-2.982,-2.8214,-2.6833,-2.5457,-2.3272,-2.0676,-1.8825,-1.7543,-1.6206,-2.9913,-2.9913,-2.9913,-2.9913,-2.9913,-2.9913,-2.9913,-2.9913,-2.9913,-2.8899,-2.7148,-2.5775,-2.4215,-2.2647,-2.182,-2.2004,-2.2188,-2.1728,-2.0899,-2.0622,-1.8499,-1.7305,-1.583,-1.6198,-1.6572,-1.8507,-2.1617,-2.6136,-3.1561,-3.5832,-3.897,-4.3176,-4.3691,-4.3093,-4.2659,-4.2576,-4.1974,-4.1118,-4.1034,-3.9413,-3.683,-3.614,-3.5446,-3.494,-3.4853,-3.4591,-3.4242,-3.3292,-3.2867,-3.2425,-3.0691,-3.107,-3.2803,-3.5545,-3.7249,-3.8055,-3.8366,-3.8154,-3.747,-3.597,-3.4407,-3.3639,-3.3072,-3.2205,-3.169,-3.1677,-3.173,-3.1864,-3.2011,-3.2211,-3.2452,-3.2812,-3.3106,-3.3187,-3.3253,-3.332,-3.3374,-3.3,-3.2599,-3.2318,-3.2078,-3.1904,-3.173,-3.1677,-3.1677,-3.1758,-3.1853,-3.2219,-3.2852,-3.3577,-3.5602,-3.6775,-3.9778,-4.178,-4.2442,-4.2155,-4.0768,-4.0502,-3.9367,-3.8538,-3.7643,-3.5197,-3.2591,-3.1202,-3.0488,-3.0341,-3.0181,-2.9737,-2.841,-2.7111,-2.5445,-2.2923,-2.1242,-1.9958,-1.771,-2.9913,-2.9913,-2.9913,-2.9913,-2.9913,-2.9913,-2.9913,-2.9913,-2.9913,-2.9169,-2.7702,-2.6695,-2.54,-2.3838,-2.3106,-2.3564,-2.3758,-2.2831,-2.2923,-2.2178,-2.0714,-1.9882,-1.8778,-1.8135,-1.9242,-2.0991,-2.3462,-2.8219,-3.554,-3.7175,-3.897,-4.2908,-4.3672,-4.3691,-4.3691,-4.3691,-4.3672,-4.3609,-4.3672,-4.2038,-3.9377,-3.897,-3.769,-3.7347,-3.683,-3.6917,-3.6485,-3.5462,-3.5201,-3.4766,-3.3731,-3.471,-3.6415,-3.8298,-3.9931,-4.0755,-4.093,-4.0365,-3.9547,-3.7879,-3.5788,-3.4872,-3.3135,-3.1962,-3.1677,-3.169,-3.1797,-3.1931,-3.2024,-3.2198,-3.2412,-3.2732,-3.2919,-3.3026,-3.3053,-3.3093,-3.3013,-3.2759,-3.2345,-3.1957,-3.1824,-3.1797,-3.1677,-3.1677,-3.1772,-3.2138,-3.2124,-3.2124,-3.2772,-3.3093,-3.5293,-3.702,-3.9167,-4.0666,-4.0846,-4.0927,-4.086,-4.0967,-4.1019,-3.878,-3.6471,-3.512,-3.3512,-3.1554,-3.0368,-3.0194,-3.0047,-2.994,-2.9734,-2.859,-2.7105,-2.5423,-2.3838,-2.2372,-2.0528,-2.9913,-2.9913,-2.9913,-2.9913,-2.9913,-2.9913,-2.9913,-2.9913,-2.9913,-2.9913,-2.9465,-2.7612,-2.6785,-2.5866,-2.4763,-2.5491,-2.5775,-2.5309,-2.54,-2.4763,-2.3656,-2.228,-2.182,-2.2004,-2.225,-2.3662,-2.61,-3.0552,-3.6277,-3.7385,-3.9405,-4.2812,-4.3633,-4.3672,-4.3633,-4.3613,-4.3555,-4.3496,-4.3476,-4.3516,-4.2627,-4.1871,-3.9987,-3.8459,-3.769,-3.769,-3.769,-3.7347,-3.7347,-3.7175,-3.7089,-3.7878,-3.923,-4.066,-4.2363,-4.3308,-4.3093,-4.2828,-4.2156,-3.9432,-3.7436,-3.5509,-3.3323,-3.2138,-3.2043,-3.173,-3.1837,-3.1904,-3.1998,-3.2104,-3.2305,-3.2492,-3.2666,-3.2799,-3.2812,-3.2812,-3.2652,-3.2505,-3.2131,-3.1717,-3.1677,-3.1677,-3.1677,-3.1677,-3.1948,-3.2313,-3.2408,-3.2489,-3.2664,-3.2661,-3.3715,-3.4666,-3.5791,-3.7122,-3.8828,-3.9334,-3.9642,-3.9927,-3.9468,-3.7305,-3.556,-3.4608,-3.3229,-3.1199,-3.0261,-3.0087,-3.0007,-2.9927,-2.9734,-2.9644,-2.8719,-2.7341,-2.6502,-2.5036,-2.3656,-2.9913,-2.9913,-2.9913,-2.9913,-2.9913,-2.9913,-2.9913,-2.9913,-2.99,-2.9913,-2.9707,-2.9631,-2.9182,-2.9169,-2.8899,-2.8809,-2.8166,-2.7792,-2.6785,-2.6048,-2.5866,-2.4398,-2.3553,-2.3967,-2.3983,-2.5971,-2.9079,-3.2955,-3.6643,-3.8345,-4.0143,-4.2631,-4.3496,-4.3496,-4.3203,-4.3183,-4.3183,-4.3125,-4.2988,-4.293,-4.3281,-4.2925,-4.3074,-4.2493,-4.2409,-4.2409,-4.1974,-4.0511,-3.9921,-3.9649,-3.9649,-3.9987,-4.0892,-4.2265,-4.3695,-4.4458,-4.4348,-4.4682,-4.3486,-4.1673,-3.9795,-3.7528,-3.5431,-3.3229,-3.2677,-3.1677,-3.1744,-3.1744,-3.1797,-3.1797,-3.1957,-3.2118,-3.2278,-3.2412,-3.2478,-3.2438,-3.2332,-3.2238,-3.2038,-3.1797,-3.1677,-3.1677,-3.1677,-3.1677,-3.1677,-3.1948,-3.1948,-3.2029,-3.2097,-3.2177,-3.2415,-3.2799,-3.3179,-3.5303,-3.7653,-3.753,-3.781,-3.8247,-3.8485,-3.7354,-3.6027,-3.4561,-3.2962,-3.1589,-3.0488,-2.998,-2.9913,-2.9913,-2.9913,-2.9824,-2.9824,-2.9182,-2.8436,-2.7612,-2.6139]},{"header":{"parameterUnit":"m.s-1","parameterCategory":1,"la1":31.0,"la2":29.5877,"lo1":-88.7671,"lo2":-86.6584,"dy":0.0162,"dx":0.0185,"nx":115,"ny":88,"refTime":"2024-09-10T06:00:00:Z","depth":0,"parameterNumber":3,"parameterNumberName":"V-component_of_WINDS"},"data":[0.0,0.0,0.0,0.0,0.0,0.0,0.0,0.0,0.0,0.0,0.0,0.0,0.0,0.0,0.0,0.0,0.0,0.0,0.0,0.0,0.0,0.0,0.0,0.0,0.0,0.0,0.0,0.0,0.0,0.0,0.0,0.0,0.0,0.0,0.0,0.0,0.0,0.0,0.0,0.0,0.0,0.0,0.0,0.0,0.0,0.0,0.0,0.0,0.0,0.0,0.0,0.0,0.0,0.0,0.0,0.0,0.0,0.0,0.0,0.0,0.0,0.0,0.0,0.0,0.0,0.0,0.0,0.0,0.0,0.0,0.0,0.0,0.0,0.0,0.0,0.0,0.0,0.0,0.0,0.0,0.0,0.0,0.0,0.0,0.0,0.0,0.0,0.0,0.0,0.0,0.0,0.0,0.0,0.0,0.0,0.0,0.0,0.0,0.0,0.0,0.0,0.0,0.0,0.0,0.0,0.0,0.0,0.0,0.0,0.0,0.0,0.0,0.0,0.0,0.0,0.0,0.0,0.0,0.0,0.0,0.0,0.0,0.0,0.0,0.0,0.0,0.0,0.0,0.0,0.0,0.0,0.0,0.0,0.0,0.0,0.0,0.0,0.0,0.0,0.0,0.0,0.0,0.0,0.0,0.0,0.0,0.0,0.0,0.0,0.0,0.0,0.0,0.0,0.0,0.0,0.0,0.0,0.0,0.0,0.0,0.0,0.0,0.0,0.0,0.0,0.0,0.0,0.0,0.0,0.0,0.0,0.0,0.0,0.0,0.0,0.0,0.0,0.0,0.0,0.0,0.0,0.0,0.0,0.0,0.0,0.0,0.0,0.0,0.0,0.0,0.0,0.0,0.0,0.0,0.0,0.0,0.0,0.0,0.0,0.0,0.0,0.0,0.0,0.0,0.0,0.0,0.0,0.0,0.0,0.0,0.0,0.0,0.0,0.0,0.0,0.0,0.0,0.0,0.0,0.0,0.0,0.0,0.0,0.0,0.0,0.0,0.0,0.0,0.0,0.0,0.0,0.0,0.0,0.0,0.0,0.0,0.0,0.0,0.0,0.0,0.0,0.0,0.0,0.0,0.0,0.0,0.0,0.0,0.0,0.0,0.0,0.0,0.0,0.0,0.0,0.0,0.0,0.0,0.0,0.0,0.0,0.0,0.0,0.0,0.0,0.0,0.0,0.0,0.0,0.0,0.0,0.0,0.0,0.0,0.0,0.0,0.0,0.0,0.0,0.0,0.0,0.0,0.0,0.0,0.0,0.0,0.0,0.0,0.0,0.0,0.0,0.0,0.0,0.0,0.0,0.0,0.0,0.0,0.0,0.0,0.0,0.0,0.0,0.0,0.0,0.0,0.0,0.0,0.0,0.0,0.0,0.0,0.0,0.0,0.0,0.0,0.0,0.0,0.0,0.0,0.0,0.0,0.0,0.0,0.0,0.0,0.0,0.0,0.0,0.0,0.0,0.0,0.0,0.0,0.0,0.0,0.0,0.0,0.0,0.0,0.0,0.0,0.0,0.0,0.0,0.0,0.0,0.0,0.0,0.0,0.0,0.0,0.0,0.0,0.0,0.0,0.0,0.0,0.0,0.0,0.0,0.0,0.0,0.0,0.0,0.0,0.0,0.0,0.0,0.0,0.0,0.0,0.0,0.0,0.0,0.0,0.0,0.0,0.0,0.0,0.0,0.0,0.0,0.0,0.0,0.0,0.0,0.0,0.0,0.0,0.0,0.0,0.0,0.0,0.0,0.0,0.0,0.0,0.0,0.0,0.0,0.0,0.0,0.0,0.0,0.0,0.0,0.0,0.0,0.0,0.0,0.0,0.0,0.0,0.0,0.0,0.0,0.0,0.0,0.0,0.0,0.0,0.0,0.0,0.0,0.0,0.0,0.0,0.0,0.0,0.0,0.0,0.0,0.0,0.0,0.0,0.0,0.0,0.0,0.0,0.0,0.0,0.0,0.0,0.0,0.0,0.0,0.0,0.0,0.0,0.0,0.0,0.0,0.0,0.0,0.0,0.0,0.0,0.0,0.0,0.0,0.0,0.0,0.0,0.0,0.0,0.0,0.0,0.0,0.0,0.0,0.0,0.0,0.0,0.0,0.0,0.0,0.0,0.0,0.0,0.0,0.0,0.0,0.0,0.0,0.0,0.0,0.0,0.0,0.0,0.0,0.0,0.0,0.0,0.0,0.0,0.0,0.0,0.0,0.0,0.0,0.0,0.0,0.0,0.0,0.0,0.0,0.0,0.0,0.0,0.0,0.0,0.0,0.0,0.0,0.0,0.0,0.0,0.0,0.0,0.0,0.0,0.0,0.0,0.0,0.0,0.0,0.0,0.0,0.0,0.0,0.0,0.0,0.0,0.0,0.0,0.0,0.0,0.0,0.0,0.0,0.0,0.0,0.0,0.0,0.0,0.0,0.0,0.0,0.0,0.0,0.0,0.0,0.0,0.0,0.0,0.0,0.0,0.0,0.0,0.0,0.0,0.0,0.0,0.0,0.0,0.0,0.0,0.0,0.0,0.0,0.0,0.0,0.0,0.0,0.0,0.0,0.0,0.0,0.0,0.0,0.0,0.0,0.0,0.0,0.0,0.0,0.0,0.0,0.0,0.0,0.0,0.0,0.0,0.0,0.0,0.0,0.0,0.0,0.0,0.0,0.0,0.0,0.0,0.0,0.0,0.0,0.0,0.0,0.0,0.0,0.0,0.0,0.0,0.0,0.0,0.0,0.0,0.0,0.0,0.0,0.0,0.0,0.0,0.0,0.0,0.0,0.0,0.0,0.0,0.0,0.0,0.0,0.0,0.0,0.0,0.0,0.0,0.0,0.0,0.0,0.0,0.0,0.0,0.0,0.0,0.0,0.0,0.0,0.0,0.0,0.0,0.0,0.0,0.0,0.0,0.0,0.0,0.0,0.0,0.0,0.0,0.0,0.0,0.0,0.0,0.0,0.0,0.0,0.0,0.0,0.0,0.0,0.0,0.0,0.0,0.0,0.0,0.0,0.0,0.0,0.0,0.0,0.0,0.0,0.0,0.0,0.0,0.0,0.0,0.0,0.0,0.0,0.0,0.0,0.0,0.0,0.0,0.0,0.0,0.0,0.0,0.0,0.0,0.0,0.0,0.0,0.0,0.0,0.0,0.0,0.0,0.0,0.0,0.0,0.0,0.0,0.0,0.0,0.0,0.0,0.0,0.0,0.0,0.0,0.0,0.0,0.0,0.0,0.0,0.0,0.0,0.0,0.0,0.0,0.0,0.0,0.0,0.0,0.0,0.0,0.0,0.0,0.0,0.0,0.0,0.0,0.0,0.0,0.0,0.0,0.0,0.0,0.0,0.0,0.0,0.0,0.0,0.0,0.0,0.0,0.0,0.0,0.0,0.0,0.0,0.0,0.0,0.0,0.0,0.0,0.0,0.0,0.0,0.0,0.0,0.0,0.0,0.0,0.0,0.0,0.0,0.0,0.0,0.0,0.0,0.0,0.0,0.0,0.0,0.0,0.0,0.0,0.0,0.0,0.0,0.0,0.0,0.0,0.0,0.0,0.0,0.0,0.0,0.0,0.0,0.0,0.0,0.0,0.0,0.0,0.0,0.0,0.0,0.0,0.0,0.0,0.0,0.0,0.0,0.0,0.0,0.0,0.0,0.0,0.0,0.0,0.0,0.0,0.0,0.0,0.0,0.0,0.0,0.0,0.0,0.0,0.0,0.0,0.0,0.0,0.0,0.0,0.0,0.0,0.0,0.0,0.0,0.0,0.0,0.0,0.0,0.0,0.0,0.0,0.0,0.0,0.0,0.0,0.0,0.0,0.0,0.0,0.0,0.0,0.0,0.0,0.0,0.0,0.0,0.0,0.0,0.0,0.0,0.0,0.0,0.0,0.0,0.0,0.0,0.0,0.0,0.0,0.0,0.0,0.0,0.0,0.0,0.0,0.0,0.0,0.0,0.0,0.0,0.0,0.0,0.0,0.0,0.0,0.0,0.0,0.0,0.0,0.0,0.0,0.0,0.0,0.0,0.0,0.0,0.0,0.0,0.0,0.0,0.0,0.0,0.0,0.0,0.0,0.0,0.0,0.0,0.0,0.0,0.0,0.0,0.0,0.0,0.0,0.0,0.0,0.0,0.0,0.0,0.0,0.0,0.0,0.0,0.0,0.0,0.0,0.0,0.0,0.0,0.0,0.0,0.0,0.0,0.0,0.0,0.0,0.0,0.0,0.0,0.0,0.0,0.0,0.0,0.0,0.0,0.0,0.0,0.0,0.0,0.0,0.0,4.5485,0.0,0.0,0.0,0.0,0.0,0.0,0.0,0.0,0.0,0.0,0.0,0.0,0.0,0.0,0.0,0.0,0.0,0.0,0.0,0.0,0.0,0.0,0.0,0.0,0.0,0.0,0.0,0.0,0.0,0.0,0.0,0.0,0.0,0.0,0.0,0.0,0.0,0.0,0.0,0.0,0.0,0.0,0.0,0.0,0.0,0.0,0.0,0.0,0.0,0.0,0.0,0.0,0.0,0.0,0.0,0.0,0.0,0.0,0.0,0.0,0.0,0.0,0.0,0.0,0.0,0.0,0.0,0.0,0.0,0.0,0.0,0.0,0.0,0.0,0.0,0.0,0.0,0.0,0.0,0.0,0.0,0.0,0.0,0.0,0.0,0.0,0.0,0.0,0.0,0.0,0.0,0.0,0.0,0.0,0.0,0.0,0.0,0.0,0.0,0.0,0.0,0.0,0.0,0.0,0.0,0.0,0.0,0.0,0.0,0.0,4.3855,4.4548,4.4574,4.4919,4.5568,0.0,0.0,0.0,0.0,0.0,0.0,0.0,0.0,0.0,0.0,0.0,0.0,0.0,0.0,0.0,0.0,0.0,0.0,0.0,0.0,0.0,0.0,0.0,0.0,0.0,0.0,0.0,0.0,0.0,0.0,0.0,0.0,0.0,0.0,0.0,0.0,0.0,0.0,0.0,0.0,0.0,0.0,0.0,0.0,0.0,0.0,0.0,0.0,0.0,0.0,0.0,0.0,0.0,0.0,0.0,0.0,0.0,0.0,0.0,0.0,0.0,0.0,0.0,0.0,0.0,0.0,0.0,0.0,0.0,0.0,0.0,0.0,0.0,0.0,0.0,0.0,0.0,0.0,0.0,0.0,0.0,0.0,0.0,0.0,0.0,0.0,0.0,0.0,0.0,0.0,0.0,0.0,0.0,0.0,0.0,0.0,0.0,0.0,0.0,0.0,0.0,0.0,0.0,0.0,0.0,0.0,0.0,0.0,0.0,0.0,0.0,0.0,4.5442,4.5803,4.6455,0.0,0.0,0.0,0.0,0.0,0.0,0.0,0.0,0.0,0.0,0.0,0.0,0.0,0.0,0.0,0.0,0.0,0.0,0.0,0.0,0.0,0.0,0.0,0.0,0.0,0.0,0.0,0.0,0.0,0.0,0.0,0.0,0.0,0.0,0.0,0.0,0.0,0.0,0.0,0.0,0.0,0.0,0.0,0.0,0.0,0.0,0.0,0.0,0.0,0.0,0.0,0.0,0.0,0.0,0.0,0.0,0.0,0.0,0.0,0.0,0.0,0.0,0.0,0.0,0.0,0.0,0.0,0.0,0.0,0.0,0.0,0.0,0.0,0.0,0.0,0.0,0.0,0.0,0.0,0.0,0.0,0.0,0.0,0.0,0.0,0.0,0.0,0.0,0.0,0.0,0.0,0.0,0.0,0.0,0.0,0.0,0.0,0.0,0.0,0.0,0.0,0.0,0.0,0.0,0.0,0.0,0.0,0.0,0.0,0.0,4.4913,4.7767,4.7947,0.0,4.9173,0.0,0.0,0.0,0.0,0.0,0.0,0.0,0.0,0.0,0.0,0.0,0.0,0.0,0.0,0.0,0.0,0.0,0.0,0.0,0.0,0.0,0.0,0.0,0.0,0.0,0.0,0.0,0.0,0.0,0.0,0.0,0.0,0.0,0.0,0.0,0.0,0.0,0.0,0.0,0.0,0.0,0.0,0.0,0.0,0.0,0.0,0.0,0.0,0.0,0.0,0.0,0.0,0.0,0.0,0.0,0.0,0.0,0.0,0.0,0.0,0.0,0.0,0.0,0.0,0.0,0.0,0.0,0.0,0.0,0.0,0.0,0.0,0.0,0.0,0.0,0.0,0.0,0.0,0.0,0.0,0.0,0.0,0.0,0.0,0.0,0.0,0.0,0.0,0.0,0.0,0.0,0.0,0.0,0.0,0.0,0.0,0.0,0.0,0.0,0.0,0.0,0.0,0.0,0.0,0.0,0.0,0.0,0.0,0.0,0.0,4.6487,4.8258,4.8262,4.8391,0.0,0.0,0.0,0.0,0.0,0.0,0.0,0.0,0.0,0.0,0.0,0.0,0.0,0.0,0.0,0.0,0.0,0.0,0.0,0.0,0.0,0.0,0.0,0.0,0.0,0.0,0.0,0.0,0.0,0.0,0.0,0.0,0.0,0.0,0.0,0.0,0.0,0.0,0.0,0.0,0.0,0.0,0.0,0.0,0.0,0.0,0.0,0.0,0.0,0.0,0.0,0.0,0.0,0.0,0.0,0.0,0.0,0.0,0.0,0.0,0.0,0.0,0.0,0.0,0.0,0.0,0.0,0.0,0.0,0.0,0.0,0.0,0.0,0.0,0.0,0.0,0.0,0.0,0.0,0.0,0.0,0.0,0.0,0.0,0.0,0.0,0.0,0.0,0.0,0.0,0.0,0.0,0.0,0.0,0.0,0.0,0.0,0.0,0.0,0.0,0.0,0.0,0.0,0.0,0.0,0.0,0.0,0.0,0.0,0.0,4.6562,4.771,4.8928,4.9278,4.8865,4.7808,0.0,0.0,0.0,0.0,0.0,0.0,0.0,0.0,0.0,0.0,0.0,0.0,0.0,0.0,0.0,0.0,0.0,0.0,0.0,0.0,0.0,0.0,0.0,0.0,0.0,0.0,0.0,0.0,0.0,0.0,0.0,0.0,0.0,0.0,0.0,0.0,0.0,0.0,0.0,0.0,0.0,0.0,0.0,0.0,0.0,0.0,0.0,0.0,0.0,0.0,0.0,0.0,0.0,0.0,0.0,0.0,0.0,0.0,0.0,0.0,0.0,0.0,0.0,0.0,0.0,0.0,0.0,0.0,0.0,0.0,0.0,0.0,0.0,0.0,0.0,0.0,0.0,0.0,0.0,0.0,0.0,0.0,0.0,0.0,0.0,0.0,0.0,0.0,0.0,0.0,0.0,0.0,0.0,0.0,0.0,0.0,0.0,0.0,0.0,0.0,0.0,0.0,0.0,0.0,0.0,0.0,0.0,0.0,5.0031,4.8196,4.8212,5.0538,5.1826,5.0768,0.0,0.0,0.0,0.0,0.0,0.0,0.0,0.0,0.0,0.0,0.0,0.0,0.0,0.0,0.0,0.0,0.0,0.0,0.0,0.0,0.0,0.0,0.0,0.0,0.0,0.0,0.0,0.0,0.0,0.0,0.0,0.0,0.0,0.0,0.0,0.0,0.0,0.0,0.0,0.0,0.0,0.0,0.0,0.0,0.0,0.0,0.0,0.0,0.0,0.0,0.0,0.0,0.0,0.0,0.0,0.0,0.0,0.0,0.0,0.0,0.0,0.0,0.0,0.0,0.0,0.0,0.0,0.0,0.0,0.0,0.0,0.0,0.0,0.0,0.0,0.0,0.0,0.0,0.0,0.0,0.0,0.0,0.0,0.0,0.0,0.0,0.0,0.0,0.0,0.0,0.0,0.0,0.0,0.0,0.0,0.0,0.0,0.0,0.0,0.0,0.0,0.0,0.0,0.0,0.0,0.0,0.0,0.0,0.0,4.458,4.5995,4.8952,5.3167,5.0348,4.8682,0.0,0.0,0.0,0.0,0.0,0.0,0.0,0.0,0.0,0.0,0.0,0.0,0.0,0.0,0.0,0.0,0.0,0.0,0.0,0.0,0.0,0.0,0.0,0.0,0.0,0.0,0.0,0.0,0.0,0.0,0.0,0.0,0.0,0.0,0.0,0.0,0.0,0.0,0.0,0.0,0.0,0.0,0.0,0.0,0.0,0.0,0.0,0.0,0.0,0.0,0.0,0.0,0.0,0.0,0.0,0.0,0.0,0.0,0.0,0.0,0.0,0.0,0.0,0.0,0.0,0.0,0.0,0.0,0.0,0.0,0.0,0.0,0.0,0.0,0.0,0.0,0.0,0.0,0.0,0.0,0.0,0.0,0.0,0.0,0.0,0.0,0.0,0.0,0.0,0.0,0.0,0.0,0.0,0.0,0.0,0.0,0.0,0.0,0.0,0.0,0.0,0.0,0.0,0.0,0.0,0.0,0.0,0.0,0.0,4.3901,0.0,5.0263,5.3125,4.9378,4.7188,0.0,0.0,0.0,0.0,0.0,0.0,0.0,0.0,0.0,0.0,0.0,0.0,0.0,0.0,0.0,0.0,0.0,0.0,0.0,0.0,0.0,0.0,0.0,0.0,0.0,0.0,0.0,0.0,0.0,0.0,0.0,0.0,0.0,0.0,0.0,0.0,0.0,0.0,0.0,0.0,0.0,0.0,0.0,0.0,0.0,0.0,0.0,0.0,0.0,0.0,0.0,0.0,0.0,0.0,0.0,0.0,0.0,0.0,0.0,0.0,0.0,0.0,0.0,0.0,0.0,0.0,0.0,0.0,0.0,0.0,0.0,0.0,0.0,0.0,0.0,0.0,0.0,0.0,0.0,0.0,0.0,0.0,0.0,0.0,0.0,0.0,0.0,0.0,0.0,0.0,0.0,0.0,0.0,0.0,0.0,0.0,0.0,0.0,0.0,0.0,0.0,0.0,0.0,0.0,0.0,0.0,0.0,0.0,4.469,4.9243,5.1646,5.1959,5.0155,4.9301,4.6581,0.0,0.0,0.0,0.0,0.0,0.0,0.0,0.0,0.0,0.0,0.0,0.0,0.0,0.0,0.0,0.0,0.0,0.0,0.0,0.0,0.0,0.0,0.0,0.0,0.0,0.0,0.0,0.0,0.0,0.0,0.0,0.0,0.0,0.0,0.0,0.0,0.0,0.0,0.0,0.0,0.0,0.0,0.0,0.0,0.0,0.0,0.0,0.0,0.0,0.0,0.0,0.0,0.0,0.0,0.0,0.0,0.0,0.0,0.0,0.0,0.0,0.0,0.0,0.0,0.0,0.0,0.0,0.0,0.0,0.0,0.0,0.0,0.0,0.0,0.0,0.0,0.0,0.0,0.0,0.0,0.0,0.0,0.0,0.0,0.0,0.0,0.0,0.0,0.0,0.0,0.0,0.0,0.0,0.0,0.0,0.0,0.0,0.0,0.0,0.0,0.0,0.0,0.0,0.0,0.0,0.0,0.0,0.0,0.0,4.6269,4.86,5.0605,5.1996,4.8646,4.7024,0.0,0.0,0.0,0.0,0.0,0.0,0.0,0.0,0.0,0.0,0.0,0.0,0.0,0.0,0.0,0.0,0.0,0.0,0.0,0.0,0.0,0.0,0.0,0.0,0.0,0.0,0.0,0.0,0.0,0.0,0.0,0.0,0.0,0.0,0.0,0.0,0.0,0.0,0.0,0.0,0.0,0.0,0.0,0.0,0.0,0.0,0.0,0.0,0.0,0.0,0.0,0.0,0.0,0.0,0.0,0.0,0.0,0.0,0.0,0.0,0.0,0.0,0.0,0.0,0.0,0.0,0.0,0.0,0.0,0.0,0.0,0.0,0.0,0.0,0.0,0.0,0.0,0.0,0.0,0.0,0.0,0.0,0.0,0.0,0.0,0.0,0.0,0.0,0.0,0.0,0.0,0.0,0.0,0.0,0.0,0.0,0.0,0.0,0.0,0.0,0.0,0.0,0.0,0.0,0.0,0.0,0.0,0.0,0.0,4.8976,5.0895,5.2661,5.4128,4.9615,4.7692,4.8782,0.0,0.0,0.0,0.0,0.0,0.0,0.0,0.0,0.0,0.0,0.0,0.0,0.0,0.0,0.0,0.0,0.0,0.0,0.0,0.0,0.0,0.0,0.0,0.0,0.0,0.0,0.0,0.0,0.0,0.0,0.0,0.0,0.0,0.0,0.0,0.0,0.0,0.0,0.0,0.0,0.0,0.0,0.0,0.0,0.0,0.0,0.0,0.0,0.0,0.0,0.0,0.0,0.0,0.0,0.0,0.0,0.0,0.0,0.0,0.0,0.0,0.0,0.0,0.0,0.0,0.0,0.0,0.0,0.0,0.0,0.0,0.0,0.0,0.0,0.0,0.0,0.0,0.0,0.0,0.0,0.0,0.0,0.0,0.0,0.0,0.0,0.0,0.0,0.0,0.0,0.0,0.0,0.0,0.0,0.0,0.0,0.0,0.0,0.0,0.0,0.0,0.0,0.0,0.0,0.0,0.0,0.0,0.0,5.5927,5.7673,5.7753,5.6096,5.2084,4.8869,0.0,0.0,0.0,0.0,0.0,0.0,0.0,0.0,0.0,0.0,0.0,0.0,0.0,0.0,0.0,0.0,0.0,0.0,0.0,0.0,0.0,0.0,0.0,0.0,0.0,0.0,0.0,0.0,0.0,0.0,0.0,0.0,0.0,0.0,0.0,0.0,0.0,0.0,0.0,0.0,0.0,0.0,0.0,0.0,0.0,0.0,0.0,0.0,0.0,0.0,0.0,0.0,0.0,0.0,0.0,0.0,0.0,0.0,0.0,0.0,0.0,0.0,0.0,0.0,0.0,0.0,0.0,0.0,0.0,0.0,0.0,0.0,0.0,0.0,0.0,0.0,0.0,0.0,0.0,0.0,0.0,0.0,0.0,0.0,0.0,0.0,0.0,0.0,0.0,0.0,0.0,0.0,0.0,0.0,0.0,0.0,0.0,0.0,0.0,0.0,0.0,0.0,0.0,0.0,0.0,0.0,0.0,0.0,0.0,5.8063,6.1228,6.1787,5.9433,5.5692,5.2804,0.0,0.0,0.0,0.0,0.0,0.0,0.0,0.0,0.0,0.0,0.0,0.0,0.0,0.0,0.0,0.0,0.0,0.0,0.0,0.0,0.0,0.0,0.0,0.0,0.0,0.0,0.0,0.0,0.0,0.0,0.0,0.0,0.0,0.0,0.0,0.0,0.0,0.0,0.0,0.0,0.0,0.0,0.0,0.0,0.0,0.0,0.0,0.0,0.0,0.0,0.0,0.0,0.0,0.0,0.0,0.0,0.0,0.0,0.0,0.0,0.0,0.0,0.0,0.0,0.0,0.0,0.0,0.0,0.0,0.0,0.0,0.0,0.0,0.0,0.0,0.0,0.0,0.0,0.0,0.0,0.0,0.0,0.0,0.0,0.0,0.0,0.0,0.0,0.0,0.0,0.0,0.0,0.0,0.0,0.0,0.0,0.0,0.0,0.0,0.0,0.0,0.0,0.0,0.0,0.0,0.0,0.0,0.0,5.8245,6.1261,6.4859,6.5688,6.3444,5.9915,5.6396,0.0,0.0,0.0,0.0,0.0,0.0,0.0,0.0,0.0,0.0,0.0,0.0,0.0,0.0,0.0,0.0,0.0,0.0,0.0,0.0,0.0,0.0,0.0,0.0,0.0,0.0,0.0,0.0,0.0,0.0,0.0,0.0,0.0,0.0,0.0,0.0,0.0,0.0,0.0,0.0,0.0,0.0,0.0,0.0,0.0,0.0,0.0,0.0,0.0,0.0,0.0,0.0,0.0,0.0,0.0,0.0,0.0,0.0,0.0,0.0,0.0,0.0,0.0,0.0,0.0,0.0,0.0,0.0,0.0,0.0,0.0,0.0,0.0,0.0,0.0,0.0,0.0,0.0,0.0,0.0,0.0,0.0,0.0,0.0,0.0,0.0,0.0,0.0,0.0,0.0,0.0,0.0,0.0,0.0,0.0,0.0,0.0,0.0,0.0,0.0,0.0,0.0,0.0,0.0,0.0,0.0,0.0,0.0,6.1057,6.4692,6.7975,6.8936,6.7359,6.4025,5.9473,0.0,0.0,0.0,0.0,0.0,0.0,0.0,0.0,0.0,0.0,0.0,0.0,0.0,0.0,0.0,0.0,0.0,0.0,0.0,0.0,0.0,0.0,0.0,0.0,0.0,0.0,0.0,0.0,0.0,0.0,0.0,0.0,0.0,0.0,0.0,0.0,0.0,0.0,0.0,0.0,0.0,0.0,0.0,0.0,0.0,0.0,0.0,0.0,0.0,0.0,0.0,0.0,0.0,0.0,0.0,0.0,0.0,0.0,0.0,0.0,0.0,0.0,0.0,0.0,0.0,0.0,0.0,0.0,0.0,0.0,0.0,0.0,0.0,0.0,0.0,0.0,0.0,0.0,0.0,0.0,0.0,0.0,0.0,0.0,0.0,0.0,0.0,0.0,0.0,0.0,0.0,0.0,0.0,0.0,0.0,0.0,0.0,0.0,0.0,0.0,0.0,0.0,0.0,0.0,0.0,0.0,0.0,0.0,6.2771,6.559,6.8282,6.9513,6.9129,6.5205,6.0589,0.0,0.0,0.0,0.0,0.0,0.0,0.0,0.0,0.0,0.0,0.0,0.0,0.0,0.0,0.0,0.0,0.0,0.0,0.0,0.0,0.0,0.0,0.0,0.0,0.0,0.0,0.0,0.0,0.0,0.0,0.0,0.0,0.0,0.0,0.0,0.0,0.0,0.0,0.0,0.0,0.0,0.0,0.0,0.0,0.0,0.0,0.0,0.0,4.9558,0.0,0.0,0.0,0.0,0.0,0.0,0.0,0.0,0.0,0.0,0.0,0.0,0.0,0.0,0.0,0.0,0.0,0.0,0.0,0.0,0.0,0.0,0.0,0.0,0.0,0.0,0.0,0.0,0.0,0.0,0.0,0.0,0.0,0.0,0.0,0.0,0.0,0.0,0.0,0.0,0.0,0.0,0.0,0.0,0.0,0.0,0.0,0.0,0.0,0.0,0.0,0.0,0.0,0.0,0.0,0.0,0.0,0.0,0.0,6.4897,6.7051,6.9167,6.9898,6.9052,6.6128,6.1935,0.0,0.0,0.0,0.0,0.0,0.0,0.0,0.0,0.0,0.0,0.0,0.0,0.0,0.0,0.0,0.0,0.0,0.0,0.0,0.0,0.0,0.0,0.0,0.0,0.0,0.0,0.0,0.0,0.0,0.0,0.0,0.0,0.0,0.0,0.0,0.0,0.0,0.0,0.0,0.0,0.0,0.0,0.0,0.0,0.0,0.0,0.0,0.0,0.0,0.0,0.0,0.0,0.0,0.0,0.0,0.0,0.0,0.0,0.0,0.0,0.0,0.0,0.0,0.0,0.0,0.0,0.0,0.0,0.0,0.0,0.0,0.0,0.0,0.0,0.0,0.0,0.0,0.0,0.0,0.0,0.0,0.0,0.0,0.0,0.0,0.0,0.0,0.0,0.0,0.0,0.0,0.0,0.0,0.0,0.0,0.0,0.0,0.0,0.0,0.0,0.0,0.0,0.0,0.0,0.0,0.0,0.0,6.3012,6.6551,6.8744,7.0167,7.0167,6.8629,6.6859,6.3101,5.7291,0.0,0.0,0.0,0.0,0.0,0.0,0.0,0.0,0.0,0.0,0.0,0.0,0.0,0.0,0.0,0.0,0.0,0.0,0.0,0.0,0.0,0.0,0.0,0.0,0.0,0.0,0.0,0.0,0.0,0.0,0.0,0.0,0.0,0.0,0.0,0.0,0.0,0.0,4.9356,5.2202,0.0,0.0,0.0,0.0,0.0,0.0,0.0,0.0,5.2356,0.0,0.0,0.0,0.0,0.0,0.0,0.0,0.0,0.0,0.0,0.0,0.0,0.0,0.0,0.0,0.0,0.0,0.0,0.0,0.0,0.0,0.0,0.0,0.0,0.0,0.0,0.0,0.0,0.0,0.0,0.0,0.0,0.0,0.0,0.0,0.0,0.0,0.0,0.0,0.0,0.0,0.0,0.0,0.0,0.0,0.0,0.0,0.0,0.0,0.0,0.0,0.0,0.0,0.0,0.0,0.0,6.3243,6.3589,6.5936,7.036,7.0744,7.0437,6.9475,6.7167,6.3089,5.733,0.0,0.0,0.0,0.0,0.0,0.0,0.0,0.0,0.0,0.0,0.0,0.0,0.0,0.0,0.0,0.0,0.0,0.0,0.0,0.0,0.0,0.0,0.0,0.0,0.0,0.0,0.0,0.0,0.0,0.0,0.0,0.0,0.0,0.0,0.0,0.0,0.0,0.0,0.0,5.7242,5.828,0.0,0.0,0.0,0.0,0.0,0.0,0.0,0.0,5.3154,0.0,0.0,0.0,0.0,0.0,0.0,0.0,0.0,0.0,0.0,0.0,0.0,0.0,0.0,0.0,0.0,0.0,0.0,0.0,0.0,0.0,0.0,0.0,0.0,0.0,0.0,0.0,0.0,0.0,0.0,0.0,0.0,0.0,0.0,0.0,0.0,0.0,0.0,0.0,0.0,0.0,0.0,0.0,0.0,0.0,0.0,0.0,0.0,0.0,0.0,0.0,0.0,0.0,0.0,0.0,6.2358,6.482,6.7552,7.0744,7.0898,7.0283,6.9013,6.5705,6.1512,0.0,0.0,0.0,0.0,0.0,0.0,0.0,0.0,0.0,0.0,0.0,0.0,0.0,0.0,0.0,0.0,0.0,0.0,0.0,0.0,0.0,0.0,0.0,0.0,0.0,0.0,0.0,0.0,0.0,0.0,0.0,0.0,0.0,0.0,0.0,0.0,0.0,0.0,0.0,0.0,5.8165,5.9204,5.8396,0.0,0.0,0.0,0.0,0.0,0.0,5.4241,5.3423,0.0,0.0,0.0,0.0,0.0,0.0,0.0,0.0,0.0,0.0,0.0,0.0,0.0,0.0,0.0,0.0,0.0,0.0,0.0,0.0,0.0,0.0,0.0,0.0,0.0,0.0,0.0,0.0,0.0,0.0,0.0,0.0,0.0,0.0,0.0,0.0,0.0,0.0,0.0,0.0,0.0,0.0,0.0,0.0,0.0,0.0,0.0,0.0,0.0,0.0,0.0,0.0,0.0,0.0,0.0,6.0819,6.5474,6.8859,7.0783,7.0898,7.009,6.8385,6.482,6.0639,0.0,0.0,0.0,0.0,0.0,0.0,0.0,0.0,0.0,0.0,0.0,0.0,0.0,0.0,0.0,0.0,0.0,0.0,0.0,0.0,0.0,0.0,0.0,0.0,0.0,0.0,0.0,0.0,0.0,0.0,0.0,0.0,0.0,0.0,0.0,0.0,0.0,0.0,0.0,0.0,0.0,5.9896,5.8934,5.8819,0.0,0.0,0.0,0.0,5.7934,5.6857,0.0,0.0,0.0,0.0,0.0,0.0,0.0,0.0,0.0,0.0,0.0,0.0,0.0,0.0,0.0,0.0,0.0,0.0,0.0,0.0,0.0,0.0,0.0,0.0,0.0,0.0,0.0,0.0,0.0,0.0,0.0,0.0,0.0,0.0,0.0,0.0,0.0,0.0,0.0,0.0,0.0,0.0,0.0,0.0,0.0,0.0,0.0,0.0,0.0,0.0,0.0,0.0,0.0,0.0,0.0,0.0,6.0704,6.4359,6.7705,7.0706,7.0898,7.009,6.8423,6.6474,6.2358,0.0,0.0,0.0,0.0,0.0,0.0,0.0,0.0,0.0,0.0,0.0,0.0,0.0,0.0,0.0,0.0,0.0,0.0,0.0,0.0,0.0,0.0,0.0,0.0,0.0,0.0,0.0,0.0,0.0,0.0,0.0,0.0,0.0,0.0,0.0,0.0,0.0,0.0,0.0,0.0,0.0,6.232,6.0742,6.0512,6.0396,0.0,0.0,6.1396,6.2435,6.3589,0.0,0.0,0.0,0.0,0.0,0.0,0.0,0.0,0.0,0.0,0.0,0.0,0.0,0.0,0.0,0.0,0.0,0.0,0.0,0.0,0.0,0.0,0.0,0.0,0.0,0.0,0.0,0.0,0.0,0.0,0.0,0.0,0.0,0.0,0.0,0.0,0.0,0.0,0.0,0.0,0.0,0.0,0.0,0.0,0.0,0.0,0.0,0.0,0.0,0.0,0.0,0.0,0.0,0.0,0.0,5.7165,6.0819,6.559,6.8975,7.0821,7.0898,7.009,6.8423,6.5397,6.1012,0.0,0.0,0.0,0.0,0.0,0.0,0.0,0.0,0.0,0.0,0.0,0.0,0.0,0.0,0.0,0.0,0.0,0.0,0.0,0.0,0.0,0.0,0.0,0.0,0.0,0.0,0.0,0.0,0.0,0.0,0.0,0.0,0.0,0.0,0.0,0.0,0.0,0.0,0.0,0.0,0.0,0.0,6.3051,6.3782,0.0,0.0,0.0,6.4705,6.6013,0.0,0.0,0.0,0.0,0.0,0.0,0.0,0.0,0.0,0.0,0.0,0.0,0.0,0.0,0.0,0.0,0.0,0.0,0.0,0.0,0.0,0.0,0.0,0.0,0.0,0.0,0.0,0.0,0.0,0.0,0.0,0.0,0.0,0.0,0.0,0.0,0.0,0.0,0.0,0.0,0.0,0.0,0.0,0.0,0.0,0.0,0.0,0.0,0.0,0.0,0.0,0.0,0.0,0.0,0.0,0.0,0.0,6.0858,6.6859,7.0283,7.086,7.0898,7.009,6.8385,6.4936,0.0,0.0,0.0,0.0,0.0,0.0,0.0,0.0,0.0,0.0,0.0,0.0,0.0,0.0,0.0,0.0,0.0,0.0,0.0,0.0,0.0,0.0,0.0,0.0,0.0,0.0,0.0,4.0052,0.0,0.0,0.0,0.0,0.0,0.0,0.0,0.0,0.0,0.0,0.0,0.0,0.0,0.0,6.5319,6.5608,6.7239,6.8613,0.0,0.0,6.7998,6.9231,6.7615,6.4936,0.0,0.0,0.0,0.0,0.0,0.0,0.0,0.0,0.0,0.0,0.0,0.0,0.0,0.0,0.0,0.0,0.0,0.0,0.0,0.0,0.0,0.0,0.0,0.0,0.0,0.0,0.0,0.0,0.0,0.0,0.0,0.0,0.0,0.0,0.0,0.0,0.0,0.0,0.0,0.0,0.0,0.0,0.0,0.0,0.0,0.0,0.0,0.0,0.0,0.0,0.0,0.0,0.0,0.0,5.905,6.0935,6.7398,7.086,7.0898,7.0898,7.009,6.8436,6.659,6.2127,0.0,0.0,0.0,0.0,0.0,0.0,0.0,0.0,0.0,0.0,0.0,0.0,0.0,0.0,0.0,0.0,0.0,0.0,0.0,0.0,0.0,0.0,0.0,0.0,0.0,0.0,0.0,0.0,0.0,0.0,0.0,0.0,0.0,0.0,0.0,0.0,0.0,0.0,0.0,0.0,0.0,6.7304,6.8278,7.0573,7.2793,0.0,7.3255,7.2112,7.22,7.3176,7.0975,6.2243,0.0,0.0,0.0,0.0,0.0,0.0,0.0,0.0,0.0,0.0,0.0,0.0,0.0,0.0,0.0,0.0,0.0,0.0,0.0,0.0,0.0,0.0,0.0,0.0,0.0,0.0,0.0,0.0,0.0,0.0,0.0,0.0,0.0,0.0,0.0,0.0,0.0,0.0,0.0,0.0,0.0,0.0,0.0,0.0,0.0,0.0,0.0,0.0,0.0,0.0,0.0,0.0,0.0,5.9627,6.2358,6.7975,7.1168,7.1668,7.1168,7.009,6.8436,6.6782,6.2551,0.0,0.0,0.0,0.0,0.0,0.0,0.0,0.0,0.0,0.0,0.0,0.0,0.0,0.0,0.0,0.0,0.0,0.0,0.0,0.0,0.0,0.0,0.0,0.0,0.0,0.0,0.0,0.0,4.7206,4.8452,4.8683,0.0,0.0,0.0,0.0,0.0,0.0,0.0,0.0,0.0,0.0,7.0408,7.2532,7.4094,0.0,0.0,7.5494,7.5003,7.5042,7.3199,7.0231,6.5603,6.2122,0.0,0.0,0.0,0.0,0.0,0.0,0.0,0.0,0.0,0.0,0.0,0.0,0.0,0.0,0.0,0.0,0.0,0.0,0.0,0.0,0.0,0.0,0.0,0.0,0.0,0.0,0.0,0.0,0.0,0.0,0.0,0.0,0.0,0.0,0.0,0.0,0.0,0.0,0.0,0.0,0.0,0.0,0.0,0.0,0.0,0.0,0.0,0.0,0.0,0.0,0.0,0.0,5.9858,6.2935,6.8205,7.1206,7.1783,7.1206,7.009,6.8475,6.7013,6.3166,0.0,0.0,0.0,0.0,0.0,0.0,0.0,0.0,0.0,0.0,0.0,0.0,0.0,0.0,0.0,0.0,0.0,0.0,0.0,0.0,0.0,0.0,0.0,0.0,0.0,0.0,0.0,0.0,4.8766,4.9409,4.9118,0.0,0.0,0.0,0.0,0.0,0.0,0.0,0.0,0.0,0.0,7.3651,7.5902,7.6921,7.7479,7.7516,7.6588,7.589,7.5923,7.3255,7.0356,6.7889,0.0,0.0,0.0,0.0,0.0,0.0,0.0,0.0,0.0,0.0,0.0,0.0,0.0,0.0,0.0,0.0,0.0,0.0,0.0,0.0,0.0,0.0,0.0,0.0,0.0,0.0,0.0,3.7873,0.0,0.0,3.6347,0.0,0.0,0.0,0.0,0.0,0.0,0.0,0.0,0.0,0.0,0.0,0.0,0.0,0.0,0.0,0.0,0.0,0.0,0.0,0.0,0.0,0.0,5.9588,6.2178,6.7975,7.0937,7.0975,7.0898,7.009,6.8462,6.7552,6.4282,5.8357,0.0,0.0,0.0,0.0,0.0,0.0,0.0,0.0,0.0,0.0,0.0,0.0,0.0,0.0,0.0,0.0,0.0,0.0,0.0,0.0,0.0,0.0,0.0,0.0,0.0,0.0,4.7656,4.8298,4.8415,0.0,0.0,0.0,0.0,0.0,0.0,0.0,0.0,0.0,6.8343,7.3276,7.687,7.8008,7.8831,7.9401,7.9568,7.669,7.4453,7.4542,7.4127,7.2496,0.0,0.0,0.0,0.0,0.0,0.0,0.0,0.0,0.0,0.0,0.0,0.0,0.0,0.0,0.0,0.0,0.0,0.0,0.0,0.0,0.0,0.0,0.0,0.0,0.0,0.0,0.0,4.5232,4.3303,0.0,0.0,0.0,0.0,0.0,0.0,0.0,0.0,0.0,0.0,0.0,5.5021,5.7214,0.0,0.0,0.0,0.0,0.0,0.0,0.0,0.0,0.0,0.0,0.0,0.0,6.0396,6.4589,6.8744,7.1168,7.1706,7.1206,7.009,6.8436,6.7552,6.4063,5.7638,0.0,0.0,0.0,0.0,0.0,0.0,0.0,0.0,0.0,0.0,0.0,0.0,0.0,0.0,0.0,0.0,0.0,0.0,0.0,0.0,0.0,0.0,0.0,0.0,0.0,4.8711,0.0,0.0,0.0,0.0,0.0,0.0,0.0,0.0,0.0,0.0,6.3881,6.8323,7.2803,7.5877,7.8246,7.9833,8.0265,8.0503,0.0,0.0,0.0,0.0,0.0,0.0,0.0,0.0,0.0,0.0,0.0,0.0,0.0,0.0,7.6328,6.6757,6.4214,6.3458,6.3149,0.0,0.0,0.0,0.0,0.0,0.0,0.0,0.0,0.0,0.0,0.0,0.0,0.0,0.0,5.0486,4.9251,4.802,0.0,0.0,0.0,0.0,0.0,0.0,0.0,0.0,5.8885,6.128,6.105,6.3243,6.3128,6.0962,5.9858,5.6857,0.0,0.0,0.0,0.0,0.0,0.0,0.0,0.0,6.0935,6.5397,6.9052,7.1168,7.1706,7.1168,7.009,6.8436,6.6974,6.3858,5.8946,5.6588,5.385,0.0,0.0,0.0,0.0,0.0,0.0,0.0,0.0,0.0,0.0,0.0,0.0,0.0,0.0,0.0,0.0,0.0,0.0,0.0,0.0,0.0,0.0,0.0,5.0,0.0,0.0,0.0,0.0,0.0,0.0,0.0,0.0,0.0,6.5273,6.8827,7.2961,7.7143,7.8669,7.9877,8.1058,0.0,0.0,0.0,0.0,0.0,0.0,0.0,7.6113,7.8026,7.6747,7.5924,7.7458,8.1215,8.3738,8.2574,0.0,0.0,7.4511,7.21,7.1528,7.1264,7.2434,7.3375,7.3093,7.4591,7.5635,0.0,0.0,0.0,0.0,5.4687,0.0,0.0,0.0,5.5134,5.5127,0.0,5.3469,0.0,0.0,0.0,0.0,5.0611,5.7722,0.0,0.0,6.6661,6.9369,6.8488,6.8475,6.85,6.85,6.8308,6.6205,6.1985,5.4895,0.0,0.0,0.0,0.0,0.0,0.0,6.132,6.4782,6.8859,7.0937,7.0937,7.0898,7.0129,6.8436,6.5974,6.3897,6.2216,6.05,5.8077,5.478,5.0644,0.0,0.0,0.0,0.0,0.0,0.0,0.0,0.0,0.0,0.0,0.0,0.0,0.0,0.0,0.0,0.0,0.0,0.0,0.0,0.0,5.0976,0.0,0.0,0.0,0.0,0.0,0.0,0.0,0.0,0.0,7.2003,7.0829,7.4079,7.7859,8.1103,0.0,0.0,0.0,0.0,8.0774,8.0899,7.967,7.9101,7.9844,8.125,8.1992,8.1406,0.0,0.0,8.3013,8.5843,8.7635,8.445,8.6826,8.8504,8.7105,8.3824,8.1994,8.261,8.1551,8.1091,8.1824,8.2279,8.2902,6.5295,0.0,0.0,0.0,0.0,6.2363,6.4198,6.6932,6.6017,6.4409,6.2329,6.1067,0.0,0.0,0.0,0.0,0.0,0.0,6.3398,6.5342,6.8501,7.0397,7.1129,7.1745,7.1745,7.1091,7.0475,6.9283,6.7475,6.4705,5.9396,5.1933,0.0,0.0,0.0,0.0,6.4512,6.7321,7.0283,7.1514,7.0898,7.0898,7.009,6.8423,6.6551,6.5013,6.3897,6.3037,6.1171,5.8192,5.5413,0.0,0.0,0.0,0.0,0.0,0.0,0.0,0.0,0.0,0.0,0.0,0.0,0.0,0.0,0.0,0.0,0.0,0.0,0.0,5.1758,5.2773,5.4175,0.0,0.0,0.0,0.0,0.0,0.0,0.0,0.0,0.0,7.9376,7.9861,8.0417,0.0,0.0,8.2356,8.1773,8.2022,8.2565,8.3341,8.3611,0.0,8.4257,8.3711,8.3984,8.6133,8.9062,9.0781,8.9763,9.1597,9.2924,9.1875,9.2655,9.3202,9.2679,8.9391,8.6809,8.6795,8.6799,8.6911,8.7176,8.7433,8.7199,7.3878,6.9171,6.6603,6.6619,6.8331,6.8759,7.0366,7.2689,7.2229,7.0961,6.925,6.8124,6.5319,6.135,5.9868,0.0,0.0,0.0,6.7534,6.9667,7.1334,7.256,7.3441,7.4309,7.427,7.343,7.2889,7.2192,7.138,7.0539,6.6574,5.9672,0.0,5.9819,6.0127,6.4051,6.7051,6.8936,7.1091,7.1783,7.0937,7.0645,6.9871,6.8521,6.7221,6.6044,6.5166,6.4803,6.3677,6.1577,5.9045,5.5892,0.0,0.0,0.0,0.0,0.0,0.0,0.0,0.0,0.0,0.0,0.0,4.9805,4.6601,0.0,0.0,0.0,5.1673,5.3881,5.6355,5.7947,0.0,0.0,0.0,0.0,0.0,0.0,0.0,7.6405,7.9481,8.2247,8.4763,8.4618,8.4211,8.3999,8.3789,8.3518,8.3014,0.0,8.3786,8.5183,8.5905,8.6616,8.7442,8.7068,8.75,8.9844,9.1797,9.3047,9.3164,9.457,9.5664,9.5703,9.5742,9.5703,9.5703,9.3429,9.1497,9.1184,9.1421,9.1574,9.1257,9.0901,9.0238,8.0664,7.9492,7.4627,7.3044,7.3713,7.4684,7.5078,7.5,7.5078,7.5382,7.5726,7.433,7.2179,6.951,6.7299,0.0,6.8789,7.1026,7.2441,7.3367,7.4772,7.5436,7.5461,7.6232,7.6193,7.5383,7.5383,7.4994,7.4177,7.3451,7.1868,6.9499,6.7647,6.6138,6.5137,6.7525,6.9246,7.0067,7.1569,7.1916,7.0953,7.0264,6.9556,6.8752,6.7861,6.692,6.5844,6.5858,6.5473,6.4484,6.166,5.876,5.6023,0.0,0.0,0.0,0.0,0.0,0.0,0.0,0.0,0.0,0.0,0.0,0.0,0.0,0.0,5.5702,5.7921,0.0,6.2704,6.5125,0.0,0.0,0.0,6.9923,7.1054,7.5862,7.9403,8.0315,0.0,0.0,8.7594,8.8286,8.8479,8.7709,8.617,8.5093,8.5016,8.4488,8.4688,8.635,8.6966,8.7911,8.9415,9.0414,9.1289,9.2226,9.3398,9.3984,9.4101,9.5429,9.6484,9.6601,9.6601,9.6601,9.6601,9.6406,9.6367,9.539,9.5234,9.4961,9.4023,9.3164,9.2265,8.1875,8.1562,8.0311,7.9177,7.8201,7.9101,7.9101,7.8555,7.918,7.8866,7.7809,7.7421,7.5819,7.3278,7.2695,7.2695,7.3125,7.4373,7.5294,7.5986,7.6349,7.6437,7.6317,7.6504,7.6504,7.631,7.6271,7.6193,7.5999,7.5811,7.504,7.3872,7.397,7.1994,6.8248,7.1101,7.2755,7.2949,7.3368,7.2854,7.1417,7.0542,6.9716,6.8854,6.8083,6.6827,6.5141,6.544,6.5082,6.3883,6.2703,6.0833,5.8107,5.3709,0.0,0.0,0.0,0.0,0.0,0.0,0.0,0.0,0.0,5.7617,5.0742,0.0,5.9838,0.0,6.1762,6.4337,6.622,6.807,0.0,0.0,7.5305,7.7213,8.1715,8.2378,8.3249,8.5341,8.6671,8.7902,8.9171,8.9479,8.9517,8.9286,8.7863,8.6555,8.594,8.5697,8.5998,8.7217,8.8235,8.9287,9.0495,9.1586,9.2344,9.2578,9.3867,9.4883,9.4883,9.6289,9.7422,9.7422,9.7422,9.7422,9.7383,9.7422,9.7344,9.7109,9.6601,9.5937,9.5078,9.4179,9.3164,8.3242,8.289,8.289,8.2109,8.0898,8.1367,8.1289,8.0898,8.1367,8.082,7.957,7.9219,7.8047,7.6367,7.6328,7.6328,7.6367,7.6836,7.7263,7.7636,7.7987,7.7888,7.745,7.745,7.7593,7.7822,7.7471,7.721,7.7145,7.7145,7.6716,7.5895,7.6364,7.5194,7.2578,7.4251,7.4955,7.4573,7.3826,7.2848,7.1627,7.0775,6.9728,6.8515,6.7657,6.6307,6.4443,6.466,6.4233,6.31,6.2465,6.1383,5.9657,5.6293,5.4147,0.0,0.0,0.0,0.0,0.0,0.0,0.0,0.0,0.0,0.0,0.0,6.3943,6.4422,6.7476,7.0244,7.2253,7.4668,7.7381,8.0481,8.1484,8.3162,8.6341,8.6863,8.7555,8.894,8.944,9.0017,9.0941,9.071,9.0479,9.0479,8.9363,8.8209,8.744,8.7248,8.76,8.8566,8.9382,9.0365,9.1516,9.2533,9.3164,9.332,9.4609,9.5781,9.582,9.6836,9.7695,9.7695,9.7695,9.7695,9.7695,9.7695,9.7695,9.7656,9.7344,9.6601,9.5469,9.4804,9.3984,8.4411,8.3667,8.3591,8.3124,8.242,8.2343,8.2304,8.2304,8.2304,8.1875,8.1133,8.0273,7.9453,7.8828,7.8711,7.8672,7.8672,7.8672,7.8633,7.8711,7.9374,7.9296,7.8631,7.859,7.8842,7.9314,7.8607,7.8119,7.7976,7.7976,7.7548,7.6777,7.6777,7.6699,7.6611,7.6594,7.6198,7.5324,7.3826,7.2667,7.194,7.112,6.9798,6.7971,6.7151,6.5751,6.3741,6.3945,6.36,6.2527,6.2225,6.1835,6.1301,5.9087,5.8139,0.0,5.8027,0.0,0.0,0.0,0.0,0.0,0.0,0.0,0.0,6.734,6.8726,7.0711,7.398,7.6855,7.8815,8.1977,8.4247,8.517,8.6709,8.7748,8.794,8.9863,9.121,9.121,9.1864,9.2326,9.221,9.1633,9.1171,9.1095,9.0517,8.9748,8.9171,8.8786,8.888,8.9787,9.039,9.1204,9.2304,9.3281,9.3828,9.4062,9.5273,9.6445,9.6445,9.7148,9.7695,9.7695,9.7695,9.7695,9.7695,9.7695,9.7695,9.7695,9.7656,9.7148,9.582,9.5234,9.4648,8.4425,8.4046,8.3541,8.3263,8.3074,8.2534,8.2304,8.2304,8.2304,8.2226,8.1992,8.1133,8.0664,8.0469,7.9805,7.9453,7.9492,7.9453,7.9453,7.9492,7.9467,7.9398,7.9239,7.9071,7.9033,7.9155,7.9,7.89,7.8863,7.8863,7.8396,7.7587,7.7587,7.7236,7.6628,0.0,0.0,0.0,7.4687,7.3822,7.3005,7.2185,7.0468,6.8029,6.7754,0.0,6.288,6.471,6.5123,6.3521,6.5178,0.0,0.0,0.0,0.0,0.0,0.0,0.0,0.0,0.0,0.0,0.0,6.9501,6.8066,6.7581,7.2909,7.635,7.6204,7.9657,8.1847,8.1647,8.4016,8.5978,8.6863,8.8402,8.971,9.0402,9.0941,9.121,9.121,9.1364,9.1479,9.1556,9.1287,9.121,9.1248,9.1056,9.0902,9.0748,8.9594,8.9056,8.9816,9.0919,9.1866,9.2496,9.3359,9.4062,9.4101,9.5351,9.6445,9.6601,9.7187,9.7695,9.7695,9.7695,9.7695,9.7695,9.7695,9.7695,9.7695,9.7695,9.7422,9.6445,9.5703,9.4883,8.5459,8.4801,8.4195,8.3701,0.0,8.2571,8.2304,8.2304,8.2304,8.2304,8.2265,8.1836,8.1326,8.084,8.041,8.0119,8.0041,8.0041,8.0041,8.0076,8.0368,8.029,7.9901,7.9771,7.9904,8.0214,7.9787,7.9562,7.9459,7.9459,7.8994,7.8154,7.8154,7.7728,7.6964,7.6633,7.6101,7.5457,7.5135,7.4535,7.3637,7.2388,7.0883,6.9109,6.8174,0.0,0.0,0.0,0.0,0.0,0.0,0.0,0.0,0.0,0.0,6.759,6.7667,6.8398,7.009,7.0975,7.2591,7.513,7.5707,7.5102,7.3126,7.7628,8.0712,8.1161,8.3072,8.4401,8.4824,8.6363,8.7709,8.8556,8.9787,9.0748,9.1171,9.1595,9.1825,9.1825,9.1825,9.1979,9.2364,9.2056,9.1864,9.1825,9.1825,9.1825,9.1748,9.0748,9.0174,9.0815,9.1795,9.2692,9.3242,9.4375,9.5156,9.5351,9.625,9.6992,9.7109,9.7422,9.7695,9.7695,9.7695,9.7695,9.7695,9.7695,9.7578,9.7265,9.7422,9.7422,9.6679,9.6133,9.5586,8.6466,8.5573,8.4968,8.4295,8.3566,8.2933,8.2567,8.2412,8.2343,0.0,0.0,8.2264,8.174,8.0934,8.0874,8.0764,8.0629,8.0622,8.0622,8.066,8.1329,8.1273,8.0604,8.0521,8.0824,8.1296,8.0614,8.0188,8.0015,8.0015,7.9592,7.8784,7.8707,7.8246,7.7314,7.6739,7.6133,7.5444,7.5331,7.4972,7.4226,7.2748,7.1442,7.0394,6.8987,6.7728,6.671,6.6935,6.6791,6.6185,6.6397,6.7112,6.8385,6.9283,7.1014,7.3745,7.5361,7.6361,7.6669,7.7938,7.8515,7.7977,8.0169,8.1016,7.9708,8.1554,8.3401,8.4978,8.5093,8.5747,8.7248,8.8171,8.9017,8.9825,9.0671,9.1171,9.1248,9.1787,9.2172,9.2287,9.221,9.2479,9.2979,9.2556,9.2287,9.2249,9.2133,9.2364,9.2382,9.1874,9.1653,9.2325,9.2883,9.3398,9.4179,9.5351,9.6406,9.6367,9.707,9.7656,9.7695,9.7578,9.75,9.7422,9.7461,9.7461,9.75,9.7578,9.7383,9.6679,9.7109,9.7461,9.6719,9.6601,9.6445,8.6352,8.5953,8.5371,8.5037,8.4904,8.4224,8.3538,8.2909,8.2478,8.2304,8.2304,8.2118,8.1964,8.1789,8.1636,8.1555,8.1524,8.1524,8.1524,8.1517,8.1475,8.1398,8.1259,8.1103,8.1036,8.1146,8.1015,8.0946,8.09,8.09,8.0477,7.9708,7.9592,7.8861,7.7414,7.7189,7.6731,7.5914,7.5517,7.5245,7.5089,7.4155,7.2827,7.1165,7.0835,6.9871,6.8229,6.9489,7.0542,7.1158,7.2544,7.3402,7.363,7.4361,7.5168,7.5668,7.6592,7.7746,7.9131,7.9477,7.99,8.0592,8.2247,8.3439,8.3978,8.4324,8.4939,8.5824,8.5901,8.6324,8.7325,8.8171,8.9017,8.9825,9.0671,9.121,9.121,9.1325,9.1441,9.1441,9.1364,9.1441,9.171,9.1595,9.1556,9.1441,9.1748,9.1748,9.2494,9.2581,9.3013,9.3697,9.3666,9.3959,9.4804,9.582,9.6445,9.6484,9.7148,9.7617,9.7461,9.7109,9.6758,9.6679,9.6758,9.6758,9.6797,9.7265,9.7265,9.6719,9.7109,9.7344,9.6562,9.6875,9.7109,8.6346,8.6043,8.5421,8.5216,8.5125,8.4476,8.3726,8.3003,8.2775,8.2405,8.1976,8.1878,8.1792,8.1687,8.1582,8.148,8.1371,8.1371,8.1371,8.1359,8.1285,8.1242,8.1228,8.1146,8.1093,8.1093,8.1093,8.1093,8.1093,8.1093,8.09,8.0477,8.0054,7.94,7.8707,7.8169,7.7746,7.7337,7.625,7.5669,7.5669,7.4807,7.4197,7.3793,7.3356,7.2945,7.2552,7.3245,7.386,7.4245,7.4976,7.563,7.6092,7.6899,7.7553,7.8054,7.8861,7.9669,8.0439,8.0516,8.0862,8.1708,8.2901,8.3978,8.4824,8.5324,8.5709,8.6055,8.6094,8.6478,8.7325,8.8171,8.9017,8.9825,9.0671,9.1171,9.121,9.121,9.121,9.121,9.121,9.1402,9.1864,9.1902,9.1902,9.1941,9.221,9.2826,9.369,9.4003,9.4136,9.4273,9.4377,9.4768,9.541,9.6217,9.6495,9.6183,9.6901,9.704,9.65,9.6163,9.6484,9.6484,9.6484,9.6679,9.6992,9.7422,9.7304,9.6758,9.6719,9.6679,9.6133,9.6133,9.6328,8.6274,8.6049,8.5608,8.5409,8.5359,8.4865,8.4067,8.3184,8.3136,8.2563,8.165,8.1618,8.1543,8.1418,8.1335,8.1269,8.1124,8.1093,8.1093,8.1093,8.1093,8.1093,8.1093,8.1093,8.1093,8.1093,8.1093,8.1093,8.1093,8.1093,8.1093,8.1016,8.0439,8.0015,7.9785,7.9131,7.8707,7.8438,7.7246,7.6553,7.6515,7.5899,7.5899,7.6438,7.5899,7.5899,7.6515,7.6553,7.6669,7.6861,7.6861,7.7246,7.8092,7.8746,7.94,8.0092,8.0708,8.1093,8.1093,8.1093,8.1362,8.1977,8.2824,8.3555,8.4286,8.5247,8.594,8.6055,8.6094,8.644,8.7286,8.7979,8.8786,8.9787,9.0479,9.0941,9.1133,9.121,9.121,9.121,9.121,9.1479,9.2018,9.221,9.2249,9.2479,9.321,9.4018,9.4803,9.5252,9.523,9.4902,9.4962,9.5251,9.5613,9.5979,9.6075,9.5503,9.6069,9.599,9.5242,9.5469,9.5859,9.5937,9.6133,9.6445,9.7187,9.7578,9.7344,9.6719,9.6562,9.6289,9.5508,9.5312,9.5664,8.6126,8.6094,8.6027,8.6027,8.5983,8.5899,8.4967,8.3618,8.3526,8.2625,8.1249,8.1361,8.1441,8.1371,8.12,8.11,8.1093,8.1093,8.1077,8.1077,8.1093,8.1093,8.1007,8.1061,8.1093,8.1077,8.1077,8.1061,8.1093,8.1093,8.1093,8.1093,8.1016,8.0592,7.99,7.9746,7.9323,7.853,7.8361,7.8284,7.8284,7.8207,7.8207,7.8246,7.8169,7.8184,7.8231,7.8284,7.8631,7.9361,7.9369,7.9808,8.0538,8.0785,8.0862,8.0923,8.1054,8.1093,8.1093,8.1093,8.117,8.1246,8.2016,8.2516,8.267,8.4093,8.5324,8.5863,8.6055,8.6478,8.7248,8.7495,8.8226,8.9645,8.9996,9.0325,9.1018,9.121,9.121,9.121,9.1133,9.1248,9.1364,9.1441,9.171,9.2402,9.3095,9.3864,9.469,9.5399,9.5798,9.5671,9.5246,9.4882,9.537,9.5075,9.4825,9.4611,9.4704,9.4652,9.438,9.4061,9.4033,9.4962,9.5186,9.5625,9.6445,9.7109,9.7344,9.6719,9.6406,9.6211,9.5429,9.5039,9.5547,8.6094,8.6094,8.6094,8.6094,8.6094,8.6094,8.5132,8.3632,8.3593,8.2631,8.1224,8.1196,8.1214,8.1214,8.1131,8.1093,8.1093,8.1093,8.0871,8.0517,8.0499,8.0353,8.0007,7.9987,8.0125,8.0481,8.0499,8.0733,8.1023,8.1093,8.1093,8.1093,8.1093,8.09,8.0592,8.0554,8.0362,8.0054,8.0015,8.0015,7.99,7.903,7.8746,7.9177,7.893,7.8968,7.9354,7.9114,7.9073,7.9396,7.9434,7.9606,7.9949,8.0296,8.0499,8.0555,8.1332,8.1593,8.1131,8.1554,8.1593,8.1131,8.1862,8.2285,8.2362,8.3439,8.4478,8.5286,8.5824,8.6329,8.6814,8.7163,8.7924,8.9139,8.9668,9.0248,9.1095,9.0748,9.0594,9.1056,9.0748,9.0671,9.1056,9.121,9.1595,9.2287,9.2826,9.3326,9.4095,9.4557,9.4711,9.4631,9.3894,9.3969,9.4815,9.4568,9.3925,9.3565,9.3865,9.409,9.3003,9.3366,9.3665,9.4016,9.4319,9.4804,9.5586,9.6367,9.6836,9.6406,9.5937,9.5586,9.5273,9.4375,9.4531,8.6324,8.6132,8.6094,8.6094,8.6094,8.6094,8.5132,8.3708,8.3593,8.267,8.117,8.1093,8.1093,8.1093,8.1093,8.1093,8.1077,8.0888,8.0591,8.0125,7.9929,7.9621,7.9221,7.9198,7.9425,7.9827,8.0028,8.0463,8.1007,8.1093,8.1093,8.1093,8.1093,8.1093,8.1093,8.1093,8.1093,8.1093,8.1093,8.1007,8.0663,7.961,7.9226,7.9752,7.9305,7.9259,7.9809,7.9425,7.9198,7.9198,7.9198,7.9198,7.9221,7.9621,7.9929,8.022,8.15,8.1939,8.117,8.1862,8.1939,8.1285,8.1823,8.2324,8.2439,8.3093,8.3824,8.4478,8.5478,8.6231,8.6494,8.6847,8.7496,8.8519,8.9185,8.9902,9.0671,9.0402,9.0556,9.1018,9.0748,9.0479,9.1056,9.121,9.1518,9.2326,9.2518,9.2787,9.348,9.3749,9.3749,9.3672,9.3036,9.3036,9.4018,9.3491,9.2766,9.2624,9.289,9.2858,9.1796,9.265,9.3348,9.3556,9.3737,9.4258,9.5234,9.5937,9.6289,9.6015,9.5508,9.4804,9.4297,9.332,9.3437,8.6863,8.6132,8.6094,8.6094,8.6094,8.6094,8.5132,8.3593,8.3593,8.267,8.1208,8.1093,8.1093,8.1093,8.1093,8.1093,8.1007,8.0481,8.0163,7.9989,7.9491,7.9221,7.9198,7.9198,7.9198,7.9358,7.9768,8.0427,8.1061,8.1093,8.1093,8.1093,8.1093,8.1093,8.1093,8.1093,8.1093,8.1093,8.1093,8.0838,8.0296,8.0068,7.9992,7.9991,7.9502,7.9214,7.9244,7.9221,7.9175,7.9175,7.9105,7.9152,7.9175,7.9236,7.9507,8.0142,8.1521,8.2,8.1369,8.1962,8.2054,8.14,8.1939,8.2324,8.2362,8.3093,8.367,8.3747,8.517,8.6115,8.6429,8.6384,8.6709,8.7719,8.839,8.9167,8.994,9.0594,9.1056,9.1171,9.1095,9.1056,9.1171,9.121,9.1556,9.2172,9.2441,9.2672,9.321,9.3518,9.348,9.3364,9.2903,9.2518,9.2556,9.2315,9.1769,9.1721,9.1953,9.1861,9.1947,9.2178,9.2724,9.317,9.3415,9.4023,9.5,9.5547,9.5742,9.5469,9.4726,9.4062,9.3789,9.3008,9.3008,8.6901,8.6132,8.6094,8.6094,8.6094,8.6094,8.5132,8.3632,8.3593,8.267,8.1285,8.1093,8.1093,8.1093,8.1093,8.1093,8.1045,8.0427,7.9908,7.9491,7.8889,7.8405,7.8007,7.7979,7.8473,7.9152,7.9425,8.0066,8.0991,8.1093,8.1093,8.1093,8.1093,8.1093,8.1093,8.1093,8.1093,8.1093,8.1093,8.0975,8.0698,8.0333,8.0125,8.0086,7.9513,7.901,7.8628,7.8602,7.8458,7.8007,7.7979,7.7979,7.8072,7.889,7.9654,8.0378,8.2202,8.295,8.2375,8.3274,8.3324,8.2093,8.2631,8.2901,8.2593,8.3093,8.3824,8.4439,8.4901,8.5629,8.6285,8.6268,8.6539,8.755,8.8274,8.8979,8.971,9.021,9.0556,9.1018,9.121,9.121,9.121,9.121,9.1325,9.1595,9.1672,9.1864,9.1979,9.2095,9.221,9.2095,9.1864,9.1672,9.1672,9.1647,9.1469,9.1554,9.1692,9.1838,9.1918,9.2093,9.2563,9.2573,9.2876,9.3164,9.3906,9.4375,9.4687,9.5156,9.4375,9.3672,9.3515,9.2929,9.2773,8.7055,8.6517,8.6209,8.6094,8.6094,8.6094,8.5132,8.367,8.3593,8.267,8.1285,8.1093,8.1093,8.1093,8.1093,8.1093,8.1007,8.0389,7.9785,7.9175,7.8588,7.7932,7.7396,7.731,7.7838,7.884,7.9335,8.0066,8.0975,8.1093,8.1093,8.1093,8.1093,8.1093,8.1093,8.1093,8.1093,8.1093,8.1093,8.0991,8.075,8.0333,7.9989,7.9827,7.9578,7.9198,7.8602,7.8576,7.8272,7.7739,7.7629,7.762,7.7837,7.9109,8.009,8.0668,8.2422,8.321,8.2564,8.3503,8.3695,8.2591,8.3145,8.3466,8.3176,8.367,8.4286,8.4786,8.5209,8.5583,8.5835,8.6023,8.6424,8.7215,8.7889,8.8611,8.9402,8.9748,9.0325,9.0979,9.121,9.121,9.121,9.121,9.121,9.121,9.121,9.121,9.121,9.121,9.121,9.121,9.1287,9.1287,9.1356,9.1408,9.1431,9.1541,9.1602,9.1752,9.1958,9.2117,9.2198,9.2123,9.2167,9.232,9.2642,9.3151,9.3789,9.4531,9.4023,9.3203,9.3086,9.2969,9.2812,8.7274,8.7009,8.6423,8.5954,8.5937,8.5971,8.5099,8.3775,8.3632,8.2708,8.1362,8.1131,8.1093,8.1093,8.1093,8.1093,8.0975,8.0481,7.9847,7.9175,7.8551,7.796,7.7304,7.7273,7.7739,7.8536,7.9556,8.0445,8.1077,8.1093,8.1093,8.1093,8.1093,8.1093,8.1093,8.1093,8.1093,8.1093,8.1093,8.0822,8.0201,8.0182,7.9929,7.9469,7.9747,7.9765,7.9198,7.9198,7.8889,7.8336,7.8228,7.8396,7.8547,7.9792,8.0665,8.0823,8.2083,8.2446,8.1942,8.2666,8.3149,8.2868,8.3483,8.4175,8.4511,8.4786,8.4939,8.5132,8.5555,8.5857,8.5357,8.5725,8.6238,8.6519,8.7164,8.788,8.8594,8.9402,9.021,9.0864,9.1056,9.1171,9.121,9.121,9.121,9.121,9.1095,9.1018,9.0941,9.0864,9.1018,9.1095,9.0979,9.0902,9.1132,9.1346,9.1441,9.1502,9.1565,9.1689,9.1958,9.2139,9.2208,9.2188,9.2149,9.2295,9.2585,9.3008,9.3125,9.3554,9.2969,9.2812,9.2773,9.2734,9.2695,8.5735,8.5203,8.4914,8.48,8.4866,8.524,8.4787,8.3849,8.3636,8.2978,8.1977,8.1323,8.1093,8.1093,8.1093,8.1077,8.1077,8.0838,8.0221,7.9221,7.8551,7.796,7.7426,7.7304,7.7875,7.8962,8.0201,8.0871,8.1061,8.1093,8.1093,8.1093,8.1093,8.1093,8.1093,8.1093,8.1093,8.1093,8.1093,8.0975,8.0822,8.0767,8.0463,7.9929,7.9989,7.9789,7.9267,7.96,7.9313,7.8389,7.8309,7.8127,7.8099,7.9204,8.0057,8.0302,8.2015,8.3039,8.2832,8.3326,8.3602,8.368,8.4261,8.4729,8.4972,8.5401,8.567,8.5709,8.5978,8.594,8.5824,8.594,8.6137,8.6208,8.6945,8.7478,8.794,8.8671,8.9363,9.0133,9.0325,9.0556,9.1056,9.121,9.121,9.1133,9.0748,9.0441,9.0325,9.0056,8.9787,9.0133,9.0248,9.0594,9.0851,9.1149,9.1307,9.1397,9.1514,9.159,9.1875,9.2105,9.2144,9.2221,9.2221,9.2307,9.2596,9.2773,9.289,9.289,9.2734,9.2656,9.2617,9.2578,9.2578,8.5109,8.4656,8.4317,8.4203,8.4228,8.4628,8.4437,8.392,8.379,8.3176,8.2292,8.1785,8.1228,8.0843,8.0733,8.0591,8.0427,8.039,7.9865,7.8986,7.8804,7.8173,7.751,7.7846,7.8341,7.9267,8.0481,8.1093,8.1093,8.1093,8.1093,8.1093,8.1093,8.1093,8.1093,8.1093,8.1093,8.1077,8.0855,8.0733,8.066,8.0481,8.0201,7.9827,7.9785,7.9708,7.9622,7.9746,7.9313,7.8506,7.836,7.8411,7.8694,7.9727,8.0351,8.0919,8.1889,8.2786,8.2846,8.3086,8.3688,8.3991,8.4497,8.4971,8.5309,8.5901,8.6055,8.6094,8.6094,8.6094,8.6094,8.6094,8.6094,8.6094,8.6555,8.7171,8.7748,8.8632,8.9517,9.021,9.0441,9.0671,9.1018,9.121,9.121,9.1095,9.0748,9.0364,9.021,8.9748,8.971,8.9748,8.9979,9.0287,9.0633,9.0902,9.1171,9.1281,9.1392,9.1488,9.1678,9.1926,9.2068,9.2212,9.2237,9.2287,9.25,9.2578,9.2695,9.2617,9.2578,9.2578,9.2578,9.2578,9.2578,8.5248,8.5097,8.4381,8.3979,8.3979,8.4104,8.4004,8.3866,8.3801,8.3219,8.2472,8.2148,8.1415,8.0373,8.0257,7.9941,7.9335,7.9358,7.9147,7.8803,7.8828,7.8517,7.754,7.8464,7.9064,7.9358,8.0409,8.1029,8.1093,8.1093,8.1093,8.1093,8.1093,8.117,8.1208,8.117,8.11,8.1063,8.0483,8.0163,8.0028,7.9578,7.9297,7.9288,7.934,7.9585,8.0004,7.969,7.9091,7.8495,7.8589,7.916,8.0461,8.0938,8.1232,8.1782,8.2145,8.2284,8.2219,8.2339,8.2839,8.3903,8.4201,8.4711,8.5624,8.5967,8.6094,8.6094,8.6094,8.6094,8.6094,8.6094,8.6094,8.6132,8.6363,8.7055,8.8402,8.921,8.9863,9.0671,9.1095,9.1133,9.1133,9.121,9.121,9.1171,9.1018,9.0787,9.0441,8.9863,8.9787,8.9787,8.971,9.0248,9.0671,9.0941,9.121,9.1224,9.1313,9.1392,9.1541,9.1752,9.2087,9.2221,9.2343,9.2351,9.2422,9.2539,9.2578,9.2578,9.2578,9.2578,9.2578,9.2578,9.2578,8.3553,8.2998,8.2813,8.2739,8.2793,8.3246,8.3458,8.3359,8.327,8.3059,8.2662,8.2049,8.1268,8.0371,8.0273,7.9917,7.9265,7.9152,7.9241,7.9237,7.9327,7.8611,7.7857,7.874,7.9379,7.9395,8.0139,8.0608,8.1077,8.1138,8.1115,8.1093,8.117,8.1439,8.1823,8.1385,8.1222,8.1172,8.0469,7.9847,7.9447,7.9267,7.9301,7.9385,7.9396,7.9576,7.9941,7.9779,7.9529,7.9186,7.8758,7.9029,8.0167,8.0755,8.1195,8.1452,8.1893,8.2186,8.2186,8.2186,8.2616,8.3387,8.3876,8.4537,8.53,8.5828,8.606,8.6094,8.6094,8.6094,8.6094,8.6094,8.6094,8.617,8.6671,8.7248,8.7825,8.8479,8.9325,9.0094,9.0325,9.0633,9.1056,9.121,9.121,9.1133,9.0787,9.0287,9.0094,8.9633,8.9402,8.9363,8.944,9.0171,9.071,9.1018,9.121,9.121,9.1224,9.1275,9.1427,9.1649,9.2061,9.2395,9.2448,9.2492,9.25,9.2578,9.2578,9.2578,9.2578,9.2578,9.2578,9.2578,9.2578,8.2957,8.2186,8.2186,8.2186,8.2251,8.2616,8.2935,8.3172,8.3083,8.2987,8.2785,8.2395,8.1344,8.0105,8.0005,7.9376,7.8495,7.8394,7.8674,7.922,7.9808,7.9459,7.8903,7.9546,7.9941,7.9917,8.0424,8.1113,8.1551,8.1371,8.1321,8.16,8.1593,8.1862,8.2192,8.1611,8.1283,8.1135,8.0119,7.9152,7.8853,7.8525,7.8692,7.9006,7.9134,7.9275,7.9748,8.0364,8.0556,8.0156,7.983,7.9984,8.0718,8.1232,8.1525,8.1525,8.1966,8.2186,8.2186,8.2186,8.2528,8.3074,8.3586,8.4417,8.5317,8.5743,8.5795,8.6599,8.6308,8.6132,8.6094,8.6094,8.6286,8.6709,8.744,8.794,8.794,8.8748,8.9556,9.0171,9.0479,9.0594,9.1171,9.1171,9.121,9.1133,9.0902,9.0479,9.0094,8.9517,8.9094,8.9133,8.9325,8.9979,9.0441,9.071,9.1171,9.121,9.121,9.1227,9.1385,9.1592,9.1934,9.2287,9.245,9.2578,9.2578,9.2578,9.2578,9.2578,9.2578,9.2578,9.2578,9.2578,9.2578,8.2994,8.2186,8.2186,8.2186,8.2186,8.2219,8.256,8.2994,8.3008,8.2939,8.2782,8.2811,8.1607,7.9689,7.9958,7.8949,7.758,7.7768,7.8192,7.9123,8.0189,8.064,8.0184,8.0348,8.0562,8.0617,8.1256,8.1725,8.1939,8.1606,8.1652,8.1913,8.2075,8.2182,8.2008,8.1538,8.1266,8.0743,7.9365,7.8469,7.8173,7.7834,7.8056,7.8983,7.9651,7.9946,8.0597,8.1429,8.1986,8.1396,8.1203,8.1418,8.2086,8.2242,8.215,8.2113,8.215,8.2223,8.2333,8.2476,8.2697,8.3314,8.355,8.4202,8.5682,8.5871,8.6125,8.6903,8.6599,8.6401,8.6363,8.6363,8.6709,8.7325,8.8132,8.8748,8.8863,8.9479,9.0364,9.1056,9.1171,9.1171,9.121,9.121,9.121,9.121,9.0979,9.0671,9.0441,9.0171,8.9594,8.9171,8.944,8.9825,9.0133,9.0402,9.0864,9.121,9.121,9.1224,9.1331,9.1592,9.1858,9.2105,9.2212,9.2387,9.25,9.25,9.2539,9.2578,9.2578,9.2578,9.2578,9.2578,9.2578,8.3508,8.2186,8.2186,8.2186,8.2186,8.2186,8.2316,8.2434,8.2434,8.2499,8.2388,8.2382,8.1699,8.0634,8.0518,7.9816,7.8442,7.8405,7.8772,7.9653,8.1195,8.1819,8.1521,8.1229,8.0866,8.086,8.0851,8.1255,8.1613,8.1778,8.1597,8.1717,8.1832,8.1777,8.1685,8.099,8.0372,7.9829,7.8789,7.809,7.7806,7.7604,7.8075,7.9496,8.1118,8.2148,8.2508,8.3276,8.3613,8.3292,8.2547,8.2272,8.2698,8.2497,8.2288,8.2296,8.226,8.248,8.2994,8.3177,8.3464,8.4129,8.4589,8.528,8.5667,8.6568,8.6676,8.6852,8.6849,8.7043,8.7171,8.7748,8.7825,8.794,8.8748,8.9363,8.9133,9.0017,9.0902,9.1133,9.121,9.121,9.121,9.1118,9.1136,9.1192,9.1003,9.0829,9.0678,9.0508,8.9988,8.9281,8.9962,9.0346,9.0248,9.0517,9.0902,9.121,9.121,9.1171,9.1338,9.1417,9.1684,9.183,9.195,9.2111,9.2284,9.2304,9.2304,9.2422,9.2539,9.25,9.2461,9.25,9.25,8.4242,8.281,8.2774,8.2553,8.2223,8.2186,8.2375,8.2616,8.2678,8.2678,8.2678,8.2678,8.2054,8.1048,8.0975,8.0277,7.9507,7.958,7.9947,8.0571,8.1636,8.215,8.215,8.1819,8.1487,8.1414,8.1414,8.1743,8.2131,8.1904,8.1683,8.1641,8.1616,8.142,8.1089,8.038,8.0151,7.9844,7.8581,7.7954,7.8357,7.8112,7.8699,8.0325,8.2119,8.3189,8.3172,8.4116,8.4499,8.4423,8.3885,8.3284,8.3163,8.2883,8.2707,8.2766,8.2774,8.3141,8.3728,8.3985,8.4132,8.4572,8.4995,8.5522,8.5887,8.6583,8.7027,8.7318,8.754,8.7579,8.7983,8.8325,8.844,8.8825,8.9325,8.9825,9.0017,9.0671,9.121,9.121,9.121,9.121,9.1154,9.0934,9.0704,9.0566,9.0089,8.9898,9.0045,8.9871,8.9837,8.9707,9.0547,9.0885,9.0633,9.071,9.1018,9.121,9.121,9.121,9.1236,9.1338,9.1417,9.1604,9.1781,9.191,9.2068,9.2042,9.2054,9.2148,9.2226,9.2265,9.2265,9.2226,9.2187,8.4756,8.3398,8.3287,8.281,8.226,8.2186,8.2591,8.3132,8.3189,8.3103,8.3189,8.3189,8.2392,8.1465,8.1269,8.0755,8.0277,8.0314,8.0534,8.1012,8.1525,8.1966,8.2076,8.2145,8.2072,8.2186,8.21,8.24,8.2572,8.2384,8.1951,8.1806,8.1582,8.1278,8.0603,7.9941,7.9856,8.0056,7.8876,7.8462,7.9355,7.9097,7.9643,8.1114,8.259,8.3433,8.3651,8.43,8.4872,8.4957,8.502,8.4452,8.3704,8.3384,8.3432,8.3574,8.3581,8.3985,8.4609,8.4792,8.4829,8.4903,8.5046,8.5599,8.6437,8.6639,8.7039,8.7661,8.8058,8.8192,8.8756,8.921,8.9479,8.971,8.994,9.0402,9.0825,9.1095,9.121,9.1192,9.0971,9.0781,9.0626,9.0406,9.0138,8.9855,8.9402,8.9122,8.9213,8.9375,8.9406,8.9428,9.0029,9.0588,9.0417,9.079,9.1098,9.121,9.121,9.121,9.121,9.1236,9.1338,9.1427,9.1579,9.1728,9.1792,9.1821,9.183,9.1839,9.1918,9.2054,9.2026,9.1893,9.1901,8.4242,8.3361,8.27,8.2296,8.2223,8.2223,8.2665,8.3132,8.3264,8.3189,8.3189,8.3189,8.2749,8.2123,8.1966,8.1525,8.0865,8.0645,8.0608,8.1012,8.1379,8.1636,8.215,8.2186,8.2186,8.2186,8.2186,8.2311,8.2407,8.2191,8.2037,8.1926,8.1434,8.0984,8.0681,8.0192,7.9872,8.0288,7.951,7.9501,8.0045,8.0149,8.0449,8.188,8.3276,8.389,8.3979,8.4179,8.4349,8.441,8.4828,8.4651,8.4306,8.4189,8.4369,8.4318,8.4422,8.4756,8.5453,8.56,8.5967,8.6407,8.6444,8.6481,8.6963,8.7302,8.7436,8.7592,8.8346,8.8953,8.964,9.0171,9.0287,9.0325,9.0441,9.071,9.0517,9.0787,9.1171,9.1192,9.0762,9.0262,9.0051,8.9763,8.9451,8.9161,8.8856,8.8636,8.8719,8.8899,8.9086,8.9125,8.9251,8.974,9.004,9.0666,9.1118,9.1192,9.121,9.121,9.121,9.121,9.1253,9.1338,9.1346,9.1412,9.15,9.1566,9.1626,9.1684,9.1801,9.1849,9.1801,9.1695,9.1781,8.5123,8.4058,8.4022,8.3581,8.2994,8.3287,8.3551,8.3773,8.3823,8.3599,8.3264,8.3161,8.2823,8.2343,8.2186,8.1929,8.1562,8.1269,8.1269,8.1599,8.1636,8.1782,8.2186,8.2186,8.2186,8.2186,8.2186,8.2186,8.2186,8.2219,8.2003,8.1558,8.1158,8.0828,8.0388,8.001,8.0272,8.0536,8.0303,8.0634,8.1838,8.196,8.2398,8.278,8.3778,8.4429,8.4276,8.456,8.449,8.4396,8.4762,8.4901,8.5091,8.5487,8.5746,8.5324,8.5271,8.5597,8.6258,8.6444,8.6628,8.6885,8.7031,8.7031,8.7064,8.7251,8.7644,8.8157,8.8796,8.9814,9.0503,9.0944,9.0941,9.0787,9.1018,9.1018,9.0825,9.1018,9.1192,9.1254,9.0701,9.0143,8.95,8.9148,8.8719,8.8446,8.8279,8.8182,8.8153,8.8359,8.8551,8.8663,8.8774,8.9339,8.9809,9.0346,9.1008,9.1136,9.121,9.121,9.121,9.121,9.121,9.1241,9.1258,9.1253,9.1264,9.1361,9.1455,9.1514,9.1514,9.1527,9.1514,9.1527,9.1579,8.593,8.4682,8.527,8.4719,8.3654,8.4058,8.4363,8.4376,8.4166,8.3595,8.292,8.2824,8.2276,8.1742,8.1748,8.1915,8.2117,8.2003,8.1893,8.2039,8.1893,8.1929,8.215,8.2186,8.2186,8.2186,8.2186,8.2186,8.2186,8.2186,8.1819,8.1489,8.1195,8.0865,8.0461,8.0351,8.1064,8.1242,8.1077,8.1734,8.3206,8.3876,8.3746,8.3303,8.419,8.4429,8.4276,8.4129,8.4141,8.4154,8.4519,8.5015,8.5545,8.6776,8.7108,8.6479,8.6419,8.6819,8.7165,8.7224,8.7317,8.7646,8.7197,8.7132,8.7163,8.7328,8.7517,8.8691,8.9263,8.9779,9.0291,9.1011,9.1067,9.1066,9.1313,9.1672,9.1595,9.1675,9.1814,9.1529,9.0801,9.0075,8.9415,8.8359,8.7923,8.783,8.7646,8.7586,8.7549,8.7709,8.7892,8.8039,8.8359,8.9069,8.9535,8.9946,9.0626,9.1136,9.1192,9.121,9.121,9.121,9.121,9.121,9.121,9.1206,9.1171,9.1056,9.1088,9.1098,9.1125,9.1202,9.1345,9.1322,9.1354,8.5416,8.4609,8.4719,8.4205,8.3508,8.3581,8.3888,8.4265,8.3632,8.2742,8.1801,8.1668,8.0903,8.0184,8.0695,8.1405,8.1769,8.1672,8.1709,8.2039,8.1672,8.1709,8.2113,8.2186,8.2186,8.2186,8.2186,8.2186,8.2247,8.2247,8.2215,8.1953,8.148,8.1264,8.1681,8.1149,8.1333,8.198,8.1985,8.2118,8.2579,8.314,8.3359,8.3303,8.3488,8.3772,8.3928,8.357,8.3103,8.3433,8.3979,8.4692,8.5472,8.6776,8.7873,8.8349,8.8646,8.8743,8.8663,8.8249,8.8076,8.8123,8.7709,8.7489,8.7427,8.7295,8.7361,8.8076,8.8426,8.8829,8.9663,9.0609,9.0749,9.1291,9.1912,9.2409,9.2538,9.2479,9.2601,9.1962,9.1254,9.0228,8.9348,8.8151,8.7095,8.7098,8.7064,8.7066,8.7176,8.7486,8.7398,8.7554,8.8046,8.8719,8.9364,8.9786,9.0426,9.11,9.1154,9.1171,9.121,9.121,9.121,9.121,9.121,9.0941,9.0594,9.0517,9.0633,9.0748,9.0825,9.1018,9.1189,9.121,9.1171,8.5747,8.4646,8.5086,8.4535,8.3544,8.3875,8.3962,8.364,8.2806,8.1894,8.1013,8.0334,7.9963,8.0069,8.1054,8.1748,8.208,8.1782,8.1819,8.2076,8.1856,8.1856,8.2113,8.2186,8.2186,8.2251,8.2251,8.2497,8.2528,8.2434,8.2343,8.2634,8.2139,8.2065,8.2554,8.2044,8.2202,8.2689,8.3016,8.2906,8.2678,8.3103,8.357,8.3246,8.3515,8.3677,8.3543,8.3651,8.2965,8.3161,8.3824,8.4627,8.5318,8.6735,8.8424,8.8711,8.9779,8.984,8.9199,8.8829,8.8691,8.8446,8.7954,8.7651,8.7526,8.7265,8.7295,8.8046,8.8107,8.8426,8.9033,9.0108,9.0651,9.1292,9.2215,9.2831,9.316,9.3385,9.3254,9.2491,9.1634,9.0487,8.9413,8.8381,8.7426,8.7029,8.7174,8.7321,8.7543,8.7906,8.7573,8.7132,8.7709,8.8417,8.9084,8.9693,9.0406,9.0989,9.1115,9.1133,9.1171,9.121,9.1056,9.1133,9.121,9.0787,9.0133,9.0056,9.0325,9.0441,9.0556,9.0633,9.071,9.1133,9.1133,8.6077,8.4719,8.5453,8.4976,8.3765,8.4168,8.3948,8.3334,8.2385,8.1418,8.051,7.9614,7.9652,8.0514,8.1336,8.1748,8.2186,8.2186,8.2186,8.2186,8.2186,8.215,8.2284,8.2279,8.2497,8.2465,8.2853,8.3082,8.3161,8.3111,8.3111,8.3378,8.2779,8.2726,8.2846,8.2548,8.237,8.2726,8.3189,8.2965,8.256,8.3111,8.3218,8.3218,8.3322,8.3543,8.3359,8.3331,8.2935,8.3074,8.3667,8.4367,8.5047,8.6878,8.8539,8.919,9.034,9.0646,8.9893,8.9377,8.8963,8.8645,8.8107,8.7741,8.7166,8.7031,8.7132,8.7709,8.7741,8.8009,8.8662,8.9527,9.026,9.1117,9.2123,9.2808,9.3395,9.3472,9.3387,9.2708,9.1735,9.0545,8.9518,8.8687,8.7865,8.7213,8.7213,8.7502,8.7897,8.8259,8.8298,8.7905,8.8107,8.8784,8.9289,8.9939,9.0546,9.0818,9.0947,9.0902,9.0787,9.0748,9.0671,9.0825,9.1,9.0979,9.0594,9.0287,8.9979,8.9825,8.971,8.994,9.0171,9.0633,9.1056,8.6077,8.4682,8.5416,8.5196,8.4352,8.3765,8.3471,8.3291,8.2458,8.1479,8.0366,7.9614,7.9727,8.0477,8.0947,8.1508,8.2186,8.2186,8.2186,8.2186,8.2186,8.2251,8.2439,8.2763,8.3111,8.3246,8.3488,8.3862,8.4092,8.3876,8.3928,8.4004,8.3331,8.3189,8.2994,8.2554,8.2251,8.2402,8.2585,8.2523,8.2284,8.2434,8.2402,8.237,8.237,8.2554,8.3103,8.2883,8.2702,8.2876,8.3461,8.4186,8.5183,8.6767,8.8155,8.9329,9.0359,9.0743,9.0426,8.9763,8.95,8.9402,8.8774,8.7678,8.7098,8.7031,8.7098,8.7163,8.7298,8.7338,8.8002,8.8854,8.975,9.0821,9.187,9.2744,9.3201,9.3391,9.32,9.2722,9.1677,9.0284,8.9234,8.8302,8.7791,8.7105,8.766,8.7981,8.8329,8.8704,8.919,8.9142,8.9044,8.9364,8.9832,9.0346,9.0723,9.0702,9.0675,9.0441,9.0133,9.0115,9.0069,9.0311,9.0485,9.079,9.0825,8.994,8.921,8.894,8.8863,8.9056,8.9479,8.994,9.0479,8.5894,8.527,8.4646,8.4132,8.3801,8.303,8.2957,8.3114,8.1873,8.0623,7.9727,7.988,8.0182,8.0659,8.137,8.1748,8.2186,8.2186,8.2219,8.2186,8.2219,8.2434,8.2732,8.3103,8.3378,8.3772,8.4129,8.4467,8.4718,8.4443,8.4537,8.4311,8.3613,8.3294,8.2994,8.2554,8.2247,8.2186,8.2186,8.2186,8.2186,8.2186,8.2186,8.2186,8.2186,8.2279,8.2591,8.2793,8.2702,8.2823,8.3359,8.4097,8.4916,8.6279,8.752,8.8739,8.9833,9.0449,9.0586,8.9923,8.9573,8.8636,8.7985,8.7295,8.6995,8.7031,8.7031,8.7031,8.7031,8.7105,8.7978,8.8585,8.9321,9.0472,9.1545,9.2471,9.2946,9.305,9.2552,9.1854,9.0796,8.9556,8.8678,8.7863,8.7455,8.7139,8.7833,8.8504,8.8921,8.9189,8.9668,8.9995,8.9901,8.9792,9.022,9.0566,9.0858,9.0662,9.0462,8.9968,8.955,8.9361,8.9376,8.965,8.9783,8.988,8.965,8.8969,8.8671,8.8709,8.844,8.8171,8.8671,8.9248,8.9902,8.5527,8.4976,8.3875,8.3544,8.3618,8.2627,8.2517,8.2748,8.1729,8.0695,7.9994,8.0768,8.0908,8.1081,8.1675,8.2086,8.2113,8.2191,8.2523,8.2647,8.2763,8.2935,8.3322,8.3772,8.4116,8.4443,8.4718,8.5037,8.5016,8.4651,8.4443,8.4116,8.372,8.3294,8.3053,8.2554,8.2186,8.2186,8.2186,8.2186,8.2186,8.2186,8.2186,8.2186,8.2186,8.2219,8.2343,8.2528,8.256,8.2616,8.2987,8.3636,8.4468,8.5414,8.6615,8.7697,8.8834,8.9817,9.0051,8.9786,8.9161,8.7978,8.7456,8.7098,8.7031,8.7031,8.7031,8.7031,8.7031,8.7362,8.8133,8.8676,8.9406,9.0583,9.1206,9.2017,9.2359,9.2492,9.1653,9.0907,8.9919,8.9155,8.8329,8.7674,8.7794,8.7526,8.7831,8.8765,8.9835,9.007,9.0204,9.0434,9.0568,9.0499,9.0488,9.0723,9.0876,9.0722,9.0336,8.942,8.9017,8.8803,8.841,8.8286,8.845,8.8782,8.8582,8.8017,8.8288,8.8731,8.8115,8.7325,8.8055,8.8671,8.9402,8.4866,8.3508,8.3434,8.3801,8.4205,8.2847,8.226,8.2443,8.2161,8.1952,8.1782,8.1985,8.1688,8.1359,8.1933,8.2108,8.2147,8.2239,8.2763,8.3405,8.3322,8.3559,8.4092,8.4545,8.4806,8.5182,8.534,8.532,8.51,8.4446,8.4079,8.3468,8.2941,8.2928,8.3045,8.256,8.2219,8.2186,8.2186,8.2186,8.2186,8.2186,8.2186,8.2186,8.2186,8.2186,8.2284,8.2279,8.2311,8.2375,8.2375,8.2934,8.3677,8.4873,8.5946,8.6922,8.8377,8.9438,9.0044,8.95,8.8654,8.7586,8.7231,8.7031,8.7031,8.7031,8.7031,8.7031,8.7142,8.7509,8.8169,8.8867,8.9781,9.0587,9.1208,9.1425,9.1742,9.1512,9.072,9.0189,8.9612,8.8935,8.8102,8.7554,8.7991,8.8076,8.8076,8.887,9.0169,9.0517,9.0441,9.0387,9.0474,9.0499,9.0406,9.0743,9.0875,9.0722,9.0091,8.9044,8.834,8.806,8.7625,8.7146,8.7411,8.799,8.763,8.7118,8.7284,8.7348,8.6966,8.6594,8.7325,8.8209,8.9056,8.3911,8.3361,8.2847,8.3067,8.3618,8.2663,8.248,8.2847,8.248,8.2186,8.2186,8.2186,8.2113,8.1966,8.1994,8.2186,8.2227,8.2726,8.3387,8.3515,8.372,8.4276,8.474,8.5058,8.536,8.557,8.5682,8.5399,8.51,8.3928,8.2845,8.2154,8.1754,8.1901,8.2302,8.2251,8.2186,8.2186,8.2186,8.2186,8.2186,8.2186,8.2186,8.2186,8.2186,8.2186,8.2186,8.2186,8.2186,8.2186,8.2186,8.2553,8.3324,8.4474,8.5323,8.6381,8.7873,8.9692,9.0347,9.0258,8.9245,8.8152,8.7338,8.7139,8.7031,8.7031,8.7031,8.7178,8.7472,8.8023,8.894,8.916,8.9857,9.0775,9.1287,9.1105,9.11,9.044,8.9776,8.9514,8.905,8.8625,8.7961,8.7746,8.8076,8.856,8.8673,8.9016,9.0067,9.0228,9.0203,9.003,9.006,9.0111,9.0241,9.0322,9.0385,9.0249,8.9451,8.8312,8.7751,8.7448,8.7346,8.7147,8.7134,8.7136,8.6692,8.6232,8.5909,8.5666,8.6023,8.6483,8.7248,8.8132,8.894,8.3251,8.292,8.2406,8.248,8.2884,8.2406,8.2517,8.2847,8.2443,8.2186,8.2251,8.2402,8.2369,8.2295,8.2412,8.2466,8.2512,8.2912,8.372,8.3798,8.4263,8.485,8.528,8.5437,8.57,8.5828,8.5437,8.502,8.4635,8.2607,8.1403,8.0726,8.0296,8.0767,8.1368,8.1849,8.2186,8.2186,8.2186,8.2186,8.2186,8.2186,8.2186,8.2186,8.2186,8.2186,8.2186,8.2186,8.2186,8.2186,8.226,8.2443,8.3104,8.3985,8.4756,8.584,8.7481,8.92,9.0038,9.0212,8.9248,8.8635,8.7833,8.7321,8.7105,8.7031,8.7031,8.7252,8.7802,8.8536,8.9234,8.9381,9.0262,9.1179,9.1363,9.1253,9.1106,9.0519,9.0115,8.9711,8.9012,8.8502,8.7932,8.8103,8.8197,8.8729,8.925,8.9549,8.9678,8.9617,8.9593,8.9425,8.9326,8.9351,8.94,8.9525,8.9621,8.974,8.8709,8.7462,8.7417,8.7175,8.7159,8.6943,8.6378,8.5894,8.5681,8.536,8.5205,8.564,8.6371,8.6838,8.7308,8.8209,8.921,8.292,8.226,8.2186,8.2186,8.2186,8.2223,8.2223,8.2223,8.2223,8.2219,8.2316,8.2906,8.2871,8.2435,8.2948,8.3141,8.3112,8.3308,8.3991,8.474,8.5037,8.5532,8.5811,8.5971,8.5988,8.5811,8.536,8.4651,8.4067,8.1981,8.037,7.9238,7.8872,7.9419,8.0256,8.1018,8.1681,8.2018,8.2186,8.2186,8.2186,8.2186,8.2186,8.2186,8.2186,8.2186,8.2186,8.2186,8.2186,8.2186,8.2186,8.2223,8.2737,8.3765,8.4315,8.5419,8.7236,8.8421,8.9494,8.9644,8.9414,8.8983,8.8461,8.7794,8.7252,8.7031,8.7031,8.7325,8.7876,8.861,8.9271,9.0078,9.0922,9.1363,9.1693,9.1693,9.1657,9.1326,9.0996,9.0408,8.9528,8.8777,8.7858,8.7773,8.8107,8.8396,8.8719,8.8691,8.8791,8.8586,8.8559,8.8466,8.842,8.8476,8.8382,8.7815,8.8195,8.8082,8.7466,8.6517,8.6651,8.6725,8.6466,8.6,8.5132,8.47,8.4674,8.4679,8.4754,8.5382,8.6106,8.6883,8.7295,8.8731,8.9748,8.2406,8.2186,8.2186,8.2186,8.2186,8.2186,8.2186,8.2186,8.2186,8.2439,8.2906,8.3103,8.3274,8.3576,8.3789,8.3866,8.4001,8.4277,8.4664,8.5141,8.5495,8.5846,8.6043,8.6094,8.6094,8.5739,8.5159,8.4358,8.3543,8.1501,7.8731,7.6982,7.7555,7.8034,7.8623,7.9419,8.0659,8.161,8.1849,8.1952,8.2018,8.2018,8.2121,8.2154,8.2186,8.2186,8.2186,8.2186,8.2186,8.2186,8.2186,8.2186,8.2296,8.3761,8.4963,8.6962,8.7965,8.8615,8.9695,8.9563,8.9237,8.9081,8.8575,8.7833,8.7288,8.7031,8.7031,8.7472,8.8206,8.905,8.9784,9.0555,9.1216,9.1583,9.1803,9.1803,9.1693,9.1326,9.0922,9.0152,8.9307,8.8564,8.7723,8.7651,8.7923,8.8107,8.8137,8.8009,8.7842,8.7669,8.7433,8.7402,8.6742,8.6538,8.5727,8.5082,8.5866,8.6317,8.5891,8.5747,8.61,8.61,8.5707,8.5233,8.4646,8.4128,8.377,8.3892,8.4139,8.4788,8.5556,8.647,8.7473,8.8717,8.9692,8.2186,8.2186,8.2186,8.2186,8.2186,8.2186,8.2186,8.2186,8.2186,8.2465,8.2853,8.335,8.3862,8.4116,8.4358,8.4429,8.4228,8.468,8.4936,8.4828,8.5664,8.5954,8.6094,8.6094,8.6094,8.5645,8.4995,8.4228,8.3181,8.0757,7.7949,7.6067,7.6462,7.6882,7.7476,7.8245,7.9262,8.0256,8.0911,8.1195,8.1439,8.1576,8.1748,8.2018,8.2121,8.2084,8.2121,8.2121,8.2154,8.2186,8.2186,8.2186,8.2311,8.342,8.4028,8.5616,8.6481,8.7268,8.8265,8.8789,8.8831,8.8733,8.8404,8.7833,8.7362,8.7031,8.7288,8.7692,8.8683,8.9565,9.0262,9.0886,9.1363,9.1803,9.1803,9.1803,9.1436,9.1033,9.0372,8.9638,8.8899,8.8225,8.7833,8.7767,8.7581,8.7452,8.7217,8.7013,8.6841,8.663,8.6383,8.6241,8.5177,8.4273,8.346,8.314,8.398,8.4785,8.4864,8.49,8.5371,8.5797,8.5717,8.5126,8.4352,8.3871,8.346,8.3386,8.36,8.433,8.5035,8.588,8.6891,8.805,8.8871,8.2186,8.2186,8.2186,8.2186,8.2186,8.2186,8.2186,8.2186,8.2186,8.2251,8.2554,8.357,8.4054,8.4228,8.456,8.4537,8.442,8.4673,8.4806,8.43,8.534,8.5919,8.6077,8.6077,8.5971,8.5608,8.4828,8.3712,8.271,8.0513,7.7907,7.5818,7.5771,7.6173,7.6882,7.7026,7.7779,7.8376,7.8867,7.9183,8.0182,8.0587,8.0911,8.1613,8.1748,8.1748,8.1815,8.1952,8.2088,8.2051,8.2186,8.2154,8.2338,8.2432,8.2727,8.3391,8.4619,8.5502,8.65,8.7158,8.7662,8.7842,8.8024,8.7621,8.7215,8.7031,8.7252,8.7619,8.8463,8.905,8.9638,9.0555,9.1216,9.151,9.162,9.1693,9.162,9.0922,8.9931,8.9197,8.8535,8.7865,8.7421,8.7328,8.7361,8.6921,8.6748,8.6499,8.6247,8.6028,8.5583,8.5244,8.4053,8.3033,8.2416,8.226,8.2549,8.3081,8.3379,8.381,8.4184,8.4972,8.5903,8.4982,8.4058,8.3654,8.3341,8.3115,8.3202,8.3919,8.4632,8.5303,8.6251,8.7198,8.7973,8.2186,8.2186,8.2186,8.2186,8.2186,8.2186,8.2186,8.2186,8.2186,8.2465,8.2935,8.3331,8.3757,8.4154,8.4372,8.4325,8.4276,8.4396,8.4605,8.4673,8.5202,8.5532,8.5937,8.5828,8.5757,8.524,8.4344,8.2891,8.0897,7.9313,7.7949,7.5926,7.5676,7.5973,7.6173,7.6219,7.6508,7.6927,7.6972,7.7771,7.8983,7.9302,7.9614,7.988,7.9918,8.0032,8.0182,8.0623,8.084,8.1018,8.1815,8.2007,8.1961,8.1747,8.1973,8.2549,8.3223,8.3964,8.4656,8.5516,8.6241,8.6502,8.672,8.7004,8.7068,8.7031,8.7178,8.7545,8.7949,8.85,8.916,9.0152,9.0959,9.1179,9.1363,9.1546,9.1693,9.0665,8.9564,8.8793,8.8133,8.7655,8.7178,8.7031,8.7031,8.696,8.6925,8.6749,8.6427,8.6065,8.5162,8.4577,8.3164,8.222,8.1748,8.1413,8.1767,8.1681,8.1845,8.2411,8.3081,8.368,8.4352,8.4293,8.3765,8.3361,8.292,8.2541,8.2801,8.344,8.3882,8.4444,8.4802,8.5594,8.6566,8.2186,8.2186,8.2186,8.2186,8.2186,8.2186,8.2186,8.2186,8.2186,8.237,8.2793,8.3082,8.3405,8.3824,8.4029,8.3902,8.3888,8.4104,8.408,8.4239,8.4651,8.485,8.5141,8.532,8.5037,8.4583,8.389,8.2246,7.9358,7.8822,7.7949,7.6033,7.5642,7.5676,7.5676,7.5676,7.5642,7.5723,7.5642,7.6428,7.7701,7.7949,7.8577,7.874,7.8983,7.8943,7.9143,7.965,7.9765,7.9956,8.044,8.0066,7.9906,7.9845,8.0089,8.0637,8.1424,8.2533,8.3144,8.4088,8.5084,8.5506,8.632,8.6927,8.7031,8.7068,8.7362,8.7729,8.7986,8.8463,8.905,8.9931,9.0445,9.0739,9.0812,9.0922,9.0702,9.0005,8.8867,8.7802,8.7435,8.7362,8.7031,8.7031,8.6997,8.6821,8.6784,8.6784,8.65,8.621,8.5206,8.4385,8.3281,8.269,8.2601,8.1863,8.1066,8.0837,8.0722,8.1994,8.3133,8.2737,8.2685,8.3285,8.3434,8.2957,8.2553,8.226,8.2251,8.2738,8.3113,8.348,8.3824,8.4228,8.5098,8.2186,8.2186,8.2186,8.2186,8.2186,8.2186,8.2186,8.2186,8.2186,8.2186,8.2348,8.2823,8.3053,8.3303,8.3597,8.3378,8.3331,8.3433,8.3405,8.3597,8.3876,8.4252,8.4372,8.4325,8.4139,8.355,8.2779,8.0908,7.8465,7.816,7.7336,7.5863,7.5574,7.5642,7.5574,7.554,7.5439,7.5337,7.5303,7.5371,7.5922,7.6519,7.7433,7.8203,7.8577,7.8577,7.8577,7.874,7.874,7.8822,7.8862,7.8529,7.8256,7.8316,7.8431,7.8939,7.999,8.0973,8.1852,8.3372,8.433,8.5201,8.6247,8.6821,8.6856,8.7178,8.7472,8.7655,8.7912,8.8206,8.8757,8.9271,8.9748,9.0115,9.0152,9.0152,8.9711,8.9307,8.828,8.7142,8.7031,8.7031,8.7031,8.7031,8.6891,8.6714,8.6679,8.6607,8.6499,8.6208,8.5591,8.4999,8.4319,8.387,8.3267,8.2466,8.1277,8.0964,8.1145,8.2333,8.3017,8.253,8.2505,8.3169,8.3141,8.2663,8.2443,8.2223,8.2251,8.2284,8.2528,8.2913,8.3103,8.3515,8.3876,8.2186,8.2186,8.2186,8.2186,8.2186,8.2186,8.2186,8.2186,8.215,8.2186,8.2178,8.2247,8.2407,8.237,8.2465,8.2497,8.2678,8.2763,8.3053,8.3246,8.3303,8.3704,8.3864,8.3585,8.3296,8.237,8.0992,7.9071,7.7475,7.6908,7.5897,7.4213,7.5337,7.5337,7.483,7.4796,7.4796,7.4695,7.4458,7.4356,7.4965,7.5485,7.5939,7.6266,7.6312,7.6312,7.6508,7.7204,7.7511,7.7606,7.7606,7.7433,7.7313,7.7239,7.7428,7.7983,7.8987,7.9785,8.0932,8.2231,8.3199,8.4289,8.5276,8.6283,8.6536,8.7031,8.7215,8.7215,8.7362,8.7362,8.7802,8.8243,8.8683,8.905,8.9234,8.9124,8.883,8.8573,8.8023,8.7362,8.7031,8.7031,8.7031,8.7031,8.7031,8.6891,8.6891,8.6819,8.6711,8.6348,8.5841,8.5444,8.5046,8.3932,8.2862,8.2831,8.2016,8.1555,8.114,8.1495,8.1877,8.2168,8.2359,8.2561,8.2641,8.237,8.2186,8.2186,8.2186,8.2219,8.2219,8.2407,8.2585,8.2823,8.3218]}]]